[[{"header":{"parameterUnit":"m.s-1","parameterCategory":1,"la1":30.6,"la2":28.766,"lo1":-90.7593,"lo2":-88.6598,"dy":0.0162,"dx":0.0183,"nx":116,"ny":114,"refTime":"2023-10-27T12:00:00:Z","depth":0,"parameterNumber":2,"parameterNumberName":"U-component_of_WINDS"},"data":[0.0,0.0,0.0,0.0,0.0,0.0,0.0,0.0,0.0,0.0,0.0,0.0,0.0,0.0,0.0,0.0,0.0,0.0,0.0,0.0,0.0,0.0,0.0,0.0,0.0,0.0,0.0,0.0,0.0,0.0,0.0,0.0,0.0,0.0,0.0,0.0,0.0,0.0,0.0,0.0,0.0,0.0,0.0,0.0,0.0,0.0,0.0,0.0,0.0,0.0,0.0,0.0,0.0,0.0,0.0,0.0,0.0,0.0,0.0,0.0,0.0,0.0,0.0,0.0,0.0,0.0,0.0,0.0,0.0,0.0,0.0,0.0,0.0,0.0,0.0,0.0,0.0,0.0,0.0,0.0,0.0,0.0,0.0,0.0,0.0,0.0,0.0,0.0,0.0,0.0,0.0,0.0,0.0,0.0,0.0,0.0,0.0,0.0,0.0,0.0,0.0,0.0,0.0,0.0,0.0,0.0,0.0,0.0,0.0,0.0,0.0,0.0,0.0,0.0,0.0,0.0,0.0,0.0,0.0,0.0,0.0,0.0,0.0,0.0,0.0,0.0,0.0,0.0,0.0,0.0,0.0,0.0,0.0,0.0,0.0,0.0,0.0,0.0,0.0,0.0,0.0,0.0,0.0,0.0,0.0,0.0,0.0,0.0,0.0,0.0,0.0,0.0,0.0,0.0,0.0,0.0,0.0,0.0,0.0,0.0,0.0,0.0,0.0,0.0,0.0,0.0,0.0,0.0,0.0,0.0,0.0,0.0,0.0,0.0,0.0,0.0,0.0,0.0,0.0,0.0,0.0,0.0,0.0,0.0,0.0,0.0,0.0,0.0,0.0,0.0,0.0,0.0,0.0,0.0,0.0,0.0,0.0,0.0,0.0,0.0,0.0,0.0,0.0,0.0,0.0,0.0,0.0,0.0,0.0,0.0,0.0,0.0,0.0,0.0,0.0,0.0,0.0,0.0,0.0,0.0,0.0,0.0,0.0,0.0,0.0,0.0,0.0,0.0,0.0,0.0,0.0,0.0,0.0,0.0,0.0,0.0,0.0,0.0,0.0,0.0,0.0,0.0,0.0,0.0,0.0,0.0,0.0,0.0,0.0,0.0,0.0,0.0,0.0,0.0,0.0,0.0,0.0,0.0,0.0,0.0,0.0,0.0,0.0,0.0,0.0,0.0,0.0,0.0,0.0,0.0,0.0,0.0,0.0,0.0,0.0,0.0,0.0,0.0,0.0,0.0,0.0,0.0,0.0,0.0,0.0,0.0,0.0,0.0,0.0,0.0,0.0,0.0,0.0,0.0,0.0,0.0,0.0,0.0,0.0,0.0,0.0,0.0,0.0,0.0,0.0,0.0,0.0,0.0,0.0,0.0,0.0,0.0,0.0,0.0,0.0,0.0,0.0,0.0,0.0,0.0,0.0,0.0,0.0,0.0,0.0,0.0,0.0,0.0,0.0,0.0,0.0,0.0,0.0,0.0,0.0,0.0,0.0,0.0,0.0,0.0,0.0,0.0,0.0,0.0,0.0,0.0,0.0,0.0,0.0,0.0,0.0,0.0,0.0,0.0,0.0,0.0,0.0,0.0,0.0,0.0,0.0,0.0,0.0,0.0,0.0,0.0,0.0,0.0,0.0,0.0,0.0,0.0,0.0,0.0,0.0,0.0,0.0,0.0,0.0,0.0,0.0,0.0,0.0,0.0,0.0,0.0,0.0,0.0,0.0,0.0,0.0,0.0,0.0,0.0,0.0,0.0,0.0,0.0,0.0,0.0,0.0,0.0,0.0,0.0,0.0,0.0,0.0,0.0,0.0,0.0,0.0,0.0,0.0,0.0,0.0,0.0,0.0,0.0,0.0,0.0,0.0,0.0,0.0,0.0,0.0,0.0,0.0,0.0,0.0,0.0,0.0,0.0,0.0,0.0,0.0,0.0,0.0,0.0,0.0,0.0,0.0,0.0,0.0,0.0,0.0,0.0,0.0,0.0,0.0,0.0,0.0,0.0,0.0,0.0,0.0,0.0,0.0,0.0,0.0,0.0,0.0,0.0,0.0,0.0,0.0,0.0,0.0,0.0,0.0,0.0,0.0,0.0,0.0,0.0,0.0,0.0,0.0,0.0,0.0,0.0,0.0,0.0,0.0,0.0,0.0,0.0,0.0,0.0,0.0,0.0,0.0,0.0,0.0,0.0,0.0,0.0,0.0,0.0,0.0,0.0,0.0,0.0,0.0,0.0,0.0,0.0,0.0,0.0,0.0,0.0,0.0,0.0,0.0,0.0,0.0,0.0,0.0,0.0,0.0,0.0,0.0,0.0,0.0,0.0,0.0,0.0,0.0,0.0,0.0,0.0,0.0,0.0,0.0,0.0,0.0,0.0,0.0,0.0,0.0,0.0,0.0,0.0,0.0,0.0,0.0,0.0,0.0,0.0,0.0,0.0,0.0,0.0,0.0,0.0,0.0,0.0,0.0,0.0,0.0,0.0,0.0,0.0,0.0,0.0,0.0,0.0,0.0,0.0,0.0,0.0,0.0,0.0,0.0,0.0,0.0,0.0,0.0,0.0,0.0,0.0,0.0,0.0,0.0,0.0,0.0,0.0,0.0,0.0,0.0,0.0,0.0,0.0,0.0,0.0,0.0,0.0,0.0,0.0,0.0,0.0,0.0,0.0,0.0,0.0,0.0,0.0,0.0,0.0,0.0,0.0,0.0,0.0,0.0,0.0,0.0,0.0,0.0,0.0,0.0,0.0,0.0,0.0,0.0,0.0,0.0,0.0,0.0,0.0,0.0,0.0,0.0,0.0,0.0,0.0,0.0,0.0,0.0,0.0,0.0,0.0,0.0,0.0,0.0,0.0,0.0,0.0,0.0,0.0,0.0,0.0,0.0,0.0,0.0,0.0,0.0,0.0,0.0,0.0,0.0,0.0,0.0,0.0,0.0,0.0,0.0,0.0,0.0,0.0,0.0,0.0,0.0,0.0,0.0,0.0,0.0,0.0,0.0,0.0,0.0,0.0,0.0,0.0,0.0,0.0,0.0,0.0,0.0,0.0,0.0,0.0,0.0,0.0,0.0,0.0,0.0,0.0,0.0,0.0,0.0,0.0,0.0,0.0,0.0,0.0,0.0,0.0,0.0,0.0,0.0,0.0,0.0,0.0,0.0,0.0,0.0,0.0,0.0,0.0,0.0,0.0,0.0,0.0,0.0,0.0,0.0,0.0,0.0,0.0,0.0,0.0,0.0,0.0,0.0,0.0,0.0,0.0,0.0,0.0,0.0,0.0,0.0,0.0,0.0,0.0,0.0,0.0,0.0,0.0,0.0,0.0,0.0,0.0,0.0,0.0,0.0,0.0,0.0,0.0,0.0,0.0,0.0,0.0,0.0,0.0,0.0,0.0,0.0,0.0,0.0,0.0,0.0,0.0,0.0,0.0,0.0,0.0,0.0,0.0,0.0,0.0,0.0,0.0,0.0,0.0,0.0,0.0,0.0,0.0,0.0,0.0,0.0,0.0,0.0,0.0,0.0,0.0,0.0,0.0,0.0,0.0,0.0,0.0,0.0,0.0,0.0,0.0,0.0,0.0,0.0,0.0,0.0,0.0,0.0,0.0,0.0,0.0,0.0,0.0,0.0,0.0,0.0,0.0,0.0,0.0,0.0,0.0,0.0,0.0,0.0,0.0,0.0,0.0,0.0,0.0,0.0,0.0,0.0,0.0,0.0,0.0,0.0,0.0,0.0,0.0,0.0,0.0,0.0,0.0,0.0,0.0,0.0,0.0,0.0,0.0,0.0,0.0,0.0,0.0,0.0,0.0,0.0,0.0,0.0,0.0,0.0,0.0,0.0,0.0,0.0,0.0,0.0,0.0,0.0,0.0,0.0,0.0,0.0,0.0,0.0,0.0,0.0,0.0,0.0,0.0,0.0,0.0,0.0,0.0,0.0,0.0,0.0,0.0,0.0,0.0,0.0,0.0,0.0,0.0,0.0,0.0,0.0,0.0,0.0,0.0,0.0,0.0,0.0,0.0,0.0,0.0,0.0,0.0,0.0,0.0,0.0,0.0,0.0,0.0,0.0,0.0,0.0,0.0,0.0,0.0,0.0,0.0,0.0,0.0,0.0,0.0,0.0,0.0,0.0,0.0,0.0,0.0,0.0,0.0,0.0,0.0,0.0,0.0,0.0,0.0,0.0,0.0,0.0,0.0,0.0,0.0,0.0,0.0,0.0,0.0,0.0,0.0,0.0,0.0,0.0,0.0,0.0,0.0,0.0,0.0,0.0,0.0,0.0,0.0,0.0,0.0,0.0,0.0,0.0,0.0,0.0,0.0,0.0,0.0,0.0,0.0,0.0,0.0,0.0,0.0,0.0,0.0,0.0,0.0,0.0,0.0,0.0,0.0,0.0,0.0,0.0,0.0,0.0,0.0,0.0,0.0,0.0,0.0,0.0,0.0,0.0,0.0,0.0,0.0,0.0,0.0,0.0,0.0,0.0,0.0,0.0,0.0,0.0,0.0,0.0,0.0,0.0,0.0,0.0,0.0,0.0,0.0,0.0,0.0,0.0,0.0,0.0,0.0,0.0,0.0,0.0,0.0,0.0,0.0,0.0,0.0,0.0,0.0,0.0,0.0,0.0,0.0,0.0,0.0,0.0,0.0,0.0,0.0,0.0,0.0,0.0,0.0,0.0,0.0,0.0,0.0,0.0,0.0,0.0,0.0,0.0,0.0,0.0,0.0,0.0,0.0,0.0,0.0,0.0,0.0,0.0,0.0,0.0,0.0,0.0,0.0,0.0,0.0,0.0,0.0,0.0,0.0,0.0,0.0,0.0,0.0,0.0,0.0,0.0,0.0,0.0,0.0,0.0,0.0,0.0,0.0,0.0,0.0,0.0,0.0,0.0,0.0,0.0,0.0,0.0,0.0,0.0,0.0,0.0,0.0,0.0,0.0,0.0,0.0,0.0,0.0,0.0,0.0,0.0,0.0,0.0,0.0,0.0,0.0,0.0,0.0,0.0,0.0,0.0,0.0,0.0,0.0,0.0,0.0,0.0,0.0,0.0,0.0,0.0,0.0,0.0,0.0,0.0,0.0,0.0,0.0,0.0,0.0,0.0,0.0,0.0,0.0,0.0,0.0,0.0,0.0,0.0,0.0,0.0,0.0,0.0,0.0,0.0,0.0,0.0,0.0,0.0,0.0,0.0,0.0,0.0,0.0,0.0,0.0,0.0,0.0,0.0,0.0,0.0,0.0,0.0,0.0,0.0,0.0,0.0,0.0,0.0,0.0,0.0,0.0,0.0,0.0,0.0,0.0,0.0,0.0,0.0,0.0,0.0,0.0,0.0,0.0,0.0,0.0,0.0,0.0,0.0,0.0,0.0,0.0,0.0,0.0,0.0,0.0,0.0,0.0,0.0,0.0,0.0,0.0,0.0,0.0,0.0,0.0,0.0,0.0,0.0,0.0,0.0,0.0,0.0,0.0,0.0,0.0,0.0,0.0,0.0,0.0,0.0,0.0,0.0,0.0,0.0,0.0,0.0,0.0,0.0,0.0,0.0,0.0,0.0,0.0,0.0,0.0,0.0,0.0,0.0,0.0,0.0,0.0,0.0,0.0,0.0,0.0,0.0,0.0,0.0,0.0,0.0,0.0,0.0,0.0,0.0,0.0,0.0,0.0,0.0,0.0,0.0,0.0,0.0,0.0,0.0,0.0,0.0,0.0,0.0,0.0,0.0,0.0,0.0,0.0,0.0,0.0,0.0,0.0,0.0,0.0,0.0,0.0,0.0,0.0,0.0,0.0,0.0,0.0,0.0,0.0,0.0,0.0,0.0,0.0,0.0,0.0,0.0,0.0,0.0,0.0,0.0,0.0,0.0,0.0,0.0,0.0,0.0,0.0,0.0,0.0,0.0,0.0,0.0,0.0,0.0,0.0,0.0,0.0,0.0,0.0,0.0,0.0,0.0,0.0,0.0,0.0,0.0,0.0,0.0,0.0,0.0,0.0,0.0,0.0,0.0,0.0,0.0,0.0,0.0,0.0,0.0,0.0,0.0,0.0,0.0,0.0,0.0,0.0,0.0,0.0,0.0,0.0,0.0,0.0,0.0,0.0,0.0,0.0,4.9063,4.6511,0.0,0.0,0.0,0.0,0.0,0.0,0.0,0.0,0.0,0.0,0.0,0.0,0.0,0.0,0.0,0.0,0.0,0.0,0.0,0.0,0.0,0.0,0.0,0.0,0.0,0.0,0.0,0.0,0.0,0.0,0.0,0.0,0.0,0.0,0.0,0.0,0.0,0.0,0.0,0.0,0.0,0.0,0.0,0.0,0.0,0.0,0.0,0.0,0.0,0.0,0.0,0.0,0.0,0.0,0.0,0.0,0.0,0.0,0.0,0.0,0.0,0.0,0.0,0.0,0.0,0.0,0.0,0.0,0.0,0.0,0.0,0.0,0.0,0.0,0.0,0.0,0.0,0.0,0.0,0.0,0.0,0.0,0.0,0.0,0.0,0.0,0.0,0.0,0.0,0.0,0.0,0.0,0.0,0.0,0.0,0.0,0.0,0.0,0.0,0.0,0.0,0.0,0.0,0.0,0.0,0.0,0.0,0.0,0.0,0.0,0.0,0.0,0.0,0.0,5.0668,4.9618,0.0,0.0,0.0,0.0,0.0,0.0,0.0,0.0,0.0,0.0,0.0,0.0,0.0,0.0,0.0,0.0,0.0,0.0,0.0,0.0,0.0,0.0,0.0,0.0,0.0,0.0,0.0,0.0,0.0,0.0,0.0,0.0,0.0,0.0,0.0,0.0,0.0,0.0,0.0,0.0,0.0,0.0,0.0,0.0,0.0,0.0,0.0,0.0,0.0,0.0,0.0,0.0,0.0,0.0,0.0,0.0,0.0,0.0,0.0,0.0,0.0,0.0,0.0,0.0,0.0,0.0,0.0,0.0,0.0,0.0,0.0,0.0,0.0,0.0,0.0,0.0,0.0,0.0,0.0,0.0,0.0,0.0,0.0,0.0,0.0,0.0,0.0,0.0,0.0,0.0,0.0,0.0,0.0,0.0,0.0,0.0,0.0,0.0,0.0,0.0,0.0,0.0,0.0,0.0,0.0,0.0,0.0,0.0,5.1686,5.2405,5.1772,5.3026,5.2991,5.196,5.2485,5.2992,5.3345,5.1583,0.0,0.0,0.0,0.0,0.0,0.0,0.0,0.0,0.0,0.0,0.0,0.0,0.0,0.0,0.0,0.0,0.0,0.0,0.0,0.0,0.0,0.0,0.0,0.0,0.0,0.0,0.0,0.0,0.0,0.0,0.0,0.0,0.0,0.0,0.0,0.0,0.0,0.0,3.6551,3.6526,3.6826,3.7245,0.0,0.0,0.0,0.0,0.0,0.0,0.0,0.0,0.0,0.0,0.0,0.0,0.0,0.0,0.0,0.0,0.0,0.0,0.0,0.0,0.0,0.0,0.0,0.0,0.0,0.0,0.0,0.0,0.0,0.0,0.0,0.0,0.0,0.0,0.0,0.0,0.0,0.0,0.0,0.0,0.0,0.0,0.0,0.0,4.0641,4.2792,0.0,0.0,0.0,0.0,0.0,0.0,0.0,0.0,0.0,0.0,0.0,0.0,0.0,4.8865,4.9575,5.3276,5.4801,5.4139,5.6392,5.7229,5.6652,5.6695,5.7051,5.7502,5.5498,0.0,5.387,5.4211,0.0,0.0,0.0,0.0,0.0,0.0,0.0,0.0,0.0,0.0,0.0,0.0,0.0,0.0,0.0,0.0,0.0,0.0,0.0,0.0,0.0,0.0,0.0,0.0,0.0,0.0,0.0,0.0,0.0,0.0,0.0,0.0,0.0,0.0,0.0,0.0,3.6971,3.9329,4.0818,4.0812,4.0982,4.1268,3.9938,3.7251,3.3775,3.4443,0.0,0.0,0.0,0.0,0.0,0.0,0.0,0.0,0.0,0.0,0.0,0.0,0.0,0.0,0.0,0.0,0.0,0.0,0.0,0.0,0.0,0.0,0.0,0.0,0.0,0.0,0.0,0.0,0.0,0.0,0.0,0.0,0.0,0.0,0.0,0.0,0.0,0.0,0.0,4.1244,4.3624,4.5492,4.5251,4.4637,0.0,0.0,0.0,0.0,0.0,0.0,0.0,0.0,0.0,4.9615,5.1647,5.287,5.3299,5.5811,5.7141,5.7246,5.8272,5.8829,5.8986,5.8923,5.9098,5.9426,5.8327,5.7682,5.7289,5.6168,5.5173,5.4158,0.0,0.0,0.0,0.0,4.825,4.9451,0.0,0.0,0.0,0.0,0.0,0.0,0.0,0.0,0.0,0.0,0.0,0.0,0.0,0.0,0.0,3.3214,0.0,0.0,0.0,0.0,0.0,0.0,0.0,0.0,0.0,0.0,0.0,0.0,4.0715,4.2677,4.3942,4.3776,4.3818,4.3995,4.388,4.1563,3.7679,3.7888,3.6611,0.0,0.0,0.0,0.0,0.0,0.0,0.0,0.0,0.0,0.0,0.0,0.0,0.0,0.0,0.0,0.0,0.0,0.0,0.0,0.0,0.0,0.0,0.0,0.0,0.0,0.0,0.0,0.0,0.0,0.0,0.0,0.0,0.0,0.0,0.0,0.0,0.0,0.0,4.3802,4.5893,4.8031,4.761,4.681,0.0,0.0,0.0,0.0,0.0,0.0,4.9358,5.0335,5.1605,5.3271,5.5239,5.6307,5.6405,5.7719,5.8702,5.9291,5.9291,5.958,6.0115,6.0115,6.0115,6.0115,6.0115,6.0115,5.995,5.8012,5.6811,5.6137,5.5385,5.3808,5.1945,5.1694,5.2105,5.2872,0.0,0.0,0.0,0.0,0.0,0.0,0.0,0.0,0.0,0.0,0.0,0.0,0.0,0.0,3.4806,3.4091,3.5392,3.4693,0.0,0.0,0.0,0.0,0.0,0.0,0.0,0.0,0.0,4.1347,4.2737,4.3647,4.4064,4.3447,4.3543,4.4245,4.3891,4.2449,4.0346,4.1067,3.9809,3.7389,0.0,0.0,0.0,0.0,0.0,0.0,0.0,0.0,0.0,0.0,0.0,0.0,0.0,0.0,0.0,0.0,0.0,0.0,0.0,0.0,0.0,0.0,0.0,0.0,0.0,0.0,0.0,0.0,0.0,0.0,0.0,0.0,0.0,0.0,0.0,0.0,0.0,0.0,0.0,4.9452,5.1065,0.0,0.0,0.0,0.0,4.8106,5.0056,5.1716,5.2711,5.4172,5.5772,5.7458,5.8363,5.8827,5.8835,5.9615,6.0009,6.0044,6.0044,6.008,6.0115,6.0115,6.0115,6.0115,6.0115,6.0115,6.0072,5.9958,5.9784,5.9254,5.6391,5.5538,5.5568,5.2663,5.3457,5.5986,0.0,0.0,0.0,0.0,0.0,0.0,0.0,0.0,0.0,0.0,0.0,0.0,0.0,3.5038,3.6809,3.7085,3.8054,3.7682,3.5451,0.0,0.0,0.0,0.0,0.0,0.0,0.0,4.1672,4.3851,4.5124,4.5842,4.5932,4.5027,4.4719,4.4988,4.4859,4.4382,4.3597,4.2698,4.0772,3.8409,3.8805,3.7131,0.0,0.0,0.0,0.0,0.0,0.0,0.0,0.0,0.0,0.0,0.0,0.0,0.0,0.0,0.0,0.0,0.0,0.0,0.0,0.0,0.0,0.0,0.0,0.0,0.0,0.0,0.0,0.0,0.0,0.0,0.0,0.0,0.0,0.0,0.0,0.0,0.0,5.0508,5.099,0.0,5.1759,5.2038,5.2145,5.2003,5.4134,5.5626,5.6065,5.7116,5.7946,5.8554,5.9818,6.0485,6.0485,6.1203,6.1589,6.1589,6.1589,6.1589,6.1589,6.1589,6.1589,6.1589,6.1589,6.1589,6.1589,6.1589,6.0952,5.9886,5.8815,5.8503,5.8588,5.7483,5.7756,5.8693,0.0,0.0,0.0,0.0,0.0,0.0,0.0,0.0,0.0,0.0,0.0,3.3479,3.4752,3.7181,3.8833,3.9142,3.9874,3.9276,3.6804,0.0,0.0,0.0,0.0,0.0,0.0,4.1215,4.3888,4.5726,4.6378,4.6851,4.7188,4.6224,4.5935,4.6195,4.6077,4.5897,4.5566,4.4146,4.2523,4.0906,4.0801,3.8683,3.5569,0.0,0.0,0.0,0.0,0.0,0.0,0.0,0.0,0.0,0.0,0.0,0.0,0.0,0.0,0.0,0.0,0.0,0.0,0.0,0.0,0.0,0.0,0.0,0.0,0.0,0.0,0.0,0.0,0.0,0.0,0.0,0.0,0.0,0.0,4.6796,4.9514,5.1541,5.2171,5.2815,5.3835,5.4192,5.4643,5.5289,5.7257,5.848,5.8554,5.958,6.0142,6.0142,6.1125,6.18,6.2073,6.2573,6.2924,6.317,6.317,6.317,6.317,6.317,6.274,6.2081,6.2845,6.274,6.2081,6.2845,6.2564,6.1616,6.1098,6.0887,6.0887,6.0887,6.0887,6.0887,0.0,0.0,0.0,0.0,0.0,0.0,0.0,0.0,0.0,0.0,3.3842,3.6163,3.8495,4.0123,4.0747,4.0019,4.0688,3.93,3.4824,3.4476,0.0,0.0,0.0,0.0,4.1815,4.3019,4.4735,4.7093,4.6405,4.658,4.7589,4.6925,4.7027,4.776,4.7377,4.6828,4.6162,4.5516,4.5174,4.4935,4.3531,4.1192,3.8451,0.0,0.0,0.0,0.0,0.0,0.0,0.0,0.0,0.0,0.0,0.0,0.0,0.0,0.0,0.0,0.0,0.0,0.0,0.0,0.0,0.0,0.0,0.0,0.0,0.0,0.0,0.0,0.0,0.0,0.0,0.0,0.0,0.0,4.5905,4.8623,5.1143,5.2627,5.4848,5.6303,5.6458,5.7207,5.7724,5.7915,5.9299,6.0185,6.022,6.1554,6.2335,6.237,6.2405,6.2792,6.3591,6.3661,6.4074,6.4794,6.4794,6.4759,6.4759,6.4759,6.3574,6.1616,6.382,6.3539,6.1652,6.3846,6.4759,6.4627,6.3064,6.2467,6.2467,6.2467,6.2467,6.2476,0.0,0.0,0.0,0.0,0.0,0.0,0.0,0.0,0.0,0.0,3.3119,3.5705,3.6994,3.8974,4.0423,4.0947,4.0718,3.9801,3.8072,0.0,0.0,0.0,0.0,0.0,4.4559,4.6358,4.783,4.9019,4.8075,4.7759,4.8015,4.7056,4.6732,4.6939,4.68,4.6648,4.6473,4.6287,4.62,4.6047,4.4712,4.2727,4.0531,0.0,0.0,0.0,0.0,0.0,0.0,0.0,0.0,0.0,0.0,0.0,0.0,0.0,0.0,0.0,0.0,0.0,0.0,0.0,0.0,0.0,0.0,0.0,0.0,0.0,0.0,0.0,0.0,0.0,0.0,0.0,4.8432,5.0802,5.0084,5.18,5.3667,5.5181,5.6539,5.7604,5.8203,5.899,5.9673,6.0274,6.1238,6.2011,6.2608,6.1414,6.0993,6.1581,6.2116,6.2792,6.3591,6.5233,6.6453,6.7216,6.6663,6.6382,6.6382,6.6382,6.6031,6.547,6.6102,6.5996,6.547,6.6102,6.6382,6.6207,6.4662,6.4066,6.4066,6.4066,6.4066,6.382,0.0,0.0,0.0,0.0,0.0,0.0,0.0,0.0,0.0,0.0,3.3558,3.6207,3.7346,3.9267,4.0682,4.1351,4.1354,4.0615,3.8926,0.0,0.0,0.0,0.0,4.508,4.6985,4.8321,4.9049,4.9125,4.833,4.8099,4.8362,4.7735,4.7434,4.7434,4.7434,4.7434,4.7424,4.7127,4.7034,4.692,4.592,4.4023,4.1881,4.2186,4.1042,3.9325,3.939,3.948,3.9439,3.8419,0.0,0.0,0.0,0.0,0.0,0.0,0.0,0.0,0.0,0.0,0.0,0.0,0.0,0.0,0.0,0.0,0.0,0.0,0.0,0.0,0.0,0.0,0.0,0.0,5.1235,5.3826,5.4577,5.5267,5.6117,5.7335,5.8227,5.9089,5.9896,6.0641,6.1414,6.2213,6.2951,6.3655,6.4262,6.3463,6.2606,6.1777,6.343,6.4077,6.3598,6.6035,6.7563,6.8163,6.7675,6.7606,6.791,6.791,6.7552,6.702,6.8192,6.8127,6.7296,6.8486,6.877,6.8278,0.0,0.0,0.0,0.0,6.5672,6.5461,0.0,0.0,0.0,0.0,0.0,0.0,0.0,0.0,0.0,0.0,0.0,3.7142,3.8639,4.0231,4.1249,4.1392,4.2011,4.1248,0.0,0.0,0.0,4.4539,4.618,4.7566,4.8776,4.9139,4.8978,4.8245,4.7884,4.8009,4.8594,4.8594,4.8594,4.8594,4.8594,4.8594,4.8563,4.7978,4.7701,4.764,4.6973,4.5187,4.2941,4.2898,4.1789,4.0442,4.1748,4.2059,4.1799,4.1561,0.0,0.0,0.0,0.0,0.0,0.0,0.0,0.0,0.0,0.0,0.0,0.0,0.0,0.0,0.0,0.0,0.0,0.0,0.0,0.0,0.0,0.0,0.0,0.0,5.3813,5.6027,5.873,5.862,5.8472,5.9046,5.9861,6.0687,6.1516,6.2217,6.2945,6.3779,6.4463,6.5014,6.5439,6.6201,0.0,0.0,0.0,6.5934,6.3991,6.6582,6.8079,6.8463,6.8394,6.8704,6.9315,6.9315,6.8561,6.7438,6.9867,6.9785,6.8104,7.0587,7.1224,7.0419,6.8147,6.7269,6.7225,6.6979,6.7049,6.7225,0.0,0.0,0.0,0.0,0.0,0.0,0.0,0.0,0.0,3.1616,3.4565,3.709,3.8633,4.0231,4.1249,4.1392,4.054,3.9984,0.0,0.0,4.1696,4.5412,4.6721,4.7691,4.833,4.8657,4.8716,4.8522,4.845,4.8471,4.8594,4.8594,4.8594,4.8594,4.8594,4.8594,4.8594,4.8471,4.8409,4.8348,4.7681,4.6449,4.5082,4.5661,4.5296,4.4708,4.6133,4.6769,4.678,4.6045,4.5672,4.5456,4.5319,0.0,0.0,0.0,0.0,0.0,0.0,0.0,0.0,0.0,0.0,0.0,0.0,0.0,0.0,0.0,0.0,0.0,0.0,0.0,0.0,5.4314,5.7607,5.9931,5.9896,6.054,6.0736,5.9969,6.1098,6.2377,6.3433,6.3685,6.4222,6.5289,6.5513,6.5865,6.6534,6.5051,6.4175,6.4183,6.5331,6.6065,6.6261,6.8606,7.0124,7.0812,7.0191,0.0,7.0078,7.0078,6.993,6.9688,7.0193,7.0376,7.0366,7.0906,7.128,7.1297,6.9595,6.8928,6.8718,6.6821,6.7313,6.8682,0.0,0.0,0.0,0.0,0.0,0.0,0.0,0.0,0.0,0.0,3.3101,3.5585,3.7556,3.8467,3.9145,3.9696,3.91,0.0,0.0,4.2508,4.3691,4.6126,4.7642,4.828,4.7951,4.8852,4.9075,4.8594,4.8594,4.8594,4.8594,4.8594,4.8594,4.8594,4.8594,4.8594,4.8594,4.8594,4.8594,4.8553,4.8224,4.7496,4.6619,4.6687,4.6495,4.6355,4.7504,4.8102,4.8326,4.8154,4.8097,4.809,4.7947,4.7215,4.5958,0.0,0.0,0.0,0.0,0.0,0.0,0.0,0.0,0.0,0.0,0.0,0.0,0.0,0.0,4.9203,5.0397,0.0,5.4336,5.6505,5.8526,6.0317,6.1622,6.2291,6.2526,6.2141,6.2588,6.3473,6.4826,6.4946,6.5356,6.6271,6.5887,6.5832,6.6409,6.5904,6.5055,6.3897,6.6546,6.7183,6.5522,6.7953,6.9014,6.8629,6.8839,6.9092,6.9452,7.0008,7.045,7.0826,7.1071,7.1394,7.1813,7.1872,7.1909,7.1849,7.0915,7.0288,6.9771,6.8235,6.8376,6.9218,0.0,0.0,0.0,0.0,0.0,0.0,0.0,0.0,0.0,0.0,3.1738,3.3957,3.5958,3.6361,3.6736,0.0,0.0,0.0,0.0,4.4033,4.5139,4.6443,4.8196,4.8651,4.7516,4.8918,4.9289,4.8594,4.8594,4.8594,4.8594,4.8594,4.8594,4.8594,4.8594,4.8594,4.8594,4.8594,4.8594,4.8594,4.8594,4.8286,4.7742,4.71,4.6878,4.7033,4.8134,4.8712,4.9054,4.9789,5.0244,5.0453,5.0271,5.0674,5.0539,4.6983,4.7761,0.0,0.0,0.0,0.0,0.0,0.0,0.0,0.0,0.0,4.9736,4.9603,5.1025,5.2446,5.2901,5.4459,5.649,5.8996,5.9586,6.0643,6.3252,6.3558,6.3714,6.417,6.3899,6.4233,6.5738,6.5549,6.5665,6.6536,6.5769,6.5428,6.5747,6.6766,6.6178,6.3694,6.7557,6.8039,6.4681,6.6939,6.7471,6.625,6.7171,6.7914,6.8522,6.9417,7.022,7.103,7.17,7.2167,7.2504,7.2673,7.2574,7.2224,7.1831,7.1316,7.0737,7.0094,6.985,6.985,0.0,0.0,0.0,0.0,0.0,0.0,0.0,0.0,0.0,0.0,0.0,0.0,0.0,0.0,0.0,0.0,0.0,0.0,3.9978,4.2483,4.4468,4.5764,4.7419,4.7842,4.6741,4.8059,4.8697,4.8594,4.8594,4.8594,4.8594,4.8594,4.8594,4.8594,4.8594,4.8594,4.8594,4.8594,4.8594,4.8594,4.8594,4.8563,4.8419,4.7741,4.7547,4.7879,4.9984,5.0783,5.103,5.2522,5.3126,5.3203,5.2825,5.2763,5.2276,4.9504,0.0,4.81,4.4339,4.2993,4.3156,4.5364,4.7365,4.907,0.0,0.0,5.6112,5.478,5.6405,5.8679,6.0731,6.0774,6.1074,6.276,6.386,6.4414,6.4073,6.3816,6.3929,6.4631,6.4403,6.4744,6.6119,6.4638,6.4101,6.537,6.5112,6.4899,6.4929,6.5623,6.5835,6.5521,6.6716,6.7163,6.6692,6.7602,6.8019,6.7845,6.7969,6.8096,6.8161,6.8285,6.8894,6.9971,7.1389,7.2018,7.2105,7.248,7.2589,7.2503,7.1774,7.1719,7.1947,7.1584,7.1437,7.1437,0.0,0.0,0.0,0.0,0.0,0.0,0.0,0.0,0.0,0.0,0.0,0.0,0.0,0.0,0.0,0.0,0.0,0.0,3.9525,4.2011,4.3908,4.5074,4.6137,4.6667,4.6582,4.7517,4.8224,4.8594,4.8594,4.8594,4.8594,4.8594,4.8594,4.8594,4.8594,4.8594,4.8594,4.8594,4.8594,4.8594,4.8594,4.8594,4.8553,4.8286,4.8182,4.8186,4.7986,4.8187,0.0,0.0,5.0204,5.0371,5.1601,5.1526,5.0739,4.9647,4.8513,0.0,4.6233,4.6661,4.7775,4.9382,5.1822,5.4002,5.4508,5.6504,5.8218,5.8102,5.9295,6.0569,6.1265,6.1879,6.2448,6.3091,6.3117,6.3304,6.4038,6.3575,6.3383,6.4128,6.2886,6.2277,6.3027,6.3764,6.3909,6.3313,6.4034,6.4502,6.4502,6.5229,6.5624,6.5624,6.732,6.7912,6.7303,6.7973,6.8039,6.7427,6.8039,6.8324,6.835,6.8988,6.9493,7.0008,7.1617,7.214,7.2,7.3358,7.3764,7.3512,7.3497,7.3787,7.3926,7.2026,7.1482,7.1718,0.0,0.0,0.0,0.0,0.0,0.0,0.0,0.0,0.0,0.0,0.0,0.0,0.0,0.0,0.0,0.0,0.0,0.0,0.0,4.1413,4.3112,4.4324,4.4986,4.5628,4.6305,4.7157,4.7824,4.8317,4.8501,4.8594,4.8594,4.8594,4.8594,4.8594,4.8594,4.8594,4.8594,4.8594,4.8594,4.8594,4.8594,4.8594,4.8594,4.8594,4.8491,4.8161,4.6694,4.6424,0.0,0.0,4.7601,4.8181,4.9426,4.9611,4.9274,4.8871,4.7341,4.6083,4.718,4.8945,0.0,5.2544,5.4938,5.7104,5.7802,5.8633,5.9472,6.0277,6.1149,6.1805,6.1944,6.2552,6.3114,6.327,6.2754,6.2716,6.3793,6.3176,6.264,6.2828,6.1086,5.9594,5.8897,6.1625,6.3168,6.2547,6.3538,6.416,6.416,6.5072,6.5601,6.5601,6.7504,6.8121,6.7349,6.7837,6.7689,6.6919,6.7703,6.8043,6.8116,6.9178,6.9662,6.9741,7.1185,7.1831,7.1913,7.3432,7.4014,7.4026,7.4373,7.4869,7.5153,7.2896,7.241,7.284,0.0,0.0,0.0,0.0,0.0,0.0,0.0,0.0,0.0,0.0,0.0,0.0,0.0,0.0,0.0,0.0,0.0,0.0,0.0,4.0332,4.1973,4.3545,4.4263,4.4929,4.5638,4.6911,4.7609,4.7619,4.8286,4.8594,4.8594,4.8594,4.8594,4.8594,4.8594,4.8594,4.8594,4.8594,4.8594,4.8594,4.8594,4.8594,4.8594,4.8594,4.8255,4.7716,4.7664,0.0,0.0,0.0,4.7184,4.8666,4.6893,4.7712,0.0,4.7368,4.5315,4.4044,4.6016,4.7393,4.9123,5.2679,5.4776,5.6482,5.8507,5.984,6.0748,6.1192,6.2174,6.3388,6.4902,6.4253,6.367,6.4153,6.4508,6.4394,6.3459,6.2735,6.1831,6.0551,5.9493,5.7543,5.4225,5.7567,6.1147,6.4019,6.396,6.3807,6.3807,6.5145,6.5884,6.5884,6.659,6.696,6.6931,6.6931,6.6933,6.6905,6.6933,6.6962,6.696,6.8043,6.8563,6.8599,6.9701,7.0797,7.1791,7.1864,7.2539,7.3511,7.3534,7.4116,7.491,7.4807,7.519,7.5738,0.0,0.0,0.0,0.0,0.0,0.0,0.0,0.0,0.0,0.0,0.0,0.0,0.0,0.0,0.0,0.0,3.3639,3.4956,0.0,3.8619,4.0402,4.1233,4.3006,4.4468,4.5576,4.6028,4.6696,4.7609,4.7824,4.8163,4.8594,4.8594,4.8594,4.8594,4.8594,4.8594,4.8594,4.8594,4.8594,4.8594,4.8594,4.8594,4.8481,4.7573,4.6787,4.5931,0.0,0.0,0.0,4.2831,4.3132,4.3951,4.4751,4.4966,4.4564,4.2754,4.4271,4.6532,4.6572,4.9132,5.2354,5.4676,5.6973,5.9025,6.0234,6.1405,6.2474,6.3357,6.2059,6.0979,6.177,6.0522,5.9798,6.1092,6.006,5.9925,6.2292,5.99,5.8762,6.1036,5.9432,5.8744,6.0245,6.0442,6.0332,5.9998,6.3211,6.5182,6.5182,6.6074,6.6566,6.6566,6.7213,6.7568,6.7568,6.7997,6.8212,6.8212,6.8674,6.9135,6.9566,6.9934,7.0093,7.0151,7.128,7.199,7.2403,7.3174,7.375,7.4168,7.497,7.5661,7.6308,7.6945,7.6971,7.6711,0.0,0.0,0.0,0.0,0.0,0.0,0.0,0.0,0.0,0.0,0.0,0.0,0.0,0.0,0.0,0.0,0.0,3.441,0.0,0.0,3.8359,3.9101,4.0363,4.1573,4.2672,4.3658,4.4704,4.5824,4.6788,4.7588,4.8224,4.8224,4.8224,4.8255,4.8501,4.8594,4.8594,4.8594,4.8594,4.8532,4.7835,4.7658,4.763,4.5756,4.4554,0.0,0.0,0.0,0.0,4.0047,4.0288,4.0948,4.1794,4.1873,4.1735,4.2299,4.5041,4.8008,4.861,5.199,5.5643,5.7022,5.9056,6.0917,6.1714,6.2257,6.294,6.4236,6.2753,6.1024,6.0476,5.9245,5.8529,5.9135,5.816,5.8429,6.1671,5.988,5.9039,6.1194,5.9914,5.9791,6.2135,6.1858,6.0978,5.9698,6.3041,6.5151,6.5151,6.5797,6.6505,6.7243,6.8136,6.8598,6.8598,6.9289,6.9612,6.9628,7.0059,7.049,7.089,7.089,7.0521,6.9904,7.1354,7.1813,7.1639,7.3135,7.4001,7.447,7.5229,7.5845,7.6338,7.694,7.6948,7.6676,0.0,0.0,0.0,0.0,0.0,0.0,0.0,0.0,0.0,0.0,0.0,0.0,0.0,0.0,0.0,0.0,0.0,0.0,0.0,0.0,0.0,3.7174,3.6746,3.6823,3.7554,4.0108,4.1762,4.2377,4.5003,4.6603,4.724,4.7311,4.7332,4.7363,4.8009,4.8286,4.8286,4.8286,4.8286,4.8071,4.6181,4.5763,4.5932,4.3289,0.0,0.0,0.0,0.0,0.0,3.7823,3.8919,4.0007,3.8688,3.9101,4.0995,4.5733,4.7395,4.8496,5.1926,5.5588,5.866,5.9549,6.0779,6.1971,6.2794,6.2416,6.2273,6.3538,6.3695,6.2869,0.0,5.9703,5.9074,5.8087,5.848,5.9548,6.1399,6.2166,6.2104,6.0948,0.0,0.0,0.0,6.1889,6.3027,6.2935,6.3598,6.3998,6.3998,6.4751,6.6027,6.7937,6.9289,6.9936,6.9936,7.0582,7.0921,7.0952,7.0952,7.0982,7.1013,7.1013,6.9967,6.829,7.0167,7.0554,6.9929,7.1815,7.3295,7.4338,7.4407,7.4699,7.5089,7.5143,7.543,7.5871,0.0,0.0,0.0,0.0,0.0,0.0,0.0,0.0,0.0,0.0,0.0,0.0,0.0,0.0,0.0,0.0,0.0,0.0,3.3317,0.0,0.0,0.0,0.0,0.0,0.0,0.0,0.0,3.9546,4.123,4.2144,4.2328,4.3393,4.3854,4.3885,4.4039,4.4131,4.4131,4.4131,4.3854,4.3377,0.0,4.2977,4.2496,0.0,0.0,0.0,0.0,0.0,0.0,0.0,3.9482,4.2054,4.3315,4.4403,4.5473,4.6774,4.9562,5.2554,5.4312,5.6986,5.9689,6.1291,6.1556,6.1628,6.2391,6.3049,6.2755,6.0179,5.8115,5.5789,5.2382,5.0061,4.9865,5.3565,5.3878,5.5024,5.8997,5.9267,5.9514,6.0671,0.0,6.2812,6.421,6.5705,6.5982,6.4487,6.592,6.686,6.686,6.7997,6.8858,6.9382,7.0213,7.0644,7.0644,7.0828,7.1167,7.1706,7.1706,7.1983,7.2475,7.2475,7.2183,7.1721,7.226,7.2351,7.2176,7.2703,7.3072,7.345,7.4353,7.4788,7.5002,7.5898,7.5884,7.546,0.0,0.0,0.0,0.0,0.0,0.0,0.0,0.0,0.0,0.0,0.0,0.0,0.0,0.0,0.0,0.0,0.0,0.0,0.0,0.0,0.0,0.0,0.0,0.0,0.0,0.0,0.0,0.0,0.0,0.0,4.0513,4.1014,4.123,4.1261,4.1537,4.1691,4.1691,4.1691,0.0,0.0,0.0,0.0,0.0,0.0,0.0,0.0,0.0,0.0,0.0,0.0,0.0,4.349,4.652,4.8003,4.8985,5.1047,5.362,5.6103,5.7421,5.9152,6.0807,6.1858,6.197,6.1607,6.0852,6.1039,6.043,5.7054,5.4862,5.2509,4.9036,4.7181,4.7529,5.1642,5.2951,5.481,5.8682,5.9945,6.0732,0.0,6.2596,0.0,6.6536,6.7445,6.7551,6.6718,6.6874,6.7151,6.7459,6.8167,6.9135,7.0305,7.1028,7.1521,7.1813,7.1813,7.2044,7.2445,7.2445,7.2629,7.2999,7.2999,7.2506,7.1706,7.2598,7.2475,7.1706,7.2629,7.2999,7.3092,7.3905,7.4221,7.4312,7.5127,7.5112,7.4685,0.0,0.0,0.0,0.0,0.0,0.0,0.0,0.0,0.0,0.0,0.0,0.0,0.0,0.0,0.0,0.0,0.0,0.0,0.0,0.0,0.0,0.0,0.0,0.0,0.0,3.3813,0.0,0.0,0.0,0.0,0.0,0.0,0.0,0.0,0.0,0.0,0.0,0.0,0.0,0.0,0.0,0.0,0.0,0.0,0.0,0.0,0.0,0.0,0.0,0.0,4.5636,4.5022,4.9081,5.0959,5.2341,5.5974,5.7858,5.9057,6.036,6.1201,6.1782,6.2043,6.2318,6.1956,5.9734,5.8631,5.7261,5.4447,5.2657,5.0803,4.815,4.764,4.8538,5.1267,5.3864,5.6306,5.8423,6.1427,6.3106,6.235,6.312,6.4768,6.7629,6.766,6.7921,6.8965,6.7412,6.6673,6.7274,6.749,6.869,7.1105,7.1798,7.2414,7.2999,7.2999,7.2999,7.2999,7.2999,7.306,7.3122,7.3122,7.2198,7.0675,7.2475,7.226,7.072,7.2583,7.3338,7.3385,7.3695,7.3819,7.3865,7.4079,7.4216,7.4247,0.0,0.0,0.0,0.0,0.0,0.0,0.0,0.0,0.0,0.0,2.6818,2.7473,0.0,0.0,0.0,0.0,0.0,0.0,0.0,0.0,0.0,0.0,0.0,0.0,3.14,3.2427,3.3005,3.3128,3.4613,0.0,0.0,0.0,0.0,0.0,0.0,0.0,0.0,0.0,0.0,0.0,0.0,0.0,0.0,0.0,0.0,0.0,0.0,0.0,0.0,0.0,4.7408,4.8315,5.2104,5.5226,5.7293,5.6083,5.8144,6.0808,6.0791,6.1087,6.1745,6.3314,6.3513,6.3268,6.3162,6.0891,0.0,5.3598,4.9325,4.6245,4.5991,4.5542,4.6632,5.0995,5.3505,5.446,5.3283,5.7839,6.0855,0.0,6.1563,6.4275,6.7568,6.6382,6.6611,6.952,6.9382,6.9259,6.9382,7.0474,7.1582,7.2598,7.2752,7.2876,7.2999,7.2999,7.2999,7.2999,7.2999,7.3276,7.383,7.383,7.3937,7.4153,7.4491,7.4461,7.4169,7.4808,7.5058,7.5089,7.5434,7.5558,7.5574,7.5621,7.5807,7.6038,0.0,0.0,0.0,0.0,0.0,0.0,0.0,2.6147,2.6114,2.5056,2.5454,2.6113,2.6793,2.7222,2.7624,0.0,0.0,0.0,0.0,0.0,0.0,0.0,0.0,0.0,3.1902,3.2247,3.2567,3.2906,0.0,3.3936,3.3997,3.4606,3.4914,3.5005,3.5641,3.5764,0.0,0.0,0.0,0.0,0.0,0.0,0.0,0.0,0.0,0.0,0.0,0.0,0.0,0.0,4.4905,4.6667,5.2544,5.6736,5.8781,5.5394,5.8086,6.1779,6.0013,6.0536,6.1987,6.3686,6.3779,6.2682,5.9597,0.0,0.0,4.8442,4.4469,4.2124,4.2253,4.1798,4.3565,5.0112,5.2872,5.4718,5.6238,5.987,6.2135,6.1471,6.2887,6.4658,6.6659,6.5996,6.6242,6.8212,6.8659,6.9474,7.0905,7.1952,7.266,7.2999,7.2999,7.2999,7.2999,7.3337,7.3522,7.3522,7.3876,7.4214,7.4522,7.4522,7.4707,7.5015,7.5015,7.4494,7.3725,7.4996,7.4982,7.4283,7.5698,7.6275,7.6291,7.6445,7.6631,7.6753,0.0,0.0,0.0,0.0,0.0,0.0,0.0,2.5456,2.5396,2.4336,2.4326,2.483,2.6008,2.6597,2.7026,0.0,0.0,0.0,0.0,0.0,0.0,0.0,0.0,0.0,0.0,0.0,0.0,3.3741,3.3734,0.0,0.0,0.0,0.0,0.0,3.5349,3.5576,3.5286,3.5427,0.0,0.0,0.0,3.4685,0.0,0.0,0.0,0.0,0.0,0.0,0.0,0.0,4.1841,4.3485,5.0397,5.5262,5.7824,5.473,5.7949,6.203,5.9851,6.0704,6.2522,6.3891,6.4115,6.2503,5.6798,5.4537,5.1735,4.504,4.1336,3.957,4.052,4.0008,4.2027,4.9846,5.1825,5.4103,5.9008,6.1181,6.2627,6.3475,6.4228,6.5226,6.6611,6.6242,6.6488,6.7904,6.8598,6.9936,7.2121,7.2722,7.2999,7.2999,7.3153,7.3214,7.3214,7.3892,7.4214,7.4214,7.4738,7.5076,7.5199,7.5199,7.5324,7.5527,7.5527,7.4467,7.2919,7.5215,7.4982,7.348,7.6053,7.7071,7.7102,7.7333,7.7441,7.7441,0.0,0.0,0.0,0.0,0.0,0.0,0.0,2.4181,2.3989,2.3615,2.4012,2.4547,2.523,2.5359,2.5636,0.0,0.0,0.0,0.0,0.0,0.0,0.0,0.0,0.0,0.0,0.0,0.0,3.4845,3.4851,0.0,0.0,0.0,0.0,0.0,0.0,3.6153,3.5017,3.6033,0.0,0.0,0.0,0.0,0.0,0.0,0.0,0.0,0.0,3.6329,3.5916,0.0,0.0,4.0623,4.4145,4.9118,5.3815,5.4607,5.7741,6.1072,6.1843,6.271,6.3634,6.4454,6.5115,6.4606,6.0869,0.0,5.293,4.892,4.3173,4.0141,4.4423,4.3783,4.4787,5.1438,5.0071,5.0051,5.5407,5.6909,5.8818,6.2473,6.3475,6.5397,6.9166,6.7319,6.7473,7.1244,7.2137,7.2629,7.2906,7.2968,7.2999,7.2999,7.3584,7.3907,7.3907,7.4584,7.4922,7.4922,7.4984,7.5323,7.5891,7.5891,7.6408,7.7256,7.7256,7.5944,7.4,7.7074,7.6712,7.4578,7.7651,7.8848,7.8864,7.8895,7.8895,7.8895,0.0,0.0,0.0,0.0,0.0,0.0,2.3828,2.3881,2.3746,2.2833,2.3398,2.3864,2.3755,2.4222,2.5188,2.6787,0.0,0.0,0.0,0.0,0.0,0.0,0.0,0.0,0.0,0.0,3.3675,3.3802,3.4199,0.0,0.0,0.0,0.0,0.0,0.0,3.602,3.5929,3.5855,0.0,0.0,0.0,0.0,0.0,0.0,0.0,0.0,0.0,0.0,3.4845,3.6817,3.726,0.0,3.9543,4.2497,0.0,0.0,5.3985,5.8864,5.8383,6.0676,6.3491,6.4454,6.4928,6.3623,5.7869,0.0,5.1936,4.5908,4.1903,4.0053,4.1819,4.0899,4.174,4.7494,4.6952,4.8553,5.6465,5.8159,6.0252,6.4751,6.5845,6.6751,6.7982,6.712,6.7504,6.9951,7.0382,7.1244,7.2906,7.2999,7.3183,7.3584,7.3845,7.4184,7.4584,7.5261,7.56,7.5614,7.6014,7.6436,7.6877,7.6877,7.7243,7.7861,7.7861,7.5745,7.2674,7.6869,7.6332,7.3254,7.7459,7.9085,7.9085,7.9085,7.9085,7.9085,0.0,0.0,0.0,0.0,0.0,2.4917,2.3656,2.3683,2.3529,2.2687,2.2946,2.3204,2.3196,2.3909,2.5115,2.6918,2.7041,0.0,0.0,0.0,0.0,0.0,0.0,0.0,0.0,0.0,3.3387,3.3204,3.3833,3.4288,0.0,0.0,3.5078,3.5182,0.0,0.0,0.0,0.0,0.0,0.0,0.0,0.0,0.0,0.0,0.0,0.0,0.0,0.0,0.0,0.0,0.0,0.0,0.0,0.0,0.0,0.0,5.0844,5.6333,5.623,5.9599,6.3432,6.4453,6.4017,6.1641,5.5183,0.0,4.992,4.3236,4.0743,3.9745,3.9803,3.8574,3.9322,4.4714,4.5207,4.7732,5.585,5.7913,6.0209,6.4566,6.6043,6.7045,6.7982,6.8458,6.9105,7.0043,7.0105,7.1059,7.3183,7.3307,7.3522,7.3984,7.4368,7.483,7.5292,7.5953,7.634,7.6454,7.69,7.6894,7.6441,7.7311,7.7441,7.7057,7.7886,7.6024,7.2698,7.6992,7.6359,7.3144,7.7442,7.9085,7.9085,7.9085,7.9085,7.9085,0.0,0.0,0.0,0.0,0.0,0.0,2.4122,2.3494,2.3135,2.3447,2.2748,2.2725,2.4037,2.4715,2.5413,2.6239,2.6199,0.0,0.0,0.0,0.0,0.0,0.0,0.0,0.0,0.0,0.0,3.3695,3.4232,3.4242,3.3759,3.4812,3.4624,3.3487,0.0,0.0,0.0,0.0,0.0,0.0,0.0,0.0,0.0,0.0,0.0,0.0,0.0,0.0,0.0,0.0,0.0,0.0,0.0,3.5232,3.7765,0.0,4.9301,5.3741,5.6909,6.0633,6.3758,6.4513,6.2416,5.8948,5.4258,5.0626,4.6999,4.2525,4.0257,3.9328,3.9989,3.8404,3.8898,4.4669,4.5597,4.726,5.2102,5.4483,5.702,6.0455,6.2627,6.5705,7.0398,7.2137,7.2937,7.2968,7.2968,7.3276,7.3937,7.3984,7.3984,7.3999,7.5292,7.5984,7.5984,7.6661,7.7179,7.7491,7.7491,7.6255,7.4031,7.6837,7.6761,7.4578,7.7387,7.7164,7.5087,7.7915,7.741,7.515,7.7979,7.9085,7.9085,7.9085,7.9085,7.9085,0.0,0.0,0.0,0.0,0.0,0.0,0.0,2.4015,2.3717,2.3469,2.3694,2.375,2.3301,2.4409,2.5233,2.5461,2.6384,0.0,0.0,0.0,0.0,0.0,0.0,0.0,0.0,0.0,0.0,0.0,0.0,3.4567,3.4119,3.4505,3.4466,3.3979,3.3095,3.3006,0.0,0.0,0.0,0.0,0.0,0.0,3.6154,0.0,0.0,0.0,0.0,0.0,0.0,0.0,0.0,0.0,0.0,0.0,0.0,3.84,4.2916,4.7258,4.9847,5.2685,5.5234,5.6533,5.5683,5.3499,4.935,4.7602,4.5678,4.1669,4.0689,4.0576,4.0756,3.9362,3.9939,4.5398,4.5505,4.7701,5.5757,5.822,6.0609,6.4504,6.7151,6.9244,7.0767,7.0474,7.0967,7.2845,7.1244,7.1305,7.3845,7.4667,7.5146,7.5353,7.5784,7.6313,7.7019,7.7235,7.7538,7.7909,7.7909,7.6635,7.4333,7.7168,7.7088,7.4906,7.7713,7.7396,7.5133,7.7931,7.7442,7.5182,7.7979,7.9085,7.9085,7.9085,7.9085,7.9085,0.0,0.0,0.0,0.0,0.0,0.0,0.0,2.4247,2.4006,2.348,2.3867,2.3848,2.2913,2.4222,2.5178,2.5117,2.6521,0.0,0.0,0.0,0.0,0.0,0.0,0.0,0.0,0.0,0.0,0.0,0.0,0.0,0.0,0.0,3.4212,3.3811,3.2742,3.2445,0.0,0.0,0.0,0.0,0.0,0.0,3.5461,0.0,0.0,0.0,0.0,0.0,0.0,0.0,0.0,0.0,0.0,0.0,0.0,0.0,3.7978,4.1329,4.4567,4.7653,5.0271,5.1547,5.0634,4.8683,4.5946,4.4682,4.3284,4.0591,4.1618,4.2483,4.0787,4.0486,4.1191,4.3375,4.553,4.8614,5.351,5.7143,6.0622,6.418,6.7644,7.0259,7.1567,7.0936,7.1151,7.2876,7.1398,7.1628,7.4404,7.5181,7.5894,7.6758,7.6805,7.7088,7.7732,7.7732,7.7925,7.8309,7.8309,7.6995,7.4679,7.7495,7.7367,7.5055,7.7884,7.8105,0.0,7.8389,7.8073,7.6667,7.8437,7.9085,7.9085,7.9085,7.9085,7.9085,0.0,0.0,0.0,0.0,0.0,0.0,0.0,2.4184,2.4006,2.348,2.3415,2.3242,2.2834,2.418,2.5101,2.5075,0.0,0.0,0.0,0.0,0.0,0.0,0.0,0.0,0.0,0.0,0.0,3.1735,3.159,3.2276,3.3705,0.0,0.0,3.3139,3.3276,3.2835,0.0,0.0,0.0,0.0,0.0,0.0,0.0,0.0,0.0,0.0,0.0,0.0,0.0,0.0,0.0,0.0,0.0,0.0,0.0,0.0,0.0,0.0,0.0,4.4684,4.7796,4.8718,4.6771,4.4413,0.0,0.0,0.0,3.9879,4.315,4.4857,4.0802,4.2206,4.3031,4.0058,4.5872,4.9959,4.765,5.309,5.8202,6.064,6.5182,6.9305,7.2414,7.2907,7.303,7.303,7.3061,7.3833,7.5462,7.5571,7.6381,7.8071,7.8165,7.8165,7.8149,7.8149,7.82,7.8345,7.8533,7.7243,7.4722,7.7741,7.7568,7.5055,7.7884,7.9085,7.9085,7.9085,7.9085,7.9085,7.9085,7.9085,7.9085,7.9085,7.9085,7.9085,0.0,0.0,0.0,0.0,0.0,0.0,0.0,0.0,0.0,0.0,2.3415,2.323,2.2766,2.3665,2.4479,0.0,0.0,0.0,0.0,0.0,0.0,0.0,0.0,0.0,0.0,0.0,0.0,3.0947,3.2024,3.2946,3.371,3.3869,0.0,0.0,0.0,0.0,0.0,0.0,0.0,0.0,0.0,0.0,0.0,0.0,0.0,0.0,3.2494,3.2115,0.0,0.0,0.0,0.0,0.0,0.0,0.0,0.0,3.3337,3.3784,3.5048,0.0,3.9866,4.1366,4.0721,3.9703,0.0,0.0,0.0,0.0,0.0,4.725,4.5872,4.7894,4.8761,4.5678,4.8728,5.2155,5.4149,5.8885,6.2196,6.2319,6.6966,7.012,6.9889,7.1996,7.337,7.337,7.385,7.4656,7.5823,7.6384,7.7213,7.8422,7.8738,7.8738,7.8469,7.8469,7.7559,7.5803,7.7933,7.6433,7.1941,7.6856,7.7568,7.5055,7.7884,7.9085,7.9085,7.9085,7.9085,7.9085,7.9085,7.9085,7.9085,7.9085,7.9085,7.9085,0.0,0.0,0.0,0.0,0.0,0.0,0.0,0.0,0.0,0.0,0.0,0.0,0.0,0.0,0.0,0.0,0.0,0.0,0.0,0.0,0.0,0.0,0.0,0.0,0.0,0.0,0.0,0.0,0.0,3.2571,0.0,0.0,0.0,0.0,0.0,0.0,0.0,0.0,0.0,0.0,3.5357,0.0,0.0,0.0,0.0,0.0,3.1938,3.1832,0.0,3.1893,3.2399,3.2954,0.0,0.0,0.0,0.0,3.3145,3.3573,3.4126,3.4958,3.6551,4.0011,3.9247,0.0,0.0,0.0,0.0,0.0,0.0,0.0,4.7792,4.892,4.934,4.761,4.8985,5.2021,5.7001,6.0424,6.2627,6.3181,6.5859,6.8074,6.9243,7.1871,7.3509,7.3509,7.4268,7.5185,7.6166,7.6854,7.7716,7.8801,7.9006,7.9006,7.8833,7.8833,7.7508,7.4929,7.7757,7.6856,7.2826,7.7141,7.8263,7.6856,7.7078,7.7931,7.899,7.771,7.7915,7.9085,7.9085,7.9085,7.9085,7.9085,7.9085,7.9085,0.0,0.0,0.0,0.0,0.0,0.0,0.0,0.0,0.0,0.0,0.0,0.0,0.0,0.0,0.0,0.0,0.0,0.0,0.0,0.0,0.0,0.0,0.0,0.0,0.0,0.0,0.0,0.0,0.0,0.0,0.0,0.0,3.3889,0.0,0.0,0.0,0.0,0.0,0.0,0.0,3.5116,0.0,0.0,0.0,0.0,0.0,0.0,0.0,0.0,3.1782,3.2332,3.2907,3.2029,0.0,0.0,0.0,0.0,0.0,3.5253,3.5113,3.6058,4.1584,3.9959,0.0,0.0,0.0,0.0,0.0,0.0,0.0,0.0,5.0036,5.0209,4.8035,4.8995,5.2021,5.782,6.0252,6.2025,6.3598,6.4429,6.6197,6.9566,7.2133,7.3555,7.3555,7.4608,7.5634,7.6522,7.7261,7.8109,7.9069,7.9085,7.9085,7.9085,7.9085,7.771,7.4929,7.7757,7.7646,7.5007,7.7836,7.9085,7.8958,7.6572,7.6888,7.8895,7.654,7.6951,7.9085,7.9085,7.9085,7.9085,7.9085,7.9085,7.9085,0.0,0.0,0.0,0.0,0.0,0.0,0.0,0.0,0.0,0.0,0.0,0.0,0.0,0.0,0.0,0.0,0.0,0.0,0.0,0.0,0.0,0.0,0.0,0.0,0.0,0.0,0.0,0.0,0.0,0.0,3.2184,3.28,3.3441,0.0,0.0,0.0,0.0,0.0,0.0,0.0,3.4771,0.0,0.0,0.0,0.0,0.0,0.0,0.0,0.0,3.1237,3.1877,3.2714,3.1441,0.0,0.0,0.0,0.0,0.0,3.5342,3.5874,3.7543,4.2507,4.0351,0.0,0.0,0.0,0.0,0.0,0.0,0.0,0.0,5.9727,6.1404,4.9884,5.2739,5.6755,5.7802,6.1607,6.4149,6.3845,6.7367,6.9843,6.9874,7.2268,7.386,7.386,7.5352,7.6475,7.6907,7.7889,7.8644,7.9085,7.9085,7.9085,7.9085,7.9085,7.771,7.4929,7.7757,7.7646,7.5007,7.7836,7.9085,7.9085,7.8642,7.8705,7.9085,7.8642,7.8705,7.9085,7.9085,7.9085,7.9085,7.9085,7.9085,7.9085,0.0,0.0,0.0,0.0,0.0,0.0,0.0,0.0,0.0,0.0,0.0,0.0,0.0,0.0,0.0,0.0,0.0,0.0,0.0,0.0,0.0,0.0,0.0,0.0,0.0,0.0,0.0,0.0,0.0,3.0735,3.1804,3.2559,3.3322,3.4056,0.0,0.0,0.0,0.0,0.0,0.0,0.0,0.0,0.0,0.0,0.0,0.0,0.0,0.0,0.0,0.0,3.1597,3.2267,3.1242,0.0,0.0,0.0,0.0,0.0,3.5843,3.6068,3.7911,4.5733,0.0,0.0,0.0,0.0,0.0,0.0,0.0,0.0,0.0,5.7202,5.6999,5.3381,5.8677,6.2733,6.1255,6.3595,6.5582,6.5968,6.811,6.9709,7.0141,7.2615,7.4178,7.4178,7.5798,7.6845,7.6998,7.817,7.8943,7.9116,7.9085,7.9085,7.9085,7.9085,7.771,7.4929,7.7757,7.7646,7.5007,7.7836,7.9085,7.9021,7.7488,7.771,7.899,7.7457,7.7741,7.9085,7.9085,7.9085,7.9085,7.9085,7.9085,7.9085,0.0,0.0,0.0,0.0,0.0,0.0,0.0,0.0,0.0,0.0,0.0,0.0,0.0,0.0,0.0,0.0,0.0,0.0,0.0,0.0,0.0,0.0,0.0,0.0,0.0,0.0,2.9942,2.9485,2.9769,3.0464,3.1563,3.2283,3.2977,0.0,0.0,0.0,0.0,0.0,0.0,0.0,0.0,0.0,0.0,0.0,0.0,0.0,0.0,0.0,0.0,0.0,0.0,0.0,0.0,0.0,0.0,3.4091,3.4328,3.4915,3.6249,3.6336,3.821,0.0,0.0,0.0,0.0,0.0,0.0,0.0,0.0,0.0,5.6839,5.4439,5.2734,5.7244,6.2887,6.6245,6.4952,6.5951,6.7274,6.8474,6.9058,6.9819,7.1014,7.309,7.4404,7.4404,7.6011,7.6998,7.6998,7.8342,7.9085,7.9085,7.9085,7.9085,7.9085,7.9085,7.8026,7.5908,7.8073,7.7979,7.5972,7.8121,7.9085,7.899,7.6825,7.7109,7.8927,7.6762,7.7141,7.9085,7.9085,7.9085,7.9085,7.9085,7.9085,7.9085,0.0,0.0,0.0,0.0,0.0,0.0,0.0,0.0,0.0,0.0,0.0,0.0,0.0,0.0,0.0,0.0,0.0,0.0,0.0,0.0,0.0,0.0,0.0,0.0,0.0,2.9252,2.8864,2.9485,2.8182,2.8665,3.0809,3.1528,3.1908,3.1942,0.0,0.0,0.0,0.0,0.0,0.0,0.0,0.0,0.0,0.0,0.0,0.0,0.0,0.0,0.0,0.0,0.0,0.0,0.0,0.0,3.4091,3.4091,3.5081,3.6185,3.6305,3.6957,3.8845,4.3957,0.0,0.0,0.0,0.0,0.0,0.0,0.0,0.0,0.0,5.8052,5.74,6.0868,6.2412,6.4228,6.7198,6.8751,6.9874,7.0613,7.1532,7.2409,7.3199,7.3965,7.4404,7.4404,7.6011,7.6998,7.6998,7.8342,7.9085,7.9085,7.9085,7.9085,7.9085,7.9085,7.899,7.88,7.899,7.899,7.88,7.9021,7.9085,7.9085,7.8895,7.8895,7.9085,7.8863,7.8927,7.9085,7.9085,7.9085,7.9085,7.9085,7.9085,7.9085,0.0,0.0,0.0,0.0,0.0,0.0,0.0,0.0,0.0,0.0,0.0,0.0,0.0,0.0,0.0,0.0,0.0,0.0,0.0,0.0,0.0,0.0,0.0,2.9868,3.0671,3.0119,2.973,2.9485,2.8933,2.9592,3.1391,3.1188,0.0,0.0,0.0,0.0,0.0,0.0,0.0,0.0,0.0,0.0,0.0,0.0,0.0,0.0,0.0,0.0,0.0,0.0,2.9876,3.0339,3.1205,3.2343,3.3524,3.4495,3.4845,3.5166,3.6165,3.6761,3.9046,4.7174,0.0,0.0,0.0,0.0,0.0,0.0,0.0,0.0,0.0,5.7206,5.9975,6.2073,6.4412,6.6566,6.8274,6.969,7.0688,7.1161,7.2468,7.3503,7.4012,7.4449,7.4719,7.4719,7.6132,7.6998,7.6998,7.8342,7.9085,7.9085,7.9085,7.9085,7.9085,7.9085,7.9085,7.9085,7.9085,7.9085,7.9085,7.9085,7.9085,7.9085,7.9085,7.9085,7.9085,7.9085,7.9085,7.9085,7.9085,7.9085,7.9085,7.9085,7.9085,7.9085,0.0,0.0,0.0,0.0,0.0,0.0,0.0,0.0,0.0,0.0,0.0,0.0,0.0,0.0,0.0,0.0,0.0,0.0,0.0,0.0,0.0,0.0,0.0,2.9761,3.0326,3.0321,2.9942,2.914,2.9381,3.0174,3.143,0.0,0.0,0.0,0.0,0.0,0.0,0.0,0.0,0.0,0.0,0.0,0.0,0.0,0.0,0.0,0.0,0.0,0.0,0.0,2.9815,3.0313,3.1495,3.2355,3.311,3.4145,3.4663,3.5088,3.6187,3.716,3.9862,0.0,0.0,0.0,0.0,0.0,0.0,0.0,5.9805,0.0,5.4632,5.8492,6.1981,6.2689,6.4921,6.7213,6.8965,7.0272,7.1209,7.1666,7.3098,7.4163,7.4374,7.4704,7.4912,7.4912,7.6208,7.6998,7.6998,7.8342,7.9085,7.9085,7.9085,7.9085,7.9085,7.9085,7.9085,7.9085,7.9085,7.9085,7.9085,7.9085,7.9085,7.9085,7.9085,7.9085,7.9085,7.9085,7.9085,7.9085,7.9085,7.9085,7.9085,7.9085,7.9085,7.9085,0.0,0.0,0.0,0.0,0.0,0.0,0.0,0.0,0.0,0.0,0.0,0.0,0.0,0.0,0.0,0.0,0.0,0.0,0.0,0.0,0.0,0.0,0.0,2.9485,2.9485,2.9485,2.914,2.842,2.914,2.9937,3.0705,3.0705,0.0,0.0,0.0,0.0,0.0,0.0,0.0,0.0,3.1804,3.1804,0.0,0.0,0.0,0.0,0.0,0.0,0.0,0.0,3.0145,3.0902,3.1586,3.2283,3.2899,3.2972,3.4639,3.6485,3.6554,3.839,4.1391,0.0,0.0,0.0,0.0,0.0,0.0,0.0,6.4961,6.6282,6.247,6.2891,6.3598,6.2922,6.3383,6.5274,6.932,7.0759,7.1635,7.2316,7.3606,7.4404,7.4404,7.4719,7.4912,7.4912,7.6208,7.6998,7.6998,7.8342,7.9085,7.9085,7.9085,7.9085,7.9085,7.9085,7.9085,7.9085,7.9085,7.9085,7.9085,7.9085,7.9085,7.9085,7.9085,7.9085,7.9085,7.9085,7.9085,7.9085,7.9085,7.9085,7.9085,7.9085,7.9085,7.9085,0.0,0.0,0.0,0.0,0.0,0.0,0.0,0.0,0.0,0.0,0.0,0.0,0.0,0.0,0.0,0.0,0.0,0.0,0.0,0.0,0.0,0.0,0.0,0.0,0.0,0.0,2.9144,3.0015,2.9661,3.0179,0.0,0.0,0.0,3.1908,0.0,0.0,0.0,0.0,0.0,0.0,3.2011,3.1494,0.0,0.0,0.0,0.0,0.0,0.0,0.0,0.0,0.0,0.0,3.164,3.1979,3.2987,3.7319,3.6806,3.5775,4.0089,4.0717,4.1174,4.5505,0.0,0.0,0.0,0.0,0.0,0.0,6.255,6.2463,5.9529,6.2825,6.5459,6.3752,6.5674,6.7966,6.9659,7.0759,7.1724,7.2648,7.3725,7.4494,7.4734,7.4853,7.4912,7.4912,7.6208,7.6998,7.6998,7.8342,7.9085,7.9085,7.9085,7.9085,7.9085,7.9085,7.9085,7.9085,7.9085,7.9085,7.9085,7.9085,7.9085,7.9085,7.9085,7.9085,7.9085,7.9085,7.9085,7.9085,7.9085,7.9085,7.9085,7.9085,7.9085,7.9085,0.0,0.0,0.0,0.0,0.0,0.0,0.0,0.0,0.0,0.0,0.0,0.0,0.0,0.0,0.0,0.0,0.0,0.0,0.0,0.0,0.0,0.0,0.0,0.0,0.0,2.883,2.9459,0.0,0.0,0.0,0.0,0.0,0.0,3.3253,0.0,3.5392,0.0,0.0,3.4707,3.2421,3.1972,3.1356,3.0675,0.0,0.0,0.0,0.0,0.0,0.0,0.0,0.0,0.0,3.1286,3.2843,3.4895,3.6848,3.785,3.9066,4.2542,4.3683,4.5163,5.0395,5.0948,5.0769,5.3009,0.0,0.0,6.234,6.3769,6.3564,6.2069,6.5042,6.7274,6.6012,6.7882,6.9684,7.0228,7.1386,7.2458,7.3218,7.4062,7.4689,7.4882,7.4912,7.5024,7.5323,7.6366,7.7125,7.7362,7.85,7.9085,7.9085,7.9085,7.9085,7.9085,7.9085,7.9085,7.9085,7.9085,7.9085,7.9085,7.9085,7.9085,7.9085,7.9085,7.9085,7.9085,7.9085,7.9085,7.9085,7.9085,7.9085,7.9085,7.9085,7.9085,7.9085,0.0,0.0,0.0,0.0,0.0,0.0,0.0,0.0,0.0,0.0,0.0,0.0,0.0,0.0,0.0,0.0,0.0,0.0,0.0,0.0,0.0,0.0,0.0,0.0,0.0,0.0,0.0,0.0,0.0,0.0,0.0,0.0,3.2977,3.5116,0.0,3.5018,0.0,3.4224,3.3293,3.1701,3.1627,3.1184,3.0494,2.9795,0.0,0.0,0.0,0.0,0.0,0.0,0.0,0.0,3.061,3.3953,3.7218,3.3734,3.8245,4.4395,4.449,4.6962,5.1004,5.7255,5.4914,5.2209,5.636,5.7161,5.8871,6.5343,6.6986,6.7386,6.773,6.8366,6.8842,6.8904,6.9754,7.0538,7.0873,7.2365,7.353,7.3918,7.4493,7.4912,7.4912,7.4912,7.5228,7.594,7.6619,7.7283,7.7947,7.8705,7.9085,7.9085,7.9085,7.9085,7.9085,7.9085,7.9085,7.9085,7.9085,7.9085,7.9085,7.9085,7.9085,7.9085,7.9085,7.9085,7.9085,7.9085,7.9085,7.9085,7.9085,7.9085,7.9085,7.9085,7.9085,7.9085,0.0,0.0,0.0,0.0,0.0,0.0,0.0,0.0,0.0,0.0,0.0,0.0,0.0,0.0,0.0,0.0,0.0,0.0,0.0,0.0,0.0,0.0,0.0,0.0,0.0,0.0,0.0,0.0,0.0,0.0,0.0,0.0,0.0,3.4466,0.0,3.6668,3.3283,3.5081,3.3943,3.0878,3.0243,2.9899,2.9726,2.9554,2.9485,0.0,0.0,0.0,0.0,0.0,0.0,0.0,3.0054,3.1057,3.3245,3.7067,3.999,4.3116,4.8467,4.8986,4.8396,5.0051,5.0107,5.2152,6.1384,6.1479,6.0945,6.566,6.5147,6.4532,6.6704,6.7674,6.829,6.8812,6.9754,7.0612,7.1219,7.25,7.3605,7.4205,7.4659,7.4912,7.4912,7.4912,7.5228,7.594,7.6619,7.7283,7.7947,7.8705,7.9085,7.9085,7.9085,7.9085,7.9085,7.9085,7.9085,7.9085,7.9085,7.9085,7.9085,7.9085,7.9085,7.9085,7.9085,7.9085,7.9085,7.9085,7.9085,7.9085,7.9085,7.9085,7.9085,7.9085,7.9085,7.9085,0.0,0.0,0.0,0.0,0.0,0.0,0.0,0.0,0.0,0.0,0.0,0.0,0.0,0.0,0.0,0.0,0.0,0.0,0.0,0.0,0.0,0.0,0.0,0.0,0.0,0.0,0.0,0.0,0.0,0.0,0.0,0.0,0.0,3.419,0.0,3.5288,3.2455,3.3633,3.2598,3.011,3.008,2.9834,2.9554,2.9937,3.0075,3.0114,3.0533,0.0,0.0,0.0,0.0,0.0,0.0,0.0,3.4293,3.5692,3.9064,4.3173,4.7209,4.9514,5.1402,5.414,5.5595,5.7546,6.2223,6.2782,6.3139,6.6053,6.566,6.5212,6.6628,6.7705,6.8547,6.9047,7.0237,7.1236,7.1594,7.3063,7.419,7.4388,7.4704,7.4912,7.4912,7.4912,7.5354,7.6398,7.6808,7.7441,7.8453,7.8895,7.9085,7.9085,7.9085,7.9085,7.9085,7.9085,7.9085,7.9085,7.9085,7.9085,7.9085,7.9085,7.9085,7.9085,7.9085,7.9085,7.9085,7.9085,7.9085,7.9085,7.9085,7.9085,7.9085,7.9085,7.9085,7.9085,0.0,0.0,0.0,0.0,0.0,0.0,0.0,0.0,0.0,0.0,0.0,0.0,0.0,0.0,0.0,0.0,0.0,0.0,0.0,0.0,0.0,0.0,0.0,0.0,0.0,0.0,0.0,0.0,0.0,0.0,0.0,0.0,0.0,3.5057,0.0,0.0,3.177,3.1528,3.0662,2.9554,3.008,3.0075,2.9795,0.0,0.0,0.0,3.0878,3.0817,3.0697,3.0603,0.0,0.0,0.0,0.0,3.5778,3.2992,3.7286,4.3204,4.4401,4.94,5.5512,6.051,6.2,6.2107,6.1706,6.2619,6.4135,6.6145,6.672,6.6936,6.7059,6.8132,6.908,6.9342,7.0841,7.198,7.1997,7.3659,7.4808,7.4524,7.4734,7.4912,7.4912,7.4912,7.5449,7.6714,7.6935,7.7567,7.8832,7.9021,7.9085,7.9085,7.9085,7.9085,7.9085,7.9085,7.9085,7.9085,7.9085,7.9085,7.9085,7.9085,7.9085,7.9085,7.9085,7.9085,7.9085,7.9085,7.9085,7.9085,7.9085,7.9085,7.9085,7.9085,7.9085,7.9085,0.0,0.0,0.0,0.0,0.0,0.0,0.0,0.0,0.0,0.0,0.0,0.0,0.0,0.0,0.0,0.0,0.0,0.0,0.0,0.0,0.0,0.0,0.0,0.0,0.0,0.0,0.0,0.0,0.0,0.0,0.0,0.0,0.0,0.0,0.0,0.0,0.0,3.0381,2.9692,2.945,2.8937,2.9455,0.0,0.0,0.0,0.0,0.0,3.1293,3.0681,2.9933,2.9634,0.0,0.0,0.0,3.1857,3.2562,3.6497,4.1231,4.4038,4.9494,5.5137,5.8331,5.7127,5.6711,6.2619,6.2009,6.1339,6.5215,6.6469,6.709,6.766,6.8615,6.9358,6.9402,7.1031,7.2318,7.2349,7.3806,7.4882,7.4838,7.4882,7.4912,7.4912,7.4912,7.5245,7.6081,7.6682,7.7346,7.8105,7.8737,7.9085,7.9085,7.9085,7.9085,7.9085,7.9085,7.9085,7.9085,7.9085,7.9085,7.9085,7.9085,7.9085,7.9085,7.9085,7.9085,7.9085,7.9085,7.9085,7.9085,7.9085,7.9085,7.9085,7.9085,7.9085,7.9085,0.0,0.0,0.0,0.0,0.0,0.0,0.0,0.0,0.0,0.0,0.0,0.0,0.0,0.0,0.0,2.9343,2.9683,2.9902,3.0058,3.0127,0.0,0.0,0.0,0.0,0.0,0.0,0.0,0.0,0.0,0.0,0.0,4.0463,3.9848,0.0,0.0,0.0,0.0,0.0,0.0,0.0,0.0,0.0,0.0,0.0,0.0,0.0,0.0,0.0,0.0,3.0378,2.9703,2.9203,2.9985,0.0,0.0,0.0,3.4495,3.8681,4.6565,4.9862,5.2861,6.0455,5.8222,5.5953,6.2823,6.2096,6.1077,6.5084,6.6443,6.709,6.7797,6.872,6.946,6.9602,7.1176,7.2434,7.2594,7.3939,7.4912,7.4912,7.4912,7.4912,7.4912,7.4912,7.5228,7.594,7.6619,7.7283,7.7947,7.8705,7.9085,7.9085,7.9085,7.9274,7.9669,7.9274,7.9085,7.9085,7.9085,7.9085,7.9085,7.9085,7.9085,7.9085,7.9085,7.9085,7.9085,7.9085,7.9085,7.9085,7.9085,7.9085,7.9085,7.9085,7.9085,7.9085,0.0,0.0,0.0,0.0,0.0,0.0,0.0,0.0,0.0,0.0,0.0,0.0,0.0,0.0,0.0,0.0,3.0394,3.0205,2.9558,3.0075,0.0,0.0,0.0,0.0,0.0,0.0,0.0,0.0,0.0,0.0,4.1711,4.2677,4.1642,0.0,4.2167,0.0,0.0,0.0,0.0,0.0,0.0,0.0,0.0,0.0,0.0,0.0,0.0,0.0,0.0,0.0,3.0032,2.928,3.0409,3.0883,0.0,0.0,0.0,3.7142,4.7065,4.8946,5.0357,5.9832,5.7713,5.4816,6.0468,6.0276,5.9982,6.3828,6.5828,6.7149,6.7898,6.8836,6.9588,6.989,7.1379,7.2565,7.2782,7.4012,7.4912,7.4912,7.4912,7.4912,7.4912,7.4912,7.5118,7.5687,7.6524,7.7219,7.7741,7.8611,7.9085,7.9085,7.9085,7.9432,8.008,7.959,7.9274,7.9085,7.9085,7.9085,7.9085,7.9085,7.9085,7.9085,7.9085,7.9085,7.9085,7.9085,7.9085,7.9085,7.9085,7.9085,7.9085,7.9085,7.9085,7.9085,0.0,0.0,0.0,0.0,0.0,0.0,0.0,0.0,0.0,0.0,0.0,0.0,0.0,3.0119,3.0699,3.1451,3.0321,2.9558,2.9485,2.9554,2.9868,0.0,0.0,0.0,0.0,0.0,0.0,0.0,0.0,0.0,3.7887,4.1516,4.3075,4.2937,4.397,4.3721,4.2322,0.0,0.0,0.0,0.0,0.0,0.0,0.0,0.0,0.0,0.0,0.0,0.0,0.0,0.0,0.0,3.0697,3.1188,3.1908,0.0,0.0,0.0,4.2753,4.5671,4.8293,5.2641,5.205,5.1134,5.3904,5.4965,5.6461,6.029,6.4166,6.719,6.8198,6.9136,6.9904,7.0204,7.1681,7.2797,7.2811,7.4012,7.4912,7.4912,7.4912,7.4912,7.4912,7.4912,7.4912,7.4929,7.6239,7.7013,7.7061,7.8342,7.9085,7.9085,7.9085,7.9432,8.008,8.008,7.9732,7.9085,7.9085,7.9085,7.9085,7.9085,7.9085,7.9085,7.9085,7.9085,7.9085,7.9085,7.9085,7.9085,7.9085,7.9085,7.9085,7.9085,7.9085,7.9085,0.0,0.0,0.0,0.0,0.0,0.0,0.0,0.0,0.0,0.0,0.0,0.0,0.0,3.0377,3.0553,3.0745,3.0584,3.0387,3.0164,3.0656,3.0872,3.0568,0.0,0.0,0.0,0.0,0.0,0.0,0.0,3.35,3.7541,3.8887,4.086,4.342,4.8611,4.6402,3.9094,4.3916,0.0,0.0,0.0,0.0,0.0,0.0,0.0,0.0,0.0,0.0,0.0,0.0,0.0,0.0,0.0,0.0,0.0,0.0,0.0,3.7788,4.2457,4.3029,4.3802,5.0062,4.8508,4.6832,5.2138,5.4314,5.5527,5.6654,6.2227,6.6445,6.4999,6.753,6.9918,7.0263,7.1348,7.2291,7.2748,7.3633,7.4423,7.4849,7.4912,7.4912,7.4912,7.4912,7.4912,7.4912,7.4518,7.5102,7.6903,7.6619,7.7236,7.9053,7.9085,7.9432,8.008,8.0585,8.0459,7.9732,7.9306,7.9085,7.9085,7.9085,7.9085,7.9085,7.9085,7.9085,7.9085,7.9085,7.9085,7.9085,7.9085,7.9085,7.9085,7.9085,7.9085,7.9085,0.0,0.0,0.0,0.0,0.0,0.0,0.0,0.0,0.0,0.0,0.0,0.0,0.0,0.0,3.0666,3.0466,3.0706,3.0812,3.0577,3.1113,3.129,3.0941,3.1487,0.0,0.0,0.0,0.0,0.0,0.0,0.0,0.0,0.0,3.8439,4.1165,4.75,0.0,0.0,0.0,0.0,3.8387,0.0,0.0,3.8841,0.0,0.0,0.0,0.0,0.0,0.0,0.0,0.0,0.0,0.0,0.0,0.0,0.0,0.0,0.0,4.0912,4.0676,4.0723,4.5775,4.5014,4.4111,4.8388,5.2419,5.5141,5.4761,6.1199,6.6394,6.4711,6.735,6.9961,7.0405,7.123,7.2039,7.2717,7.3443,7.4139,7.4817,7.4912,7.4912,7.4912,7.4912,7.4912,7.4912,7.4265,7.4786,7.6872,7.6334,7.692,7.9021,7.9558,7.9906,8.0111,8.0838,8.0838,8.008,7.94,7.9085,7.9085,7.9085,7.9085,7.9085,7.9085,7.9085,7.9085,7.9085,7.9085,7.9085,7.9085,7.9085,7.9085,7.9085,7.9085,7.9085,0.0,0.0,0.0,0.0,0.0,0.0,0.0,0.0,0.0,0.0,0.0,0.0,0.0,0.0,0.0,3.0736,3.0705,3.0701,3.0735,3.074,3.105,3.1765,3.1804,0.0,0.0,0.0,0.0,0.0,0.0,0.0,0.0,0.0,3.6146,0.0,4.0152,4.5182,5.0831,0.0,5.2742,5.1444,0.0,4.7789,4.7107,0.0,0.0,0.0,4.752,4.6038,0.0,4.6589,0.0,0.0,0.0,0.0,0.0,0.0,0.0,0.0,0.0,0.0,0.0,3.9525,4.1426,4.3051,4.2331,4.8716,5.4764,5.4576,6.1027,6.6888,6.7534,6.8803,6.9987,7.0673,7.1358,7.2007,7.2685,7.3412,7.4107,7.4786,7.488,7.4912,7.4912,7.4912,7.4897,7.4944,7.5513,7.6208,7.6998,7.7678,7.8358,7.9085,8.0491,8.087,8.0143,8.087,8.087,8.0111,7.9432,7.9116,7.9085,7.9085,7.9085,7.9085,7.9085,7.9085,7.9085,7.9085,7.9085,7.9085,7.9085,7.9085,7.9085,7.9085,7.9085,7.9085,0.0,0.0,0.0,0.0,0.0,0.0,0.0,0.0,0.0,0.0,0.0,0.0,0.0,0.0,0.0,3.0709,3.0613,3.0774,3.1306,3.1453,3.1526,3.1649,3.1758,3.1804,0.0,0.0,0.0,0.0,0.0,0.0,0.0,0.0,0.0,0.0,3.6812,3.9986,4.2492,4.8997,0.0,0.0,5.1977,4.9804,0.0,0.0,0.0,0.0,0.0,4.9651,4.8831,0.0,4.7217,4.193,0.0,0.0,0.0,0.0,0.0,0.0,3.7908,0.0,0.0,0.0,0.0,0.0,4.0921,4.5034,4.9048,5.0444,5.6603,6.2254,6.3807,6.6833,6.9438,7.061,7.0961,7.1294,7.1975,7.2685,7.338,7.4075,7.4581,7.4912,7.4912,7.4912,7.5133,7.5671,7.4012,7.436,7.7536,7.8389,7.8895,7.9085,8.0491,8.1091,8.0902,8.1565,8.1565,8.0902,8.0175,7.9558,7.9085,7.9085,7.9085,7.9085,7.9085,7.9085,7.9085,7.9085,7.9085,7.9085,7.9085,7.9085,7.9085,7.9085,7.9085,7.9085,0.0,0.0,0.0,0.0,0.0,0.0,0.0,0.0,0.0,0.0,0.0,0.0,0.0,0.0,0.0,0.0,3.1074,3.121,3.1673,3.1767,3.1777,3.1673,3.1767,3.1804,3.1804,0.0,0.0,0.0,0.0,0.0,0.0,0.0,0.0,0.0,0.0,0.0,0.0,0.0,0.0,0.0,5.1873,0.0,0.0,5.3831,5.3831,0.0,0.0,0.0,5.4762,5.7107,5.2846,0.0,0.0,0.0,0.0,0.0,0.0,0.0,0.0,0.0,0.0,0.0,0.0,0.0,4.0146,4.49,4.9481,5.0795,5.7091,6.2333,6.2254,6.4639,6.697,6.8008,6.8432,6.938,7.1502,7.2133,7.2765,7.3791,7.4233,7.4581,7.488,7.4912,7.507,7.5513,7.4297,7.4851,7.7852,7.8705,7.9085,7.9085,8.0491,8.1218,8.1218,8.185,8.185,8.1186,8.0459,7.9764,7.9085,7.9085,7.9085,7.9085,7.9085,7.9085,7.9085,7.9085,7.9085,7.9085,7.9085,7.9085,7.9085,7.9085,7.9085,7.9085,0.0,0.0,0.0,2.826,2.7981,0.0,0.0,0.0,0.0,0.0,0.0,0.0,0.0,0.0,0.0,0.0,3.1804,3.1804,3.1804,3.1804,3.1804,3.1804,3.1804,3.1804,3.1804,3.1154,0.0,0.0,0.0,0.0,0.0,0.0,0.0,0.0,0.0,0.0,0.0,0.0,0.0,5.2114,5.0272,5.4279,0.0,0.0,5.7632,5.8218,6.3146,6.2447,5.9797,6.3922,5.9435,0.0,0.0,0.0,0.0,0.0,4.1224,0.0,0.0,0.0,0.0,0.0,3.9074,0.0,3.9778,4.5835,5.1756,5.2759,5.8713,6.3157,6.1137,6.1805,6.2889,6.3539,6.4348,6.632,7.0522,7.1502,7.2133,7.3001,7.357,7.4139,7.4707,7.488,7.4944,7.5038,7.5702,7.6667,7.7915,7.8611,7.9021,7.9085,8.0396,8.1123,8.1218,8.185,8.185,8.1186,8.0554,7.9827,7.9085,7.9085,7.9085,7.9085,7.9085,7.9085,7.9085,7.9085,7.9085,7.9085,7.9085,7.9085,7.9085,7.9085,7.9085,7.9085,2.587,0.0,0.0,2.6928,2.7532,2.817,0.0,0.0,0.0,0.0,0.0,0.0,0.0,0.0,0.0,0.0,0.0,3.1804,3.1804,3.1804,3.1804,3.1804,3.1804,3.1804,3.1804,3.1666,3.1666,0.0,0.0,0.0,0.0,0.0,0.0,0.0,0.0,0.0,0.0,0.0,0.0,4.5719,5.1831,5.4237,5.4882,6.1059,6.009,5.6347,6.3569,6.3584,6.0332,6.1233,6.0272,5.7397,0.0,0.0,0.0,4.0326,0.0,0.0,0.0,0.0,0.0,0.0,3.79,0.0,3.8987,4.0094,4.2169,4.7341,4.9449,5.1453,5.4995,5.6319,5.721,5.8291,5.9483,6.1787,6.6117,6.9669,7.087,6.8324,7.1516,7.3949,7.4075,7.4581,7.5165,7.5734,7.6429,7.7141,7.7947,7.8137,7.8484,7.9085,7.989,8.0585,8.1186,8.185,8.185,8.1218,8.106,8.0333,7.9085,7.9085,7.9085,7.9085,7.9085,7.9085,7.9085,7.9085,7.9085,7.9085,7.9085,7.9085,7.9085,7.9085,7.9085,7.9085,2.6432,0.0,0.0,0.0,2.8112,2.8502,0.0,0.0,0.0,0.0,0.0,0.0,0.0,0.0,0.0,0.0,0.0,0.0,0.0,0.0,3.1804,3.1804,3.1804,3.1804,3.1804,3.1804,3.1632,3.1253,0.0,0.0,0.0,0.0,0.0,0.0,0.0,0.0,0.0,0.0,3.8853,4.4311,5.0762,0.0,5.6519,6.3086,6.3775,6.1701,6.5642,6.5924,6.4188,6.2671,6.164,0.0,5.5627,5.1226,4.7009,0.0,4.1192,4.0251,0.0,0.0,0.0,3.9284,3.8455,0.0,0.0,4.0387,4.2159,4.5441,4.7459,4.8934,4.9905,5.0598,5.1544,5.297,5.4156,5.5835,5.8625,6.4606,6.8829,6.9132,7.1344,7.3113,7.3823,7.4202,7.4834,7.5923,7.6619,7.7283,7.7947,7.8358,7.8705,7.9085,7.9748,8.0459,8.1186,8.185,8.2024,8.1692,8.1344,8.0649,7.9606,7.9242,7.9085,7.9085,7.9085,7.9085,7.9085,7.9085,7.9085,7.9085,7.9085,7.9085,7.9085,7.9085,7.9085,7.9085,2.7425,0.0,0.0,0.0,2.8953,2.9191,2.9844,0.0,0.0,0.0,0.0,0.0,0.0,0.0,0.0,0.0,0.0,0.0,0.0,0.0,3.2568,3.1834,3.1804,3.1804,3.1804,3.1938,3.1666,3.0908,0.0,0.0,0.0,0.0,0.0,0.0,0.0,0.0,0.0,0.0,0.0,4.6504,5.107,5.5059,5.8867,6.4381,6.6514,6.6646,6.7561,6.818,6.8027,6.4788,6.2847,6.1615,6.0956,5.5289,0.0,0.0,0.0,0.0,0.0,0.0,3.9611,3.9689,3.9399,3.9162,0.0,0.0,0.0,4.3786,4.6235,4.7557,4.4944,4.5034,4.5904,4.7138,4.8398,4.9742,5.1309,5.8059,6.4221,6.7855,6.9185,7.021,7.1262,7.2194,7.3628,7.5723,7.6401,7.7064,7.7854,7.8516,7.8958,7.9085,7.9637,8.0333,8.1186,8.1723,8.2087,8.2182,8.1502,8.0807,8.008,7.9416,7.9085,7.9085,7.9085,7.9085,7.9085,7.9085,7.9085,7.9085,7.9085,7.9085,7.9085,7.9085,7.9085,7.9085,2.7568,0.0,0.0,0.0,2.9703,3.0663,3.0737,0.0,0.0,0.0,0.0,0.0,0.0,0.0,0.0,0.0,0.0,0.0,3.3007,0.0,0.0,3.1942,3.1804,3.1804,3.1804,3.2455,3.2421,3.1666,3.177,0.0,0.0,0.0,0.0,0.0,3.4056,0.0,0.0,0.0,4.7063,5.3016,5.7603,5.7336,5.5222,6.4065,6.5489,6.3266,6.7451,6.8979,6.8427,6.4628,6.2838,6.1725,5.8929,5.475,5.0547,4.8716,4.6156,4.3354,4.1106,4.0576,4.059,4.0491,3.9737,3.8997,3.8974,0.0,3.9149,3.9229,0.0,3.977,3.9426,0.0,0.0,4.005,4.2128,4.4778,4.7567,5.0934,5.3731,5.5379,5.9735,6.2486,6.2229,6.6076,7.0511,7.5202,7.5641,7.6223,7.748,7.7934,7.8421,7.9085,7.9179,7.9843,8.1186,8.1281,8.1597,8.2182,8.1502,8.0807,8.008,7.9416,7.9085,7.9085,7.9085,7.9085,7.9085,7.9085,7.9085,7.9085,7.9085,7.9085,7.9085,7.9085,7.9085,7.9085,2.8469,0.0,0.0,0.0,3.0587,3.1154,3.1529,0.0,0.0,0.0,0.0,0.0,0.0,0.0,0.0,0.0,0.0,4.1859,0.0,0.0,0.0,0.0,3.4288,3.3115,3.3115,3.2977,3.2524,3.1804,3.2218,3.2214,0.0,0.0,0.0,0.0,3.6294,0.0,4.5003,0.0,4.9546,5.3932,5.6685,5.6485,5.5583,6.4933,6.7584,6.6425,6.7021,6.8315,6.8947,6.3712,6.4481,6.6475,6.0171,5.7342,5.5964,5.3816,4.9183,4.4847,4.5229,4.5335,4.544,4.5875,4.4781,4.3681,4.3979,4.0826,3.7773,3.7655,0.0,0.0,0.0,0.0,0.0,0.0,3.9696,4.119,4.3135,4.5295,4.8829,5.4657,5.7668,6.041,6.3352,6.4071,6.6393,7.1313,7.1687,7.2324,7.3882,7.6347,7.8139,7.9085,7.9085,7.9795,8.1186,8.1218,8.1723,8.275,8.2102,8.1407,8.0712,8.0017,7.9464,7.9085,7.9085,7.9085,7.9085,7.9085,7.9085,7.9085,7.9085,7.9085,7.9085,7.9085,7.9085,7.9085,0.0,0.0,0.0,0.0,0.0,3.1615,3.2048,0.0,0.0,0.0,0.0,0.0,4.1118,4.029,0.0,0.0,4.5914,4.5955,0.0,0.0,4.1595,0.0,0.0,0.0,0.0,3.4559,3.3352,3.2425,3.3184,3.315,3.246,3.3569,0.0,0.0,0.0,4.1303,4.6561,4.9274,5.2713,5.6495,5.8601,5.9451,6.0048,6.5513,6.8458,6.949,6.8015,6.8827,6.9747,6.4209,6.5566,6.8595,6.2723,6.0447,5.978,5.9327,5.4351,4.9321,5.0792,5.1207,5.0974,5.0119,4.8749,4.7224,4.573,4.1588,3.7855,3.7249,3.7072,0.0,0.0,0.0,3.6969,3.7584,0.0,3.8671,3.9308,4.1014,4.4849,5.1994,5.4747,5.7721,6.2002,6.1725,6.2784,6.655,6.8029,6.9438,7.1044,7.5099,7.7842,7.8912,7.8959,7.9669,8.1186,8.1218,8.1865,8.3192,8.2513,8.1866,8.1186,8.0427,7.9732,7.9085,7.9085,7.9085,7.9085,7.9085,7.9085,7.9085,7.9085,7.9085,7.9085,7.9085,7.9085,7.9085,3.1127,3.0584,0.0,0.0,0.0,0.0,3.2227,0.0,0.0,0.0,0.0,0.0,0.0,0.0,0.0,0.0,0.0,4.7307,4.6617,0.0,4.6382,0.0,0.0,3.7634,0.0,3.7738,3.5495,3.4022,3.4776,3.4737,3.4022,3.4091,3.5294,3.7472,3.7507,4.1777,4.9125,5.2993,5.7856,6.3319,6.7146,6.9199,6.9577,6.5373,6.6567,7.056,7.1262,7.1568,7.1042,6.7093,6.5451,6.53,6.6374,6.3312,6.0184,6.4524,6.2503,5.8696,5.8003,5.7791,5.6533,5.1209,4.9653,4.764,4.0822,3.9453,3.9231,3.7779,3.7984,3.8253,3.7584,3.7461,0.0,0.0,0.0,0.0,0.0,3.8354,4.0456,4.2774,4.8286,5.2418,5.3776,5.7513,6.0344,6.1456,6.5799,6.9011,7.0361,7.4609,7.7495,7.8565,7.8612,7.9447,8.1186,8.1218,8.1865,8.3192,8.2513,8.1866,8.1186,8.0427,7.9732,7.9085,7.9085,7.9085,7.9085,7.9085,7.9085,7.9085,7.9085,7.9085,7.9085,7.9085,7.9085,7.9085,0.0,0.0,0.0,0.0,0.0,0.0,3.2914,3.4454,0.0,0.0,4.0504,0.0,0.0,4.9141,4.9735,0.0,0.0,5.5935,5.4176,5.3107,0.0,0.0,0.0,4.4671,0.0,0.0,3.86,3.5564,3.5328,3.5323,3.5564,3.6087,3.7024,3.8266,3.9381,4.3026,4.8592,5.3549,5.8633,6.3476,6.5391,6.668,6.7559,6.8568,6.9928,7.1402,7.2149,7.243,7.1903,6.8568,6.8982,7.0546,6.8463,6.6611,6.6005,7.0108,6.5765,6.0141,6.2456,6.2623,6.1698,5.982,5.6496,5.2817,4.953,4.3685,3.864,3.7707,3.7338,3.7246,3.7461,3.7123,0.0,0.0,0.0,0.0,0.0,3.7461,3.893,4.0984,4.4633,4.8224,5.1327,5.17,5.3359,5.7289,5.9091,6.1065,6.3579,6.9377,7.3332,7.4868,7.7293,7.9115,8.0123,8.0852,8.166,8.2545,8.275,8.2276,8.1186,8.0933,8.0206,7.9085,7.9085,7.9085,7.9085,7.9085,7.9085,7.9085,7.9085,7.9085,7.9085,7.9085,7.9085,7.9085,3.2265,0.0,0.0,0.0,0.0,3.3681,3.5275,3.6746,3.9395,4.4199,4.4479,4.656,5.2728,5.29,5.3624,0.0,5.7667,5.8806,5.9495,5.6073,0.0,5.8694,5.3417,0.0,0.0,0.0,0.0,0.0,0.0,3.7738,3.9514,3.8399,3.8317,3.9116,4.0193,4.2799,4.6797,5.3048,5.8051,6.1995,6.4505,6.6672,6.8507,6.9928,7.1157,7.2184,7.2957,7.3238,7.2922,7.0946,7.1929,7.3553,7.1051,7.0037,7.0208,7.2739,6.8888,6.4371,6.6867,6.7095,6.6207,6.428,6.0975,5.7451,5.4463,4.8606,4.3636,4.303,4.2571,4.1872,4.0601,4.0025,0.0,0.0,0.0,0.0,0.0,3.7583,3.8717,4.0291,4.3333,4.6069,4.8009,4.8481,4.9835,5.2606,5.4391,5.6519,5.9266,6.627,7.0906,7.2413,7.6338,7.8798,7.96,8.0662,8.1534,8.2213,8.2876,8.2497,8.1218,8.1218,8.0427,7.9085,7.9085,7.9085,7.9085,7.9085,7.9085,7.9085,7.9085,7.9085,7.9085,7.9085,7.9085,7.9085,3.3283,3.2515,0.0,3.2542,3.3834,3.5911,3.9015,4.1968,4.6234,5.2872,5.1881,5.1879,5.5442,5.3391,5.2846,5.5563,5.4598,5.6253,6.1953,5.5624,0.0,0.0,5.646,5.4149,5.9056,0.0,0.0,0.0,0.0,4.1865,4.5363,4.0808,3.9116,3.9973,3.9985,4.1343,4.421,5.1834,5.6741,5.9818,6.4732,6.905,7.2254,6.9331,7.0139,7.2957,7.3729,7.398,7.3951,7.3951,7.3876,7.3846,7.3917,7.3238,7.2472,7.2507,7.1851,7.1109,7.1109,7.1109,6.9816,6.465,6.3025,6.1167,5.5479,5.3833,5.3344,5.2851,5.2718,5.1333,4.6829,4.5751,4.3873,0.0,0.0,0.0,3.7407,3.8452,3.9493,4.0244,4.3871,4.5584,4.3794,4.7711,4.962,4.7732,5.1814,5.5395,5.7678,6.5148,6.9976,7.1384,7.5418,7.8199,7.9443,8.0441,8.1344,8.215,8.2844,8.2497,8.1218,8.1218,8.0427,7.9085,7.9085,7.9085,7.9085,7.9085,7.9085,7.9085,7.9085,7.9085,7.9085,7.9085,7.9085,7.9085,3.4973,3.4095,3.4283,3.4765,3.7597,4.0273,4.1693,4.5244,4.9013,5.2526,5.4333,5.6328,5.8973,6.0056,6.0021,5.8558,5.9486,6.0082,5.9901,5.9702,0.0,6.5412,6.3333,6.1436,5.9952,5.7469,5.515,5.3107,0.0,4.4749,4.6203,4.1685,3.9985,4.0787,4.096,4.2015,4.4257,5.2635,5.9579,6.4838,6.3363,6.5399,6.9296,6.8489,7.049,7.3729,7.394,7.3522,7.2891,7.2891,7.2417,7.1951,7.2476,7.247,7.2371,7.2881,7.2362,7.1627,7.1627,7.1102,7.0234,6.8859,6.6053,6.2937,6.0157,5.6993,5.4435,5.361,5.3056,5.2471,5.1764,4.7906,4.456,0.0,0.0,0.0,3.7407,3.7669,3.8337,3.9506,4.1055,4.243,4.35,4.515,4.6552,4.7527,4.9179,5.239,5.7525,6.0265,6.4296,7.0146,7.0384,7.2764,7.7636,7.7463,7.8721,8.147,8.2655,8.2497,8.1218,8.1218,8.0427,7.9085,7.9085,7.9085,7.9085,7.9085,7.9085,7.9085,7.9085,7.9085,7.9085,7.9085,7.9085,7.9085,3.554,3.5492,3.6276,3.6636,4.2113,4.6304,4.5789,4.9223,5.3312,5.7295,5.8603,6.019,6.2848,6.4199,6.4213,6.2507,6.1516,6.1392,6.2427,6.0944,6.2057,6.6644,6.592,6.4368,6.222,6.1125,0.0,5.8457,0.0,4.8093,5.013,4.3534,4.0746,4.125,4.1707,4.2608,4.4417,5.4039,6.1497,6.6714,6.5014,6.6874,0.0,6.8708,7.042,7.3821,7.3683,7.3368,7.3042,7.3397,7.2838,7.21,7.2495,7.2375,7.2091,7.2469,7.1925,7.1186,7.1186,7.0788,7.0338,7.0059,6.8177,6.6099,6.491,6.2569,6.0464,6.001,5.9352,5.8473,5.7057,5.2544,4.7773,4.3987,4.1044,3.8983,3.8366,4.056,4.185,4.0832,4.2375,4.3539,4.3574,4.3939,4.4868,4.6603,4.7342,4.9651,5.4045,5.8251,6.2069,6.5394,6.8331,7.0855,7.2969,7.3051,7.5031,7.8942,7.9985,8.0744,8.1218,8.1218,8.0427,7.9085,7.9085,7.9085,7.9085,7.9085,7.9085,7.9085,7.9085,7.9085,7.9085,7.9085,7.9085,7.9085,3.6054,3.6871,3.8482,3.9076,4.6535,5.2105,5.1158,5.4193,5.8442,6.3598,6.3276,6.3502,6.5968,6.635,6.6352,6.6143,6.2253,6.1818,6.648,6.1205,6.0998,6.7896,6.6244,6.5208,6.5237,6.3913,6.397,0.0,0.0,5.1554,5.479,4.5537,4.1382,4.1717,4.2462,4.3974,4.6631,5.5761,6.2464,6.6981,6.7854,7.0279,7.3044,6.9951,7.0822,7.374,7.3617,7.3492,7.3479,7.4176,7.3697,7.2852,7.2952,7.2389,7.1759,7.1858,7.1317,7.0695,7.0695,7.0695,7.0519,6.9921,6.9774,6.9626,6.8983,6.8403,6.7985,6.8005,6.7582,6.6088,6.2517,5.8103,5.1968,4.279,4.145,4.111,3.9842,4.4651,4.677,4.2757,4.5434,0.0,4.3626,4.3339,4.3892,4.5237,4.5967,4.7475,5.0092,5.7272,6.1027,6.0332,6.7367,7.0261,6.842,6.899,7.1798,7.6732,7.692,7.8484,8.1218,8.1218,8.0427,7.9085,7.9085,7.9085,7.9085,7.9085,7.9085,7.9085,7.9085,7.9085,7.9085,7.9085,7.9085,7.9085,3.9076,3.8998,4.0953,4.4758,4.8526,5.2864,5.8249,6.1609,6.3563,6.3562,6.4961,6.566,6.4926,6.6497,6.7089,6.5834,6.4782,6.4595,6.5525,6.4491,6.5256,6.846,6.8054,6.7837,6.8009,6.744,6.7415,6.8066,5.8398,5.414,5.4798,4.5648,4.2055,4.3313,4.3565,4.8718,5.7263,5.7235,6.1346,6.7943,6.8119,6.9024,7.0464,7.2896,7.4142,7.4664,7.5244,7.399,7.2125,7.2271,7.1688,7.0988,7.153,7.1597,7.1604,7.2202,7.2265,7.212,7.212,7.212,7.1987,7.1377,7.1241,7.0959,6.987,6.9537,6.9303,6.8805,6.8627,6.835,6.7611,6.1435,5.4045,4.6726,4.375,4.2086,4.1179,4.4843,4.6131,4.2057,4.5561,4.6642,4.2381,4.1961,4.2527,4.3861,4.456,4.7321,5.2718,5.3395,5.6534,6.2904,6.3697,6.6471,7.1629,7.0038,7.3084,8.0688,7.8201,7.8484,8.1218,8.1218,8.0427,7.9085,7.9085,7.9085,7.9085,7.9085,7.9085,7.9085,7.9085,7.9085,7.9085,7.9085,7.9085,7.9085,4.4139,4.2172,4.1992,4.5879,5.0432,5.5022,5.9364,6.4148,6.6925,6.6013,6.7222,6.7853,6.71,6.7937,6.8213,6.7462,6.6136,6.5809,6.6983,6.5948,6.6322,6.86,6.8513,6.7948,6.6974,6.7711,6.7967,6.7699,5.9442,5.5962,5.6858,4.7649,4.3927,4.5118,4.7618,5.2074,5.7887,6.0774,6.4636,6.8998,7.0991,7.1939,7.2377,7.4101,7.4354,7.3819,7.4058,7.3289,7.225,7.2787,7.2301,7.1569,7.1861,7.1977,7.2042,7.2411,7.2508,7.2508,7.2508,7.2262,7.1898,7.1278,7.089,7.0427,6.9528,6.9311,6.9269,6.8963,6.8904,6.8257,6.6119,6.2548,5.8036,5.2248,4.8779,4.6416,4.5291,4.7459,4.8287,4.5983,4.9581,5.0382,4.5687,4.4922,4.455,4.4138,4.4415,4.6654,5.1374,5.3356,5.6465,6.1071,6.3426,6.6138,6.9263,6.9086,7.2186,7.8423,7.7461,7.8484,8.1218,8.1218,8.0427,7.9085,7.9085,7.9085,7.9085,7.9085,7.9085,7.9085,7.9085,7.9085,7.9085,7.9085,7.9085,7.9085,4.9598,4.7,4.5596,4.894,5.3658,5.7925,6.076,6.5321,6.8438,6.8435,6.8998,6.9464,6.964,6.9491,6.9197,6.8698,6.7414,6.6869,6.7329,6.6857,6.7092,6.8305,6.8738,6.8242,6.6694,6.8029,6.8424,6.7742,6.1063,5.8183,5.8729,5.0425,4.7034,4.815,5.3162,5.6463,5.8624,6.5013,6.8849,7.0885,7.3847,7.5046,7.5001,7.4568,7.3857,7.3114,7.2907,7.2675,7.2609,7.3408,7.3135,7.2508,7.2508,7.2508,7.2482,7.2342,7.2302,7.2262,7.2141,7.1789,7.1264,7.0652,7.0144,6.9629,6.905,6.8904,6.8904,6.8904,6.8904,6.7919,6.4689,6.3489,6.1458,5.6712,5.3106,5.0164,4.8039,4.9449,5.0464,4.9795,5.252,5.2902,4.8973,4.7218,4.5844,4.4683,4.4477,4.6069,4.9908,5.3398,5.6354,5.8726,6.3102,6.571,6.6414,6.8013,7.1416,7.6619,7.6721,7.8357,8.1186,8.1028,8.0301,7.9085,7.9085,7.9085,7.9085,7.9085,7.9085,7.9085,7.9085,7.9085,7.9085,7.9085,7.9085,7.9085,5.4458,5.4695,5.6136,6.001,6.0045,6.1557,6.7506,6.7164,6.6953,6.8998,6.9359,6.9631,7.0323,7.0375,6.9523,6.7373,6.961,6.8794,6.3365,6.7839,6.9675,6.7267,6.9459,7.087,7.11,7.0925,7.0827,7.0876,6.5991,6.1922,5.8515,5.3651,5.2123,5.3815,5.9896,6.425,6.7146,6.9261,7.1868,7.4582,7.4753,7.5232,7.5688,7.475,7.4204,7.3889,7.3866,7.3265,7.2522,7.2596,7.2588,7.2508,7.2508,7.2508,7.2382,7.1825,7.1675,7.1552,7.1033,7.0838,7.0655,7.0016,6.983,6.9629,6.905,6.8904,6.8904,6.8904,6.8904,6.8781,6.8411,6.5811,6.2166,5.7463,5.3813,5.0033,4.5617,4.8276,5.0435,4.9767,5.0012,4.9806,4.8718,4.4702,4.2857,4.4468,4.4046,4.5976,5.1221,5.077,5.2967,5.8633,5.9883,6.2531,6.678,6.8132,7.2749,8.0537,7.7527,7.7899,8.1186,8.0522,7.9795,7.9085,7.9085,7.9085,7.9085,7.9085,7.9085,7.9085,7.9085,7.9085,7.9085,7.9085,7.9085,7.9085,6.011,5.8203,5.7413,6.0412,6.1955,6.3936,6.7436,6.8248,6.8698,6.9307,6.9288,6.9718,7.1065,7.0671,7.0083,6.9463,7.0539,7.0224,6.771,6.9799,7.0733,6.9874,7.074,7.1385,7.1674,7.1322,7.1458,7.2199,6.5093,6.1377,6.0792,5.6235,5.5921,5.9377,6.4715,6.7769,6.9139,7.2535,7.4611,7.559,7.5481,7.5185,7.4719,7.4317,7.3475,7.2624,7.2953,7.2895,7.2695,7.3048,7.2878,7.2455,7.2073,7.2241,7.2426,7.1845,7.1935,7.2214,7.1972,7.1643,7.1311,7.1064,7.0742,7.0402,7.0149,7.009,7.009,7.009,7.009,6.9967,6.9566,6.8397,6.6057,6.1717,5.9532,5.7008,5.3059,5.3583,5.5142,5.7315,5.5788,5.5234,5.6965,5.1036,4.7229,4.7639,4.5155,4.5422,4.9609,5.2021,5.5542,6.0455,6.2456,6.6334,7.2291,7.2497,7.5449,8.1097,8.0154,8.0238,8.1186,8.0427,7.9732,7.9085,7.9085,7.9085,7.9085,7.9085,7.9085,7.9085,7.9085,7.9085,7.9085,7.9085,7.9085,7.9085,6.5171,6.2818,6.1195,6.288,6.4918,6.6417,6.6746,6.8354,6.9205,6.8281,6.8308,6.8999,7.0518,7.0361,6.9993,6.968,7.0757,7.0749,6.9094,7.061,7.1424,7.1032,7.1701,7.2182,7.2385,7.2113,7.2319,7.3044,6.6958,6.3981,6.3962,6.0995,6.1441,6.4996,6.9455,7.1431,7.1658,7.4827,7.6082,7.5881,7.5481,7.4793,7.3975,7.3657,7.2978,7.2228,7.2666,7.2996,7.3293,7.3541,7.3287,7.2813,7.2563,7.2678,7.2802,7.2195,7.2214,7.2403,7.2213,7.1861,7.1535,7.1535,7.1206,7.089,7.089,7.089,7.089,7.089,7.089,7.0767,7.0274,7.0182,6.8858,6.4781,6.3735,6.2179,5.8602,5.7678,5.8448,6.1286,5.8454,5.7697,6.1286,5.5191,5.0893,5.0616,4.8091,4.7588,4.9968,5.2729,5.6361,6.1071,6.2104,6.61,7.3385,7.3551,7.6057,8.0965,8.1604,8.1534,8.087,8.0143,7.9543,7.9085,7.9085,7.9085,7.9085,7.9085,7.9085,7.9085,7.9085,7.9085,7.9085,7.9085,7.9085,7.9085,6.9324,6.9876,7.0349,7.0384,7.0252,6.9269,6.6705,6.7277,6.7346,6.5481,6.6169,6.7195,6.8224,6.9289,6.8968,6.6652,7.0199,7.0211,6.4552,6.9698,7.1902,6.9542,7.2141,7.3767,7.3965,7.3965,7.3876,7.3677,7.3771,7.1763,6.7845,6.8801,6.9666,7.0569,7.4466,7.6232,7.6206,7.5993,7.5902,7.5793,7.4515,7.4005,7.3899,7.288,7.2943,7.359,7.359,7.4012,7.4485,7.3902,7.3677,7.3794,7.4388,7.4153,7.3568,7.2938,7.2316,7.1683,7.1071,7.0936,7.089,7.089,7.089,7.089,7.089,7.089,7.089,7.089,7.089,7.089,7.089,7.089,6.9566,6.5534,6.4888,6.3441,5.936,5.8787,5.8775,5.8849,5.5253,5.436,5.8436,5.4526,5.1948,5.2625,5.3229,5.3599,5.3629,5.1794,5.3541,5.9637,5.6595,5.8924,6.744,6.9194,7.3597,8.0622,8.1025,8.0838,8.008,7.94,7.9116,7.9085,7.9085,7.9085,7.9085,7.9085,7.9085,7.9085,7.9085,7.9085,7.9085,7.9085,7.9085,7.9085,6.5634,6.7566,6.8747,6.694,6.8546,6.9502,6.7903,6.8566,6.8742,6.7421,6.7334,6.74,6.7341,6.8503,6.9315,6.9373,6.9902,7.0095,6.9845,7.087,7.2003,7.3105,7.2076,7.1627,7.1936,7.2005,7.2123,7.2324,7.1865,7.0953,6.9694,7.0015,7.1693,7.4537,7.6282,7.6678,7.6092,7.7234,7.655,7.4615,7.4956,7.4278,7.3056,7.3207,7.3183,7.309,7.3515,7.3866,7.4085,7.3855,7.41,7.4556,7.4728,7.4064,7.304,7.243,7.244,7.2567,7.2368,7.2321,7.2321,7.2321,7.2321,7.2321,7.2321,7.2321,7.2321,7.2321,7.2321,7.2198,7.1736,7.1644,7.032,6.6242,6.7504,6.775,6.4149,6.327,6.2962,6.2962,5.9747,5.9162,6.3225,5.9747,5.7315,5.7531,5.5149,5.3691,5.3691,5.6595,6.0424,6.5179,6.5165,6.8263,7.4966,7.3985,7.6134,8.136,8.1246,8.0585,7.94,7.9211,7.9085,7.9085,7.9085,7.9085,7.9085,7.9085,7.9085,7.9085,7.9085,7.9085,7.9085,7.9085,7.9085,7.9085,6.5473,6.7395,6.8591,6.6489,6.8225,6.9272,6.7382,6.8194,6.8406,6.6744,6.7044,6.7378,6.7286,6.807,6.8949,6.9853,6.9665,7.0163,7.1751,7.1749,7.2557,7.4458,7.3303,7.2742,7.2998,7.3023,7.3187,7.3438,7.2922,7.2807,7.3087,7.3087,7.4537,7.718,7.7661,7.7298,7.6395,7.7133,7.6011,7.3701,7.4245,7.358,7.2333,7.3011,7.3232,7.322,7.3594,7.3984,7.4219,7.3938,7.4147,7.4463,7.4269,7.361,7.2903,7.2766,7.2861,7.2999,7.2999,7.2999,7.2999,7.2999,7.2999,7.2999,7.2999,7.2999,7.2999,7.2999,7.2999,7.2876,7.2445,7.2398,7.1552,6.8982,7.0305,7.0952,6.8858,6.7104,6.5934,6.5688,6.2641,6.2148,6.6259,6.4118,6.2579,6.2825,5.9519,5.7937,5.8983,5.9839,6.2531,6.7364,6.8581,7.1704,7.7027,7.573,7.7167,8.1281,8.0693,7.9938,7.9085,7.9085,7.9085,7.9085,7.9085,7.9085,7.9085,7.9085,7.9085,7.9085,7.9085,7.9085,7.9085,7.9085,7.9085,7.9085,6.7714,6.8786,6.9434,6.8247,6.8948,6.8699,6.5678,6.6658,6.6886,6.4419,6.5797,6.7274,6.7921,6.7968,6.8119,6.8493,6.9359,7.0177,7.0754,7.2132,7.3205,7.3867,7.5161,7.5892,7.5984,7.5984,7.613,7.6427,7.6457,7.6819,7.7465,7.7465,7.7862,7.8585,7.8585,7.8009,7.6928,7.609,7.4699,7.3031,7.2801,7.2341,7.1844,7.2535,7.3198,7.3815,7.3815,7.424,7.4748,7.4056,7.3829,7.3737,7.32,7.2999,7.3123,7.3661,7.3447,7.2999,7.2999,7.2999,7.2999,7.2999,7.2999,7.2999,7.2999,7.303,7.306,7.306,7.306,7.306,7.306,7.303,7.303,7.306,7.306,7.2999,7.2814,7.0027,6.7642,6.672,6.4012,6.3704,6.7475,6.7582,6.752,6.7875,6.5568,6.5291,6.7906,6.2069,6.1392,6.7397,6.8228,7.0578,7.4873,7.5247,7.7198,8.0684,7.9653,7.9179,7.9179,7.9116,7.9085,7.9085,7.9085,7.9085,7.9085,7.9085,7.9085,7.9085,7.9085,7.9085,7.9085,7.9085,7.9085,7.9085,6.3789,6.6047,6.7574,6.5649,6.7296,6.8341,6.6727,6.7606,6.8084,6.7069,6.7797,6.8504,6.8658,6.8643,6.8698,6.8803,6.8292,6.8729,7.0531,7.0248,7.1181,7.3847,7.216,7.1695,7.2854,7.2962,7.4508,7.7532,7.7891,7.8128,7.8339,7.8339,7.8409,7.8585,7.8585,7.7628,7.5986,7.6556,7.5231,7.2778,7.3559,7.3395,7.2676,7.3304,7.3674,7.3867,7.3867,7.3992,7.4026,7.3416,7.32,7.32,7.3045,7.2999,7.303,7.3185,7.3123,7.2999,7.2999,7.2999,7.2999,7.2999,7.2999,7.2999,7.2999,7.3399,7.3768,7.3768,7.3768,7.3768,7.3768,7.3337,7.3153,7.3676,7.3768,7.303,7.0936,6.9489,6.7457,6.4166,6.5366,6.6628,6.709,7.0274,7.1105,6.8121,6.7781,6.8212,6.9351,6.7919,6.9351,7.4445,7.4753,7.6223,7.9135,7.9497,8.0378,8.1831,8.0474,7.9859,7.9859,7.9337,7.9085,7.9085,7.9085,7.9085,7.9085,7.9085,7.9085,7.9085,7.9085,7.9085,7.9085,7.9085,7.9085,7.9085,6.4862,6.652,6.7535,6.5857,6.7244,6.8353,6.7496,6.8164,6.8698,6.841,6.8674,6.8904,6.8904,6.8904,6.8904,6.8904,6.836,6.8542,6.9734,6.9958,7.0854,7.2692,7.198,7.2143,7.3459,7.3775,7.5331,7.8215,7.8247,7.8385,7.8585,7.8585,7.8364,7.7923,7.825,7.7091,7.496,7.5911,7.4721,7.23,7.328,7.3195,7.2562,7.3174,7.3441,7.3493,7.3493,7.3493,7.3432,7.3123,7.3214,7.3399,7.3091,7.3214,7.3399,7.3091,7.3214,7.3461,7.3461,7.3461,7.3399,7.3091,7.2999,7.2999,7.2999,7.3276,7.3553,7.3553,7.3553,7.3553,7.3553,7.3245,7.3122,7.3491,7.2214,7.0705,6.9197,6.7596,6.632,6.5657,6.7504,6.9289,7.0475,7.2675,7.3199,7.1275,6.9751,7.0012,7.2552,7.1521,7.2891,7.7338,7.7769,7.8593,7.9906,8.0394,8.099,8.1723,8.0617,8.0111,8.008,7.9416,7.9085,7.9085,7.9085,7.9085,7.9085,7.9085,7.9085,7.9085,7.9085,7.9085,7.9085,7.9085,7.9085,7.9085,6.769,6.8127,6.8207,6.7327,6.8055,6.8589,6.8116,6.852,6.8904,6.8904,6.8904,6.8904,6.8904,6.8904,6.8904,6.8904,6.8904,6.8904,6.8904,7.0188,7.1013,7.1192,7.2718,7.4103,7.5244,7.5897,7.6949,7.8385,7.8055,7.8125,7.8515,7.8515,7.8002,7.7068,7.7617,7.6482,7.4188,7.4812,7.386,7.2005,7.2678,7.261,7.2198,7.2783,7.2999,7.2999,7.2999,7.306,7.3153,7.303,7.3461,7.3876,7.3214,7.3399,7.3738,7.3153,7.3461,7.3984,7.3892,7.3861,7.3707,7.3153,7.2999,7.2999,7.2999,7.3091,7.3153,7.3153,7.3153,7.3153,7.3153,7.306,7.2845,7.2445,6.9936,6.7921,6.752,6.5875,6.5766,6.8565,6.9858,7.166,7.4584,7.443,7.443,7.5107,7.2044,7.1937,7.6076,7.4122,7.4522,7.8045,7.8753,7.919,7.94,8.0145,8.082,8.1502,8.0649,8.0269,8.0238,7.9464,7.9085,7.9085,7.9085,7.9085,7.9085,7.9085,7.9085,7.9085,7.9085,7.9085,7.9085,7.9085,7.9085,7.9085,6.77,6.7861,6.811,6.8378,6.8679,6.8852,6.8765,6.8842,6.8904,6.8904,6.8904,6.8904,6.8904,6.8904,6.8904,6.8904,6.8904,6.8904,6.8904,6.9136,6.9696,7.0651,7.188,7.3057,7.4206,7.5701,7.6782,7.7434,7.7741,7.8021,7.8186,7.8186,7.7683,7.6758,7.688,7.5938,7.4271,7.4437,7.3826,7.2738,7.2922,7.2938,7.2845,7.2968,7.2999,7.2999,7.2999,7.3368,7.3768,7.3183,7.3461,7.3876,7.3214,7.306,7.3122,7.303,7.3461,7.3892,7.3307,7.3153,7.3122,7.303,7.2999,7.2999,7.2999,7.343,7.3845,7.3845,7.3845,7.3845,7.3845,7.3399,7.2229,6.992,6.9089,6.7935,6.5688,6.7442,6.892,6.8904,7.1552,7.3568,7.4091,7.4584,7.5138,7.5799,7.5768,7.6322,7.7629,7.729,7.7645,7.8893,7.9047,7.9658,8.0789,8.1799,8.2511,8.2876,8.1628,8.1028,8.0996,7.9685,7.9085,7.9085,7.9085,7.9085,7.9085,7.9085,7.9085,7.9085,7.9085,7.9085,7.9085,7.9085,7.9085,7.9085,6.8276,6.8401,6.8515,6.8745,6.8864,6.8904,6.8904,6.8904,6.8904,6.8904,6.8904,6.8904,6.8904,6.8904,6.8904,6.8904,6.9243,6.9458,6.9458,6.9089,6.9136,6.967,7.0194,7.1314,7.3086,7.4203,7.5326,7.6451,7.6414,7.6537,7.6852,7.6852,7.6324,7.5431,7.5779,7.5061,7.3578,7.3966,7.3675,7.2968,7.3,7.2999,7.2999,7.2999,7.2999,7.306,7.3399,7.3522,7.3461,7.3522,7.3722,7.3876,7.3214,7.3245,7.3461,7.3091,7.3461,7.3937,7.3614,7.3553,7.3461,7.3091,7.2999,7.2999,7.2999,7.3245,7.3461,7.3461,7.3461,7.3461,7.3461,7.3214,7.2568,7.1305,6.9566,6.8058,6.718,6.8705,6.9905,6.9967,7.3322,7.5476,7.5107,7.5353,7.5815,7.6476,7.6814,7.7461,7.8538,7.8599,7.877,7.9078,7.928,7.9926,8.108,8.1821,8.2326,8.264,8.166,8.0996,8.0585,7.9558,7.9085,7.9085,7.9085,7.9085,7.9085,7.9085,7.9085,7.9085,7.9085,7.9085,7.9085,7.9085,7.9085,7.9085,6.8812,6.8904,6.8904,6.8904,6.8904,6.8904,6.8904,6.8904,6.8904,6.8904,6.8904,6.8965,6.9119,6.9119,6.9212,6.9366,6.9843,7.012,7.012,6.9643,6.9366,6.9366,6.96,7.073,7.281,7.331,7.4241,7.5621,7.5278,7.5291,7.5687,7.5687,7.5163,7.4241,7.474,7.4212,7.2977,7.349,7.3416,7.2999,7.2999,7.2999,7.303,7.3183,7.3153,7.3091,7.3768,7.3676,7.3276,7.3645,7.3876,7.3876,7.3214,7.3337,7.3676,7.3153,7.3368,7.3768,7.3768,7.3768,7.363,7.3122,7.2999,7.2999,7.2999,7.2999,7.303,7.3214,7.3245,7.3276,7.343,7.3461,7.3214,7.2414,7.009,6.8536,6.9058,6.9581,7.0398,7.169,7.4599,7.6384,7.6014,7.6137,7.6507,7.7184,7.7229,7.7769,7.9047,7.8955,7.8832,7.8832,7.9562,8.0239,8.0878,8.1653,8.211,8.2182,8.1502,8.0807,8.008,7.9416,7.9085,7.9085,7.9085,7.9085,7.9085,7.9085,7.9085,7.9085,7.9085,7.9085,7.9085,7.9085,7.9085,7.9085,6.8904,6.8904,6.8904,6.8904,6.8904,6.8904,6.8904,6.8904,6.8904,6.8904,6.8904,6.915,6.9751,6.9828,7.0059,7.0705,7.0798,7.0828,7.0828,7.0767,7.0767,7.0767,7.176,7.2945,7.4227,7.4295,7.4591,7.5145,7.5138,7.5182,7.5353,7.5353,7.4826,7.3914,7.3977,7.3645,7.3015,7.3046,7.3045,7.2999,7.2999,7.2999,7.306,7.3707,7.3553,7.3091,7.3768,7.3984,7.3861,7.3276,7.3491,7.3876,7.3214,7.303,7.306,7.2999,7.303,7.306,7.306,7.306,7.306,7.2999,7.2999,7.2999,7.2999,7.2999,7.3183,7.3799,7.3922,7.4138,7.4738,7.4861,7.3814,7.0644,6.9905,6.9751,6.9813,6.9874,7.1075,7.4307,7.4953,7.5384,7.5953,7.6568,7.7215,7.7875,7.7937,7.8261,7.9047,7.8446,7.806,7.806,7.9964,8.072,8.0177,8.2104,8.2796,8.2182,8.1502,8.0807,8.008,7.9416,7.9085,7.9085,7.9085,7.9085,7.9085,7.9085,7.9085,7.9085,7.9085,7.9085,7.9085,7.9085,7.9085,7.9085,6.8904,6.8904,6.8904,6.8904,6.8904,6.8904,6.8904,6.8904,6.9058,6.9458,6.9505,6.9797,7.0459,7.0521,7.0613,7.089,7.1336,7.1582,7.1582,7.1983,7.1813,7.0952,7.131,7.1972,7.2883,7.2914,7.3189,7.3788,7.3788,7.3827,7.3856,7.3856,7.3668,7.3339,7.3339,7.32,7.2999,7.2999,7.2999,7.2999,7.2999,7.2999,7.303,7.3276,7.3214,7.3091,7.3768,7.3722,7.3399,7.3584,7.3522,7.3337,7.3091,7.2999,7.3091,7.3491,7.3614,7.3707,7.4138,7.3953,7.3614,7.3614,7.3937,7.4245,7.4245,7.4245,7.4307,7.4553,7.4615,7.4707,7.4953,7.5015,7.4584,7.326,7.3045,7.3199,7.363,7.3691,7.4338,7.6045,7.6599,7.6968,7.7215,7.7892,7.8415,7.8661,7.8692,7.8784,7.9078,7.8415,7.8114,7.8377,7.9741,8.0348,8.0115,8.1728,8.2229,8.1565,8.087,8.0143,7.9464,7.9211,7.9085,7.9085,7.9085,7.9085,7.9085,7.9085,7.9085,7.9085,7.9085,7.9085,7.9085,7.9085,7.9085,7.9085,6.8904,6.8904,6.8904,6.8904,6.8904,6.8965,6.9181,6.9212,6.9458,7.012,7.0213,7.049,7.1167,7.1244,7.1321,7.1536,7.2013,7.2291,7.2291,7.2752,7.2568,7.1598,7.1567,7.1798,7.2291,7.2291,7.2537,7.2999,7.2999,7.2999,7.2999,7.2999,7.2999,7.2999,7.2999,7.2999,7.2999,7.2999,7.3122,7.3307,7.3091,7.3122,7.3307,7.3307,7.3183,7.3091,7.3768,7.3584,7.306,7.3522,7.3368,7.2999,7.2999,7.3153,7.3461,7.4138,7.4307,7.4399,7.4892,7.483,7.4584,7.4368,7.4645,7.5015,7.5015,7.5015,7.5076,7.5261,7.5323,7.5384,7.56,7.563,7.563,7.563,7.563,7.5784,7.6261,7.6507,7.6814,7.7276,7.7922,7.8244,7.8029,7.8661,7.9016,7.8753,7.8753,7.8661,7.8446,7.8285,7.8297,7.8591,7.9689,8.0279,8.0279,8.1542,8.1755,8.0838,8.0333,7.9764,7.9085,7.9085,7.9085,7.9085,7.9085,7.9085,7.9085,7.9085,7.9085,7.9085,7.9085,7.9085,7.9085,7.9085,7.9085,7.9085,6.8904,6.8904,6.8904,6.8904,6.8904,6.9119,6.9828,6.9905,7.0151,7.0828,7.0921,7.1198,7.1936,7.2029,7.2275,7.2937,7.2999,7.2999,7.2999,7.2999,7.2999,7.2999,7.2999,7.2999,7.2999,7.2999,7.2999,7.2999,7.2999,7.2999,7.2999,7.2999,7.2999,7.2999,7.2999,7.2999,7.2999,7.2999,7.3399,7.3937,7.3276,7.3399,7.3984,7.3984,7.3584,7.3091,7.3768,7.3553,7.2999,7.2999,7.2999,7.2999,7.2999,7.3461,7.4122,7.4799,7.5015,7.5015,7.5015,7.5507,7.583,7.5169,7.5015,7.5015,7.5015,7.5015,7.5199,7.586,7.6014,7.6199,7.6876,7.6999,7.6999,7.6999,7.6999,7.6999,7.703,7.7584,7.7998,7.7998,7.863,7.8832,7.806,7.8661,7.8784,7.806,7.7998,7.769,7.703,7.8023,7.8591,7.8608,7.9887,8.059,8.059,8.1656,8.147,8.0111,8.008,7.9732,7.9085,7.9085,7.9085,7.9085,7.9085,7.9085,7.9085,7.9085,7.9085,7.9085,7.9085,7.9085,7.9085,7.9085,7.9085,7.9085,6.8904,6.8904,6.9058,6.9505,6.9612,6.9828,7.049,7.0613,7.0859,7.1582,7.1675,7.1921,7.2629,7.2691,7.2783,7.2968,7.2999,7.2999,7.2999,7.2999,7.2999,7.2999,7.2999,7.2999,7.2999,7.2999,7.2999,7.2999,7.2999,7.2999,7.2999,7.2999,7.2999,7.2999,7.2999,7.2999,7.2999,7.2999,7.3122,7.3276,7.3091,7.3122,7.3307,7.3307,7.3183,7.303,7.3214,7.3183,7.2999,7.2999,7.3307,7.3783,7.4261,7.4522,7.483,7.5507,7.5707,7.5799,7.6261,7.6538,7.6538,7.586,7.6061,7.6384,7.6384,7.6384,7.6445,7.6661,7.6691,7.6753,7.6968,7.6999,7.7153,7.7645,7.769,7.7892,7.8401,7.8647,7.8569,7.806,7.863,7.8832,7.806,7.8661,7.8784,7.806,7.7567,7.7215,7.6999,7.8023,7.8706,7.8952,8.0001,8.0484,8.0252,8.0569,8.0522,8.008,7.9622,7.9274,7.9085,7.9085,7.9085,7.9085,7.9085,7.9085,7.9085,7.9085,7.9085,7.9085,7.9085,7.9085,7.9085,7.9085,7.9085,7.9085,6.8904,6.9119,6.9427,6.9828,7.012,7.0521,7.1244,7.1336,7.1582,7.2291,7.2383,7.2537,7.2968,7.2999,7.2999,7.2999,7.2999,7.2999,7.2999,7.2999,7.2999,7.2999,7.2999,7.2999,7.2999,7.2999,7.2999,7.2999,7.2999,7.2999,7.2999,7.2999,7.2999,7.2999,7.2999,7.2999,7.2999,7.2999,7.3153,7.3368,7.3122,7.3153,7.3368,7.3091,7.2999,7.2999,7.2999,7.3183,7.3399,7.3399,7.3861,7.4522,7.5199,7.5415,7.5538,7.6199,7.6384,7.6476,7.6876,7.6999,7.6907,7.6507,7.6691,7.6999,7.6999,7.6999,7.6999,7.6999,7.7215,7.7399,7.7399,7.7645,7.7953,7.8353,7.8199,7.8169,7.8599,7.8661,7.8507,7.806,7.863,7.8832,7.806,7.8415,7.8353,7.7676,7.7245,7.7065,7.7196,7.8205,7.8968,7.9278,8.001,8.0283,8.0111,7.9859,7.9701,7.9701,7.9274,7.9085,7.9085,7.9085,7.9085,7.9085,7.9085,7.9085,7.9085,7.9085,7.9085,7.9085,7.9085,7.9085,7.9085,7.9085,7.9085,7.9085,6.8996,6.952,6.9997,7.0074,7.0582,7.1229,7.1983,7.209,7.2291,7.2906,7.2999,7.2999,7.2999,7.2999,7.2999,7.2999,7.2999,7.2999,7.2999,7.2999,7.2999,7.2999,7.2999,7.2999,7.2999,7.2999,7.2999,7.2999,7.2999,7.2999,7.2999,7.2999,7.2999,7.2999,7.2999,7.2999,7.2999,7.2999,7.3337,7.3845,7.3245,7.3368,7.3845,7.3245,7.2999,7.2999,7.306,7.3491,7.4015,7.4122,7.4584,7.5199,7.5877,7.6076,7.6199,7.6814,7.6999,7.6999,7.6999,7.6999,7.6999,7.6999,7.7061,7.7061,7.6999,7.7061,7.7091,7.7091,7.7645,7.806,7.7998,7.8538,7.9016,7.9016,7.8446,7.8029,7.8107,7.809,7.806,7.7998,7.8599,7.8692,7.7967,7.7906,7.766,7.7061,7.6999,7.7147,7.7474,7.8515,7.9214,7.9506,7.9905,8.008,8.0017,7.9416,7.9085,7.9085,7.9085,7.9085,7.9085,7.9085,7.9085,7.9085,7.9085,7.9085,7.9085,7.9085,7.9085,7.9085,7.9085,7.9085,7.9085,7.9085,7.9085,7.9116,6.969,7.0213,7.0859,7.1429,7.1644,7.1983,7.266,7.2783,7.2845,7.2968,7.2999,7.2999,7.2999,7.2999,7.2999,7.2999,7.2999,7.2999,7.2999,7.2999,7.2999,7.2999,7.2999,7.2999,7.2999,7.2999,7.2999,7.2999,7.2999,7.2999,7.2999,7.2999,7.2999,7.2999,7.2999,7.2999,7.2999,7.2999,7.3091,7.3214,7.306,7.3091,7.3214,7.306,7.2999,7.306,7.3568,7.3892,7.4153,7.5199,7.5645,7.5891,7.6568,7.6784,7.6814,7.6968,7.6999,7.6999,7.6999,7.6999,7.6999,7.6999,7.7383,7.7629,7.7122,7.7399,7.7783,7.7783,7.8353,7.8692,7.809,7.8121,7.823,7.823,7.809,7.8183,7.8784,7.8846,7.863,7.806,7.8138,7.7984,7.726,7.7215,7.7153,7.6999,7.6999,7.7147,7.7474,7.8515,7.8996,7.8831,7.9653,7.9859,7.9306,7.9179,7.9085,7.9085,7.9085,7.9085,7.9085,7.9085,7.9085,7.9085,7.9085,7.9085,7.9085,7.9085,7.9085,7.9085,7.9085,7.9085,7.9085,7.9085,7.9085,7.9179,7.0367,7.0921,7.1552,7.1936,7.226,7.2598,7.2937,7.2999,7.2999,7.2999,7.2999,7.2999,7.2999,7.2999,7.2999,7.2999,7.2999,7.2999,7.2999,7.2999,7.2999,7.2999,7.2999,7.2999,7.2999,7.2999,7.2999,7.2999,7.2999,7.2999,7.2999,7.2999,7.2999,7.2999,7.2999,7.2999,7.2999,7.2999,7.2999,7.2999,7.2999,7.2999,7.303,7.3368,7.3491,7.3553,7.4245,7.4676,7.5107,7.6137,7.6476,7.6538,7.6876,7.6999,7.6999,7.6999,7.6999,7.6999,7.6999,7.7229,7.7399,7.7091,7.7522,7.7906,7.7567,7.7752,7.7998,7.7998,7.8322,7.8446,7.806,7.8292,7.8507,7.8507,7.823,7.8121,7.8507,7.8292,7.7953,7.7584,7.7506,7.7399,7.703,7.6999,7.6999,7.6999,7.6999,7.7228,7.7764,7.8317,7.8701,7.8833,7.9353,7.9432,7.9085,7.9085,7.9085,7.9085,7.9085,7.9085,7.9085,7.9085,7.9085,7.9085,7.9085,7.9085,7.9085,7.9085,7.9085,7.9085,7.9085,7.9085,7.9085,7.9085,7.9085,7.9211,7.1075,7.1675,7.2167,7.2167,7.2629,7.2999,7.2999,7.2999,7.2999,7.2999,7.2999,7.2999,7.2999,7.2999,7.2999,7.2999,7.2999,7.2999,7.2999,7.2999,7.2999,7.2999,7.2999,7.2999,7.2999,7.2999,7.2999,7.2999,7.2999,7.2999,7.2999,7.2999,7.2999,7.2999,7.2999,7.2999,7.2999,7.2999,7.2999,7.2999,7.2999,7.306,7.3245,7.3799,7.4061,7.4245,7.4922,7.56,7.6261,7.6814,7.6999,7.6999,7.6999,7.6999,7.6999,7.6999,7.6999,7.6999,7.6999,7.7399,7.769,7.7153,7.7522,7.7998,7.7998,7.7998,7.7998,7.7998,7.809,7.8152,7.8029,7.8507,7.8862,7.877,7.823,7.7813,7.7813,7.7368,7.6999,7.6999,7.6999,7.6999,7.6999,7.6999,7.6999,7.6999,7.7048,7.7375,7.8069,7.8134,7.8469,7.9069,7.9085,7.9085,7.9085,7.9085,7.9085,7.9085,7.9085,7.9085,7.9085,7.9085,7.9085,7.9085,7.9085,7.9085,7.9085,7.9085,7.9085,7.9085,7.9085,7.9085,7.9085,7.9085,7.9179,7.9369,7.1829,7.2383,7.2845,7.2845,7.2937,7.2999,7.2999,7.2999,7.2999,7.2999,7.2999,7.2999,7.2999,7.2999,7.2999,7.2999,7.2999,7.2999,7.2999,7.2999,7.2999,7.2999,7.2999,7.2999,7.2999,7.2999,7.2999,7.2999,7.2999,7.2999,7.2999,7.2999,7.2999,7.2999,7.2999,7.2999,7.2999,7.2999,7.2999,7.2999,7.2999,7.3337,7.3876,7.3984,7.4368,7.4953,7.5614,7.6291,7.6876,7.6968,7.6999,7.6999,7.6999,7.6999,7.6999,7.6999,7.6999,7.6999,7.6999,7.7061,7.7122,7.703,7.7522,7.7998,7.7998,7.7998,7.7998,7.7998,7.8507,7.877,7.8121,7.806,7.7953,7.7368,7.7215,7.7153,7.7153,7.7061,7.6999,7.6999,7.6999,7.6999,7.6999,7.6999,7.6999,7.6999,7.7277,7.7635,7.8085,7.8358,7.8722,7.9085,7.9085,7.9085,7.9085,7.9085,7.9085,7.9085,7.9085,7.9085,7.9085,7.9085,7.9085,7.9085,7.9085,7.9085,7.9085,7.9085,7.9085,7.9085,7.9085,7.9085,7.9085,7.9085,7.9464,8.008,7.2568,7.2783,7.2999,7.2999,7.2999,7.2999,7.2999,7.2999,7.2999,7.2999,7.2999,7.2999,7.2999,7.2999,7.2999,7.2999,7.2999,7.2999,7.2999,7.2999,7.2999,7.2999,7.2999,7.2999,7.2999,7.2999,7.2999,7.2999,7.2999,7.2999,7.2999,7.2999,7.2999,7.2999,7.2999,7.2999,7.2999,7.2999,7.2999,7.303,7.3399,7.3738,7.4091,7.483,7.5292,7.5661,7.6322,7.6753,7.6999,7.6999,7.6999,7.6999,7.6999,7.6999,7.6999,7.6999,7.6999,7.6999,7.6999,7.7276,7.7461,7.7091,7.7522,7.7906,7.7522,7.7461,7.7537,7.7906,7.7953,7.783,7.7522,7.7461,7.7321,7.7061,7.6999,7.6999,7.6999,7.6999,7.6999,7.6999,7.6999,7.6999,7.6999,7.6999,7.6999,7.6999,7.7326,7.7684,7.8085,7.8405,7.877,7.9085,7.9085,7.9085,7.9085,7.9085,7.9085,7.9085,7.9085,7.9085,7.9085,7.9085,7.9085,7.9085,7.9085,7.9085,7.9085,7.9085,7.9085,7.9085,7.9085,7.9085,7.9148,7.9543,7.9859,8.0269]},{"header":{"parameterUnit":"m.s-1","parameterCategory":1,"la1":30.6,"la2":28.766,"lo1":-90.7593,"lo2":-88.6598,"dy":0.0162,"dx":0.0183,"nx":116,"ny":114,"refTime":"2023-10-27T12:00:00:Z","depth":0,"parameterNumber":3,"parameterNumberName":"V-component_of_WINDS"},"data":[0.0,0.0,0.0,0.0,0.0,0.0,0.0,0.0,0.0,0.0,0.0,0.0,0.0,0.0,0.0,0.0,0.0,0.0,0.0,0.0,0.0,0.0,0.0,0.0,0.0,0.0,0.0,0.0,0.0,0.0,0.0,0.0,0.0,0.0,0.0,0.0,0.0,0.0,0.0,0.0,0.0,0.0,0.0,0.0,0.0,0.0,0.0,0.0,0.0,0.0,0.0,0.0,0.0,0.0,0.0,0.0,0.0,0.0,0.0,0.0,0.0,0.0,0.0,0.0,0.0,0.0,0.0,0.0,0.0,0.0,0.0,0.0,0.0,0.0,0.0,0.0,0.0,0.0,0.0,0.0,0.0,0.0,0.0,0.0,0.0,0.0,0.0,0.0,0.0,0.0,0.0,0.0,0.0,0.0,0.0,0.0,0.0,0.0,0.0,0.0,0.0,0.0,0.0,0.0,0.0,0.0,0.0,0.0,0.0,0.0,0.0,0.0,0.0,0.0,0.0,0.0,0.0,0.0,0.0,0.0,0.0,0.0,0.0,0.0,0.0,0.0,0.0,0.0,0.0,0.0,0.0,0.0,0.0,0.0,0.0,0.0,0.0,0.0,0.0,0.0,0.0,0.0,0.0,0.0,0.0,0.0,0.0,0.0,0.0,0.0,0.0,0.0,0.0,0.0,0.0,0.0,0.0,0.0,0.0,0.0,0.0,0.0,0.0,0.0,0.0,0.0,0.0,0.0,0.0,0.0,0.0,0.0,0.0,0.0,0.0,0.0,0.0,0.0,0.0,0.0,0.0,0.0,0.0,0.0,0.0,0.0,0.0,0.0,0.0,0.0,0.0,0.0,0.0,0.0,0.0,0.0,0.0,0.0,0.0,0.0,0.0,0.0,0.0,0.0,0.0,0.0,0.0,0.0,0.0,0.0,0.0,0.0,0.0,0.0,0.0,0.0,0.0,0.0,0.0,0.0,0.0,0.0,0.0,0.0,0.0,0.0,0.0,0.0,0.0,0.0,0.0,0.0,0.0,0.0,0.0,0.0,0.0,0.0,0.0,0.0,0.0,0.0,0.0,0.0,0.0,0.0,0.0,0.0,0.0,0.0,0.0,0.0,0.0,0.0,0.0,0.0,0.0,0.0,0.0,0.0,0.0,0.0,0.0,0.0,0.0,0.0,0.0,0.0,0.0,0.0,0.0,0.0,0.0,0.0,0.0,0.0,0.0,0.0,0.0,0.0,0.0,0.0,0.0,0.0,0.0,0.0,0.0,0.0,0.0,0.0,0.0,0.0,0.0,0.0,0.0,0.0,0.0,0.0,0.0,0.0,0.0,0.0,0.0,0.0,0.0,0.0,0.0,0.0,0.0,0.0,0.0,0.0,0.0,0.0,0.0,0.0,0.0,0.0,0.0,0.0,0.0,0.0,0.0,0.0,0.0,0.0,0.0,0.0,0.0,0.0,0.0,0.0,0.0,0.0,0.0,0.0,0.0,0.0,0.0,0.0,0.0,0.0,0.0,0.0,0.0,0.0,0.0,0.0,0.0,0.0,0.0,0.0,0.0,0.0,0.0,0.0,0.0,0.0,0.0,0.0,0.0,0.0,0.0,0.0,0.0,0.0,0.0,0.0,0.0,0.0,0.0,0.0,0.0,0.0,0.0,0.0,0.0,0.0,0.0,0.0,0.0,0.0,0.0,0.0,0.0,0.0,0.0,0.0,0.0,0.0,0.0,0.0,0.0,0.0,0.0,0.0,0.0,0.0,0.0,0.0,0.0,0.0,0.0,0.0,0.0,0.0,0.0,0.0,0.0,0.0,0.0,0.0,0.0,0.0,0.0,0.0,0.0,0.0,0.0,0.0,0.0,0.0,0.0,0.0,0.0,0.0,0.0,0.0,0.0,0.0,0.0,0.0,0.0,0.0,0.0,0.0,0.0,0.0,0.0,0.0,0.0,0.0,0.0,0.0,0.0,0.0,0.0,0.0,0.0,0.0,0.0,0.0,0.0,0.0,0.0,0.0,0.0,0.0,0.0,0.0,0.0,0.0,0.0,0.0,0.0,0.0,0.0,0.0,0.0,0.0,0.0,0.0,0.0,0.0,0.0,0.0,0.0,0.0,0.0,0.0,0.0,0.0,0.0,0.0,0.0,0.0,0.0,0.0,0.0,0.0,0.0,0.0,0.0,0.0,0.0,0.0,0.0,0.0,0.0,0.0,0.0,0.0,0.0,0.0,0.0,0.0,0.0,0.0,0.0,0.0,0.0,0.0,0.0,0.0,0.0,0.0,0.0,0.0,0.0,0.0,0.0,0.0,0.0,0.0,0.0,0.0,0.0,0.0,0.0,0.0,0.0,0.0,0.0,0.0,0.0,0.0,0.0,0.0,0.0,0.0,0.0,0.0,0.0,0.0,0.0,0.0,0.0,0.0,0.0,0.0,0.0,0.0,0.0,0.0,0.0,0.0,0.0,0.0,0.0,0.0,0.0,0.0,0.0,0.0,0.0,0.0,0.0,0.0,0.0,0.0,0.0,0.0,0.0,0.0,0.0,0.0,0.0,0.0,0.0,0.0,0.0,0.0,0.0,0.0,0.0,0.0,0.0,0.0,0.0,0.0,0.0,0.0,0.0,0.0,0.0,0.0,0.0,0.0,0.0,0.0,0.0,0.0,0.0,0.0,0.0,0.0,0.0,0.0,0.0,0.0,0.0,0.0,0.0,0.0,0.0,0.0,0.0,0.0,0.0,0.0,0.0,0.0,0.0,0.0,0.0,0.0,0.0,0.0,0.0,0.0,0.0,0.0,0.0,0.0,0.0,0.0,0.0,0.0,0.0,0.0,0.0,0.0,0.0,0.0,0.0,0.0,0.0,0.0,0.0,0.0,0.0,0.0,0.0,0.0,0.0,0.0,0.0,0.0,0.0,0.0,0.0,0.0,0.0,0.0,0.0,0.0,0.0,0.0,0.0,0.0,0.0,0.0,0.0,0.0,0.0,0.0,0.0,0.0,0.0,0.0,0.0,0.0,0.0,0.0,0.0,0.0,0.0,0.0,0.0,0.0,0.0,0.0,0.0,0.0,0.0,0.0,0.0,0.0,0.0,0.0,0.0,0.0,0.0,0.0,0.0,0.0,0.0,0.0,0.0,0.0,0.0,0.0,0.0,0.0,0.0,0.0,0.0,0.0,0.0,0.0,0.0,0.0,0.0,0.0,0.0,0.0,0.0,0.0,0.0,0.0,0.0,0.0,0.0,0.0,0.0,0.0,0.0,0.0,0.0,0.0,0.0,0.0,0.0,0.0,0.0,0.0,0.0,0.0,0.0,0.0,0.0,0.0,0.0,0.0,0.0,0.0,0.0,0.0,0.0,0.0,0.0,0.0,0.0,0.0,0.0,0.0,0.0,0.0,0.0,0.0,0.0,0.0,0.0,0.0,0.0,0.0,0.0,0.0,0.0,0.0,0.0,0.0,0.0,0.0,0.0,0.0,0.0,0.0,0.0,0.0,0.0,0.0,0.0,0.0,0.0,0.0,0.0,0.0,0.0,0.0,0.0,0.0,0.0,0.0,0.0,0.0,0.0,0.0,0.0,0.0,0.0,0.0,0.0,0.0,0.0,0.0,0.0,0.0,0.0,0.0,0.0,0.0,0.0,0.0,0.0,0.0,0.0,0.0,0.0,0.0,0.0,0.0,0.0,0.0,0.0,0.0,0.0,0.0,0.0,0.0,0.0,0.0,0.0,0.0,0.0,0.0,0.0,0.0,0.0,0.0,0.0,0.0,0.0,0.0,0.0,0.0,0.0,0.0,0.0,0.0,0.0,0.0,0.0,0.0,0.0,0.0,0.0,0.0,0.0,0.0,0.0,0.0,0.0,0.0,0.0,0.0,0.0,0.0,0.0,0.0,0.0,0.0,0.0,0.0,0.0,0.0,0.0,0.0,0.0,0.0,0.0,0.0,0.0,0.0,0.0,0.0,0.0,0.0,0.0,0.0,0.0,0.0,0.0,0.0,0.0,0.0,0.0,0.0,0.0,0.0,0.0,0.0,0.0,0.0,0.0,0.0,0.0,0.0,0.0,0.0,0.0,0.0,0.0,0.0,0.0,0.0,0.0,0.0,0.0,0.0,0.0,0.0,0.0,0.0,0.0,0.0,0.0,0.0,0.0,0.0,0.0,0.0,0.0,0.0,0.0,0.0,0.0,0.0,0.0,0.0,0.0,0.0,0.0,0.0,0.0,0.0,0.0,0.0,0.0,0.0,0.0,0.0,0.0,0.0,0.0,0.0,0.0,0.0,0.0,0.0,0.0,0.0,0.0,0.0,0.0,0.0,0.0,0.0,0.0,0.0,0.0,0.0,0.0,0.0,0.0,0.0,0.0,0.0,0.0,0.0,0.0,0.0,0.0,0.0,0.0,0.0,0.0,0.0,0.0,0.0,0.0,0.0,0.0,0.0,0.0,0.0,0.0,0.0,0.0,0.0,0.0,0.0,0.0,0.0,0.0,0.0,0.0,0.0,0.0,0.0,0.0,0.0,0.0,0.0,0.0,0.0,0.0,0.0,0.0,0.0,0.0,0.0,0.0,0.0,0.0,0.0,0.0,0.0,0.0,0.0,0.0,0.0,0.0,0.0,0.0,0.0,0.0,0.0,0.0,0.0,0.0,0.0,0.0,0.0,0.0,0.0,0.0,0.0,0.0,0.0,0.0,0.0,0.0,0.0,0.0,0.0,0.0,0.0,0.0,0.0,0.0,0.0,0.0,0.0,0.0,0.0,0.0,0.0,0.0,0.0,0.0,0.0,0.0,0.0,0.0,0.0,0.0,0.0,0.0,0.0,0.0,0.0,0.0,0.0,0.0,0.0,0.0,0.0,0.0,0.0,0.0,0.0,0.0,0.0,0.0,0.0,0.0,0.0,0.0,0.0,0.0,0.0,0.0,0.0,0.0,0.0,0.0,0.0,0.0,0.0,0.0,0.0,0.0,0.0,0.0,0.0,0.0,0.0,0.0,0.0,0.0,0.0,0.0,0.0,0.0,0.0,0.0,0.0,0.0,0.0,0.0,0.0,0.0,0.0,0.0,0.0,0.0,0.0,0.0,0.0,0.0,0.0,0.0,0.0,0.0,0.0,0.0,0.0,0.0,0.0,0.0,0.0,0.0,0.0,0.0,0.0,0.0,0.0,0.0,0.0,0.0,0.0,0.0,0.0,0.0,0.0,0.0,0.0,0.0,0.0,0.0,0.0,0.0,0.0,0.0,0.0,0.0,0.0,0.0,0.0,0.0,0.0,0.0,0.0,0.0,0.0,0.0,0.0,0.0,0.0,0.0,0.0,0.0,0.0,0.0,0.0,0.0,0.0,0.0,0.0,0.0,0.0,0.0,0.0,0.0,0.0,0.0,0.0,0.0,0.0,0.0,0.0,0.0,0.0,0.0,0.0,0.0,0.0,0.0,0.0,0.0,0.0,0.0,0.0,0.0,0.0,0.0,0.0,0.0,0.0,0.0,0.0,0.0,0.0,0.0,0.0,0.0,0.0,0.0,0.0,0.0,0.0,0.0,0.0,0.0,0.0,0.0,0.0,0.0,0.0,0.0,0.0,0.0,0.0,0.0,0.0,0.0,0.0,0.0,0.0,0.0,0.0,0.0,0.0,0.0,0.0,0.0,0.0,0.0,0.0,0.0,0.0,0.0,0.0,0.0,0.0,0.0,0.0,0.0,0.0,0.0,0.0,0.0,0.0,0.0,0.0,0.0,0.0,0.0,0.0,0.0,0.0,0.0,0.0,0.0,0.0,0.0,0.0,0.0,0.0,0.0,0.0,0.0,0.0,0.0,0.0,0.0,0.0,0.0,0.0,0.0,0.0,0.0,0.0,0.0,0.0,0.0,0.0,0.0,0.0,0.0,0.0,0.0,0.0,0.0,0.0,0.0,0.0,0.0,0.0,0.0,0.0,0.0,0.0,0.0,0.0,0.0,0.0,0.0,0.0,0.0,0.0,0.0,0.0,0.0,0.0,0.0,0.0,0.0,0.0,0.0,0.0,0.0,0.0,0.0,0.0,0.0,0.0,0.0,0.0,0.0,0.0,0.0,0.0,0.0,0.0,0.0,0.0,0.0,0.0,2.4245,2.2528,0.0,0.0,0.0,0.0,0.0,0.0,0.0,0.0,0.0,0.0,0.0,0.0,0.0,0.0,0.0,0.0,0.0,0.0,0.0,0.0,0.0,0.0,0.0,0.0,0.0,0.0,0.0,0.0,0.0,0.0,0.0,0.0,0.0,0.0,0.0,0.0,0.0,0.0,0.0,0.0,0.0,0.0,0.0,0.0,0.0,0.0,0.0,0.0,0.0,0.0,0.0,0.0,0.0,0.0,0.0,0.0,0.0,0.0,0.0,0.0,0.0,0.0,0.0,0.0,0.0,0.0,0.0,0.0,0.0,0.0,0.0,0.0,0.0,0.0,0.0,0.0,0.0,0.0,0.0,0.0,0.0,0.0,0.0,0.0,0.0,0.0,0.0,0.0,0.0,0.0,0.0,0.0,0.0,0.0,0.0,0.0,0.0,0.0,0.0,0.0,0.0,0.0,0.0,0.0,0.0,0.0,0.0,0.0,0.0,0.0,0.0,0.0,0.0,0.0,2.6008,2.5401,0.0,0.0,0.0,0.0,0.0,0.0,0.0,0.0,0.0,0.0,0.0,0.0,0.0,0.0,0.0,0.0,0.0,0.0,0.0,0.0,0.0,0.0,0.0,0.0,0.0,0.0,0.0,0.0,0.0,0.0,0.0,0.0,0.0,0.0,0.0,0.0,0.0,0.0,0.0,0.0,0.0,0.0,0.0,0.0,0.0,0.0,0.0,0.0,0.0,0.0,0.0,0.0,0.0,0.0,0.0,0.0,0.0,0.0,0.0,0.0,0.0,0.0,0.0,0.0,0.0,0.0,0.0,0.0,0.0,0.0,0.0,0.0,0.0,0.0,0.0,0.0,0.0,0.0,0.0,0.0,0.0,0.0,0.0,0.0,0.0,0.0,0.0,0.0,0.0,0.0,0.0,0.0,0.0,0.0,0.0,0.0,0.0,0.0,0.0,0.0,0.0,0.0,0.0,0.0,0.0,0.0,0.0,0.0,2.6247,2.6558,2.6077,2.68,2.6782,2.6225,2.734,2.7973,2.8141,2.7211,0.0,0.0,0.0,0.0,0.0,0.0,0.0,0.0,0.0,0.0,0.0,0.0,0.0,0.0,0.0,0.0,0.0,0.0,0.0,0.0,0.0,0.0,0.0,0.0,0.0,0.0,0.0,0.0,0.0,0.0,0.0,0.0,0.0,0.0,0.0,0.0,0.0,0.0,1.8174,1.8137,1.8323,1.8621,0.0,0.0,0.0,0.0,0.0,0.0,0.0,0.0,0.0,0.0,0.0,0.0,0.0,0.0,0.0,0.0,0.0,0.0,0.0,0.0,0.0,0.0,0.0,0.0,0.0,0.0,0.0,0.0,0.0,0.0,0.0,0.0,0.0,0.0,0.0,0.0,0.0,0.0,0.0,0.0,0.0,0.0,0.0,0.0,2.1581,2.2693,0.0,0.0,0.0,0.0,0.0,0.0,0.0,0.0,0.0,0.0,0.0,0.0,0.0,2.4814,2.5141,2.6999,2.7791,2.7455,2.8714,2.8963,2.8284,2.8635,2.8795,2.8767,2.8144,0.0,2.7467,2.7659,0.0,0.0,0.0,0.0,0.0,0.0,0.0,0.0,0.0,0.0,0.0,0.0,0.0,0.0,0.0,0.0,0.0,0.0,0.0,0.0,0.0,0.0,0.0,0.0,0.0,0.0,0.0,0.0,0.0,0.0,0.0,0.0,0.0,0.0,0.0,0.0,1.8295,1.9342,2.0032,2.0044,2.0141,2.0267,1.952,1.8345,1.7001,1.7325,0.0,0.0,0.0,0.0,0.0,0.0,0.0,0.0,0.0,0.0,0.0,0.0,0.0,0.0,0.0,0.0,0.0,0.0,0.0,0.0,0.0,0.0,0.0,0.0,0.0,0.0,0.0,0.0,0.0,0.0,0.0,0.0,0.0,0.0,0.0,0.0,0.0,0.0,0.0,2.1944,2.321,2.4189,2.406,2.3718,0.0,0.0,0.0,0.0,0.0,0.0,0.0,0.0,0.0,2.4889,2.5891,2.6414,2.6429,2.7694,2.8353,2.8406,2.8974,2.9171,2.9029,2.9157,2.9244,2.9285,2.8863,2.8582,2.8407,2.8292,2.8093,2.7763,0.0,0.0,0.0,0.0,2.4901,2.5555,0.0,0.0,0.0,0.0,0.0,0.0,0.0,0.0,0.0,0.0,0.0,0.0,0.0,0.0,0.0,1.766,0.0,0.0,0.0,0.0,0.0,0.0,0.0,0.0,0.0,0.0,0.0,0.0,2.0676,2.173,2.1998,2.2667,2.2841,2.2583,2.2721,2.1335,1.8889,1.8994,1.8404,0.0,0.0,0.0,0.0,0.0,0.0,0.0,0.0,0.0,0.0,0.0,0.0,0.0,0.0,0.0,0.0,0.0,0.0,0.0,0.0,0.0,0.0,0.0,0.0,0.0,0.0,0.0,0.0,0.0,0.0,0.0,0.0,0.0,0.0,0.0,0.0,0.0,0.0,2.329,2.4434,2.5572,2.5365,2.4873,0.0,0.0,0.0,0.0,0.0,0.0,2.4878,2.5371,2.5888,2.6397,2.7353,2.7749,2.7549,2.8152,2.8631,2.8938,2.8938,2.9059,2.93,2.93,2.93,2.93,2.93,2.93,2.928,2.8884,2.8577,2.8353,2.7935,2.7158,2.6254,2.6145,2.637,2.6758,0.0,0.0,0.0,0.0,0.0,0.0,0.0,0.0,0.0,0.0,0.0,0.0,0.0,0.0,1.8494,1.8091,1.8806,1.8374,0.0,0.0,0.0,0.0,0.0,0.0,0.0,0.0,0.0,2.0194,2.2963,2.407,2.363,2.6138,2.6732,2.5787,2.6308,2.3971,1.9664,2.0057,1.9957,1.9541,0.0,0.0,0.0,0.0,0.0,0.0,0.0,0.0,0.0,0.0,0.0,0.0,0.0,0.0,0.0,0.0,0.0,0.0,0.0,0.0,0.0,0.0,0.0,0.0,0.0,0.0,0.0,0.0,0.0,0.0,0.0,0.0,0.0,0.0,0.0,0.0,0.0,0.0,0.0,2.6311,2.7187,0.0,0.0,0.0,0.0,2.4412,2.5402,2.6102,2.6209,2.6954,2.7598,2.8063,2.8525,2.8732,2.8716,2.9076,2.9248,2.9265,2.9265,2.9282,2.93,2.93,2.93,2.93,2.93,2.93,2.9299,2.9264,2.9442,2.9543,2.802,2.7804,2.818,2.6653,2.7073,2.8392,0.0,0.0,0.0,0.0,0.0,0.0,0.0,0.0,0.0,0.0,0.0,0.0,0.0,1.8556,1.9469,1.9447,1.9955,1.9655,1.8185,0.0,0.0,0.0,0.0,0.0,0.0,0.0,2.0508,2.1388,2.4214,2.5509,2.5346,2.7374,2.8096,2.7738,2.7946,2.7081,2.5425,2.4404,2.3599,2.2993,2.2319,2.1155,0.0,0.0,0.0,0.0,0.0,0.0,0.0,0.0,0.0,0.0,0.0,0.0,0.0,0.0,0.0,0.0,0.0,0.0,0.0,0.0,0.0,0.0,0.0,0.0,0.0,0.0,0.0,0.0,0.0,0.0,0.0,0.0,0.0,0.0,0.0,0.0,0.0,2.6486,2.6491,0.0,2.6533,2.6676,2.6551,2.6052,2.7119,2.7715,2.7534,2.8051,2.8399,2.8579,2.9195,2.9521,2.9521,2.983,3.0018,3.0018,3.0018,3.0018,3.0018,3.0018,3.0018,3.0018,3.0018,3.0018,3.0018,3.0018,2.9811,2.9411,2.8845,2.8771,2.8952,2.8367,2.8521,2.9004,0.0,0.0,0.0,0.0,0.0,0.0,0.0,0.0,0.0,0.0,0.0,1.7661,1.8345,1.9601,2.0404,2.0403,2.0688,2.0229,1.8715,0.0,0.0,0.0,0.0,0.0,0.0,2.1242,2.2877,2.4249,2.7013,2.836,2.8406,3.0378,3.1093,3.0775,3.0952,3.094,3.0662,2.9271,2.783,2.6375,2.5372,2.3821,2.2024,0.0,0.0,0.0,0.0,0.0,0.0,0.0,0.0,0.0,0.0,0.0,0.0,0.0,0.0,0.0,0.0,0.0,0.0,0.0,0.0,0.0,0.0,0.0,0.0,0.0,0.0,0.0,0.0,0.0,0.0,0.0,0.0,0.0,0.0,2.4312,2.5518,2.6616,2.6672,2.6784,2.7191,2.7352,2.7411,2.734,2.8295,2.8819,2.8579,2.9059,2.9333,2.9333,2.9813,3.0121,3.0275,3.0498,3.0669,3.0789,3.0789,3.0789,3.0789,3.0789,3.06,3.0258,3.0652,3.06,3.0258,3.0652,3.0515,3.0052,2.9779,2.9676,2.9676,2.9676,2.9676,2.9676,0.0,0.0,0.0,0.0,0.0,0.0,0.0,0.0,0.0,0.0,1.7641,1.885,2.0039,2.0887,2.1212,2.0833,2.09,2.0011,1.7696,1.7519,0.0,0.0,0.0,0.0,2.2615,2.4153,2.6187,2.8788,3.1374,3.2635,3.2688,3.522,3.5862,3.4879,3.5398,3.5348,3.4805,3.4299,3.239,2.9636,2.8642,2.7152,2.542,0.0,0.0,0.0,0.0,0.0,0.0,0.0,0.0,0.0,0.0,0.0,0.0,0.0,0.0,0.0,0.0,0.0,0.0,0.0,0.0,0.0,0.0,0.0,0.0,0.0,0.0,0.0,0.0,0.0,0.0,0.0,0.0,0.0,2.3738,2.4858,2.5936,2.6724,2.7871,2.8456,2.8149,2.8484,2.8584,2.8286,2.8922,2.9334,2.9351,3.0001,3.0361,3.0378,3.0395,3.0583,3.0994,3.1028,3.1251,3.1646,3.1646,3.1629,3.1629,3.1629,3.1029,3.0052,3.1149,3.1011,3.0069,3.1183,3.1629,3.1543,3.0737,3.0446,3.0446,3.0446,3.0446,3.0429,0.0,0.0,0.0,0.0,0.0,0.0,0.0,0.0,0.0,0.0,1.7506,1.8798,1.9284,2.0302,2.0903,2.0737,2.0496,1.9885,1.8801,0.0,0.0,0.0,0.0,0.0,2.4922,2.658,2.8474,3.0649,3.2599,3.3539,3.3582,3.55,3.6245,3.5977,3.6094,3.6098,3.5942,3.5799,3.5271,3.4307,3.2096,3.0372,2.8877,0.0,0.0,0.0,0.0,0.0,0.0,0.0,0.0,0.0,0.0,0.0,0.0,0.0,0.0,0.0,0.0,0.0,0.0,0.0,0.0,0.0,0.0,0.0,0.0,0.0,0.0,0.0,0.0,0.0,0.0,0.0,2.4545,2.5485,2.5519,2.6109,2.683,2.7644,2.8074,2.8387,2.8584,2.8931,2.9225,2.9418,2.9847,3.0224,3.0515,2.9933,2.9727,3.0035,3.0275,3.0583,3.0994,3.1816,3.2434,3.2829,3.2536,3.2399,3.2399,3.2399,3.2228,3.1954,3.2262,3.2211,3.1954,3.2262,3.2399,3.2314,3.156,3.1268,3.1268,3.1268,3.1268,3.1149,0.0,0.0,0.0,0.0,0.0,0.0,0.0,0.0,0.0,0.0,1.7679,1.8936,1.9454,2.0332,2.0826,2.0716,2.0534,2.0002,1.9012,0.0,0.0,0.0,0.0,2.4461,2.7832,2.925,3.1116,3.3487,3.4692,3.5409,3.5643,3.6608,3.706,3.706,3.706,3.706,3.7073,3.6819,3.6747,3.6576,3.48,3.3099,3.1398,2.8757,2.6669,2.4932,2.3101,2.1757,2.0846,2.0684,0.0,0.0,0.0,0.0,0.0,0.0,0.0,0.0,0.0,0.0,0.0,0.0,0.0,0.0,0.0,0.0,0.0,0.0,0.0,0.0,0.0,0.0,0.0,0.0,2.558,2.6599,2.7193,2.7386,2.7693,2.8313,2.8537,2.8819,2.9213,2.9556,2.9933,3.0343,3.0703,3.1219,3.1931,3.1167,3.0874,3.1223,3.1323,3.1599,3.2121,3.3014,3.3801,3.452,3.4273,3.4238,3.4415,3.4415,3.4257,3.4011,3.4116,3.3897,3.3461,3.3611,3.3564,3.3324,0.0,0.0,0.0,0.0,3.2075,3.1972,0.0,0.0,0.0,0.0,0.0,0.0,0.0,0.0,0.0,0.0,0.0,1.9168,2.0101,2.0679,2.0918,2.0722,2.0703,2.0132,0.0,0.0,0.0,2.3062,2.4056,2.6587,3.0962,3.1987,3.3839,3.6583,3.7055,3.753,3.7987,3.7987,3.7987,3.7987,3.7987,3.7987,3.7963,3.7506,3.7289,3.7241,3.6699,3.5304,3.323,3.0265,2.8088,2.6373,2.4408,2.2985,2.2065,2.2346,0.0,0.0,0.0,0.0,0.0,0.0,0.0,0.0,0.0,0.0,0.0,0.0,0.0,0.0,0.0,0.0,0.0,0.0,0.0,0.0,0.0,0.0,0.0,0.0,2.6447,2.7345,2.8664,2.871,2.8657,2.8818,2.9196,2.964,3.0169,3.0513,3.0892,3.1409,3.1789,3.2437,3.35,3.3119,0.0,0.0,0.0,3.3301,3.3913,3.4522,3.5369,3.6402,3.6366,3.6531,3.688,3.688,3.655,3.5999,3.6249,3.5725,3.4724,3.5002,3.4859,3.437,3.3237,3.2809,3.281,3.2691,3.2725,3.281,0.0,0.0,0.0,0.0,0.0,0.0,0.0,0.0,0.0,1.6755,1.8113,1.9269,2.0111,2.0679,2.0918,2.0722,1.9978,1.9515,0.0,0.0,2.1159,2.4914,2.6416,2.9082,3.3197,3.4367,3.5822,3.7697,3.779,3.7891,3.7987,3.7987,3.7987,3.7987,3.7987,3.7987,3.7987,3.7891,3.7843,3.7795,3.7252,3.629,3.4867,3.2177,3.0643,2.9697,2.7583,2.641,2.583,2.5786,2.5008,2.409,2.443,0.0,0.0,0.0,0.0,0.0,0.0,0.0,0.0,0.0,0.0,0.0,0.0,0.0,0.0,0.0,0.0,0.0,0.0,0.0,0.0,2.6932,2.8292,2.923,2.9213,3.0205,3.051,2.933,2.9779,3.0719,3.2103,3.2296,3.2877,3.4214,3.4377,3.463,3.5121,3.4248,3.3898,3.4217,3.4554,3.492,3.5301,3.6382,3.7188,3.7726,3.7395,0.0,3.7359,3.7359,3.7305,3.7176,3.7224,3.6709,3.5877,3.5934,3.5539,3.4798,3.392,3.3595,3.3493,3.2568,3.2808,3.3475,0.0,0.0,0.0,0.0,0.0,0.0,0.0,0.0,0.0,0.0,1.7289,1.8352,1.9304,1.9666,1.9798,1.9657,1.9189,0.0,0.0,2.2143,2.3908,2.7289,2.9088,3.1372,3.4282,3.5371,3.6584,3.7987,3.7987,3.7987,3.7987,3.7987,3.7987,3.7987,3.7987,3.7987,3.7987,3.7987,3.7987,3.7976,3.7698,3.7108,3.6137,3.3765,3.2688,3.2139,2.9684,2.8476,2.7936,2.7453,2.6678,2.5958,2.622,2.5686,2.4726,0.0,0.0,0.0,0.0,0.0,0.0,0.0,0.0,0.0,0.0,0.0,0.0,0.0,0.0,2.4666,2.5247,0.0,2.6888,2.8404,2.934,3.0299,3.144,3.2276,3.2332,3.1194,3.1697,3.2625,3.3836,3.3944,3.434,3.5283,3.6077,3.6821,3.7548,3.6932,3.6689,3.6984,3.6579,3.6882,3.7996,3.8863,3.9996,4.1338,4.0373,4.0016,4.0174,3.9357,3.9126,3.9335,3.889,3.8211,3.7334,3.6276,3.5853,3.5798,3.4779,3.4282,3.4006,3.3234,3.3303,3.3713,0.0,0.0,0.0,0.0,0.0,0.0,0.0,0.0,0.0,0.0,1.6522,1.7419,1.8396,1.8552,1.8504,0.0,0.0,0.0,0.0,2.4581,2.6655,2.9463,3.143,3.3281,3.508,3.6074,3.7016,3.7987,3.7987,3.7987,3.7987,3.7987,3.7987,3.7987,3.7987,3.7987,3.7987,3.7987,3.7987,3.7987,3.7987,3.7746,3.7174,3.5312,3.4431,3.382,3.124,3.0034,2.9547,2.8764,2.812,2.7662,2.7669,2.7747,2.7423,2.5377,2.5579,0.0,0.0,0.0,0.0,0.0,0.0,0.0,0.0,0.0,2.5513,2.5087,2.5475,2.5952,2.6177,2.6727,2.7819,2.9797,3.0361,3.1296,3.3389,3.4308,3.4594,3.4075,3.4334,3.4785,3.5368,3.5961,3.6399,3.6598,3.8115,3.9459,4.0364,4.0266,4.0257,4.048,3.9547,3.9729,4.1256,4.1777,4.2984,4.4844,4.3595,4.3162,4.3443,4.2149,4.1569,4.1579,4.0411,3.949,3.8703,3.6854,3.6531,3.7048,3.6009,3.529,3.4788,3.4235,3.4021,3.4021,0.0,0.0,0.0,0.0,0.0,0.0,0.0,0.0,0.0,0.0,0.0,0.0,0.0,0.0,0.0,0.0,0.0,0.0,2.1495,2.462,2.7686,3.0506,3.259,3.4501,3.617,3.7274,3.7854,3.7987,3.7987,3.7987,3.7987,3.7987,3.7987,3.7987,3.7987,3.7987,3.7987,3.7987,3.7987,3.7987,3.7987,3.7963,3.7829,3.7111,3.5952,3.4448,3.2479,3.1733,3.1559,3.0822,3.0325,2.9872,2.8943,2.8648,2.8236,2.6045,0.0,2.5609,2.3529,2.2815,2.2841,2.3678,2.4657,2.5442,0.0,0.0,2.8053,2.7312,2.7816,2.8679,2.9641,2.9641,2.9829,3.0737,3.2036,3.2931,3.2911,3.5784,3.801,3.8356,3.7512,3.6841,3.6627,3.903,4.0494,4.0231,4.2032,4.3211,4.3307,4.3745,4.399,4.4038,4.4289,4.4533,4.4747,4.5143,4.5503,4.5762,4.5577,4.5527,4.5571,4.5385,4.4527,4.3115,4.088,3.9843,3.9686,3.8665,3.8292,3.8373,3.7912,3.726,3.6387,3.5277,3.4866,3.4866,0.0,0.0,0.0,0.0,0.0,0.0,0.0,0.0,0.0,0.0,0.0,0.0,0.0,0.0,0.0,0.0,0.0,0.0,2.2476,2.5493,2.8566,3.1653,3.379,3.5366,3.6374,3.7145,3.7698,3.7987,3.7987,3.7987,3.7987,3.7987,3.7987,3.7987,3.7987,3.7987,3.7987,3.7987,3.7987,3.7987,3.7987,3.7987,3.7976,3.7746,3.7244,3.6208,3.273,3.1013,0.0,0.0,2.9059,2.9082,2.9213,2.8709,2.7872,2.6938,2.5914,0.0,2.4292,2.4485,2.4969,2.5433,2.6583,2.7553,2.7418,2.823,2.8908,2.8613,2.902,2.9705,3.0587,3.102,3.1712,3.3106,3.4627,3.5975,3.6973,3.9198,4.0892,4.1323,4.1156,4.0516,3.9192,4.131,4.2301,4.1288,4.3933,4.5585,4.5585,4.6046,4.6298,4.6298,4.6187,4.6566,4.751,4.7983,4.87,4.9609,4.87,4.8231,4.8194,4.7276,4.6461,4.5681,4.3191,4.2388,4.2703,4.0324,3.9661,4.0044,3.9414,3.8616,3.7667,3.623,3.5396,3.5004,0.0,0.0,0.0,0.0,0.0,0.0,0.0,0.0,0.0,0.0,0.0,0.0,0.0,0.0,0.0,0.0,0.0,0.0,0.0,2.6161,2.9131,3.2166,3.4286,3.5629,3.6157,3.6843,3.7386,3.777,3.7915,3.7987,3.7987,3.7987,3.7987,3.7987,3.7987,3.7987,3.7987,3.7987,3.7987,3.7987,3.7987,3.7987,3.7987,3.7987,3.7355,3.6045,3.2677,3.0855,0.0,0.0,2.7708,2.8186,2.8375,2.8051,2.7454,2.6811,2.5288,2.3989,2.4757,2.5513,0.0,2.6971,2.8125,2.9037,2.878,2.9213,2.9631,2.9501,3.0031,3.0731,3.1498,3.2195,3.3316,3.532,3.685,3.8432,4.025,4.2063,4.3202,4.3206,4.3849,4.3447,4.1264,4.3225,4.4154,4.3063,4.5926,4.772,4.772,4.8261,4.8597,4.8597,4.8373,4.8787,4.9978,5.0369,5.1152,5.2283,5.1134,5.055,5.0518,4.8918,4.8158,4.8044,4.5733,4.4858,4.48,4.2343,4.1397,4.1456,4.0829,3.9913,3.8784,3.762,3.6597,3.5822,0.0,0.0,0.0,0.0,0.0,0.0,0.0,0.0,0.0,0.0,0.0,0.0,0.0,0.0,0.0,0.0,0.0,0.0,0.0,2.6255,2.9339,3.171,3.3753,3.5063,3.5616,3.6651,3.7217,3.7204,3.7746,3.7987,3.7987,3.7987,3.7987,3.7987,3.7987,3.7987,3.7987,3.7987,3.7987,3.7987,3.7987,3.7987,3.7987,3.7987,3.5788,3.2641,3.251,0.0,0.0,0.0,2.7259,2.7973,2.611,2.6566,0.0,2.507,2.3433,2.2745,2.4451,2.4688,2.4996,2.7222,2.8439,2.9051,2.8852,2.9856,3.0661,3.0031,3.1041,3.2276,3.3092,3.3582,3.4593,3.6852,3.8259,3.9581,4.1063,4.3546,4.482,4.3791,4.4959,4.4806,4.2199,4.4774,4.6656,4.6726,4.8636,4.9795,4.9795,5.0811,5.1387,5.1387,5.188,5.2168,5.2204,5.2204,5.2265,5.2301,5.2265,5.2228,5.2168,5.055,4.9843,4.9726,4.8101,4.6472,4.4996,4.4879,4.3855,4.2362,4.2322,4.1295,3.9752,3.9697,3.8881,3.7891,0.0,0.0,0.0,0.0,0.0,0.0,0.0,0.0,0.0,0.0,0.0,0.0,0.0,0.0,0.0,0.0,1.7267,1.9202,0.0,2.502,2.811,3.0633,3.3018,3.4703,3.5568,3.5941,3.6483,3.7217,3.7386,3.765,3.7987,3.7987,3.7987,3.7987,3.7987,3.7987,3.7987,3.7987,3.7987,3.7987,3.7987,3.7987,3.7814,3.6176,3.462,3.2876,0.0,0.0,0.0,2.534,2.5059,2.5359,2.5691,2.5473,2.4671,2.2598,2.2816,2.3885,2.4487,2.5662,2.7,2.8122,2.9718,3.0767,2.9765,3.0657,3.1575,3.1116,3.0921,3.1154,3.2177,3.3268,3.4786,3.7117,3.891,4.0945,4.3567,4.4021,4.4759,4.6544,4.5939,4.587,4.7121,4.7249,4.6819,4.5779,4.8971,5.0954,5.0954,5.1652,5.2037,5.2037,5.2542,5.2849,5.2849,5.3125,5.3293,5.3293,5.3654,5.4015,5.4351,5.3814,5.3542,5.3465,5.1818,5.076,5.0169,4.9038,4.8238,4.7592,4.6393,4.5181,4.4001,4.3119,4.2913,4.2576,0.0,0.0,0.0,0.0,0.0,0.0,0.0,0.0,0.0,0.0,0.0,0.0,0.0,0.0,0.0,0.0,0.0,1.8405,0.0,0.0,2.6256,2.9049,3.1007,3.2444,3.3321,3.409,3.4907,3.5822,3.6555,3.718,3.7698,3.7698,3.7698,3.7722,3.7915,3.7987,3.7987,3.7987,3.7987,3.7939,3.7372,3.6963,3.6424,3.4109,3.2315,0.0,0.0,0.0,0.0,2.3369,2.3422,2.3686,2.4328,2.3721,2.2763,2.2788,2.3369,2.4346,2.5897,2.7444,2.8889,2.9961,3.1545,3.2454,3.1001,3.1829,3.2721,3.2158,3.2061,3.217,3.2452,3.3947,3.5845,3.8037,4.0066,4.2524,4.5895,4.587,4.6126,4.781,4.6783,4.6687,4.8572,4.8356,4.7642,4.6615,4.9253,5.093,5.093,5.1435,5.1989,5.2566,5.3264,5.3624,5.3624,5.4135,5.4356,5.4399,5.4736,5.5073,5.5385,5.5385,5.5097,5.4554,5.4013,5.3139,5.1989,5.1508,5.0948,5.026,4.9117,4.8087,4.7153,4.6316,4.615,4.5844,0.0,0.0,0.0,0.0,0.0,0.0,0.0,0.0,0.0,0.0,0.0,0.0,0.0,0.0,0.0,0.0,0.0,0.0,0.0,0.0,0.0,2.7055,2.8021,2.8753,2.934,3.1336,3.2646,3.3127,3.516,3.6411,3.6928,3.6964,3.7001,3.7025,3.753,3.7746,3.7746,3.7746,3.7746,3.7578,3.5999,3.4878,3.3872,3.1795,0.0,0.0,0.0,0.0,0.0,2.1989,2.2512,2.3127,2.2365,2.1716,2.1913,2.5383,2.4936,2.4245,2.8469,2.9829,3.0537,3.2522,3.369,3.3955,3.2493,3.3297,3.4054,3.301,3.4135,3.4916,0.0,3.5256,3.7408,3.9411,4.1449,4.4038,4.7674,4.8596,4.8548,4.7617,0.0,0.0,0.0,4.838,4.927,4.9198,4.9744,5.0057,5.0057,5.0617,5.1586,5.3138,5.4135,5.464,5.464,5.5145,5.5409,5.5433,5.5433,5.5458,5.5482,5.5482,5.4664,5.3384,5.4851,5.3711,5.0952,5.2477,5.2161,5.0733,5.0632,5.006,4.926,4.9178,4.8664,4.79,0.0,0.0,0.0,0.0,0.0,0.0,0.0,0.0,0.0,0.0,0.0,0.0,0.0,0.0,0.0,0.0,0.0,0.0,1.909,0.0,0.0,0.0,0.0,0.0,0.0,0.0,0.0,3.0914,3.2248,3.2982,3.3126,3.3921,3.4282,3.4306,3.4426,3.4499,3.4499,3.4499,3.4282,3.3814,0.0,3.202,3.1159,0.0,0.0,0.0,0.0,0.0,0.0,0.0,2.3098,2.4112,2.4976,2.4234,2.3467,2.5678,2.6353,2.6868,2.9068,3.0941,3.2429,3.2998,3.4143,3.4734,3.3261,3.4099,3.4719,3.308,3.2692,3.2433,3.1669,3.2646,3.4754,3.8384,4.0141,4.2317,4.599,4.6279,4.6471,4.7401,0.0,4.9102,5.0167,5.1363,5.158,5.0383,5.1531,5.2295,5.2295,5.3125,5.3798,5.4207,5.4856,5.5193,5.5193,5.5337,5.5602,5.5991,5.5991,5.6207,5.6592,5.6592,5.6395,5.6035,5.6424,5.6115,5.5383,5.5787,5.5691,5.5192,5.3835,5.3162,5.2792,5.1496,5.1516,5.2135,0.0,0.0,0.0,0.0,0.0,0.0,0.0,0.0,0.0,0.0,0.0,0.0,0.0,0.0,0.0,0.0,0.0,0.0,0.0,0.0,0.0,0.0,0.0,0.0,0.0,0.0,0.0,0.0,0.0,0.0,3.1706,3.208,3.2248,3.2273,3.2489,3.2609,3.2609,3.2609,0.0,0.0,0.0,0.0,0.0,0.0,0.0,0.0,0.0,0.0,0.0,0.0,0.0,2.459,2.6136,2.5624,2.501,2.7879,2.8623,2.8934,3.0874,3.2515,3.3641,3.3674,3.4683,3.5167,3.3234,3.3704,3.3994,3.187,3.1695,3.1609,3.0548,3.1899,3.4334,3.7844,4.0333,4.2847,4.5822,4.6807,4.7449,0.0,4.8933,0.0,5.2013,5.2753,5.2806,5.2096,5.2277,5.2494,5.2734,5.3288,5.4015,5.4928,5.5462,5.5847,5.6107,5.6107,5.6256,5.6568,5.6568,5.6712,5.7001,5.7001,5.6616,5.5991,5.6688,5.6592,5.5991,5.6712,5.7001,5.6881,5.5691,5.5203,5.5082,5.3897,5.3918,5.4574,0.0,0.0,0.0,0.0,0.0,0.0,0.0,0.0,0.0,0.0,0.0,0.0,0.0,0.0,0.0,0.0,0.0,0.0,0.0,0.0,0.0,0.0,0.0,0.0,0.0,2.6388,0.0,0.0,0.0,0.0,0.0,0.0,0.0,0.0,0.0,0.0,0.0,0.0,0.0,0.0,0.0,0.0,0.0,0.0,0.0,0.0,0.0,0.0,0.0,0.0,2.6033,2.5053,2.6753,2.6634,2.6597,3.0431,3.0885,3.062,3.2666,3.3815,3.4379,3.4148,3.5101,3.55,3.3239,3.313,3.2852,3.0609,3.1056,3.1553,3.0491,3.2475,3.5204,3.7957,4.1261,4.4041,4.5645,4.8019,4.9359,4.8741,4.9342,5.0659,5.2897,5.2921,5.3095,5.3851,5.2668,5.2091,5.259,5.2758,5.3697,5.5554,5.6063,5.6544,5.7001,5.7001,5.7001,5.7001,5.7001,5.7049,5.7097,5.7097,5.6376,5.5217,5.6592,5.6424,5.5222,5.6581,5.7137,5.7077,5.6676,5.6515,5.6455,5.6044,5.5862,5.5822,0.0,0.0,0.0,0.0,0.0,0.0,0.0,0.0,0.0,0.0,1.3619,1.4311,0.0,0.0,0.0,0.0,0.0,0.0,0.0,0.0,0.0,0.0,0.0,0.0,2.4463,2.5306,2.5772,2.5868,2.7012,0.0,0.0,0.0,0.0,0.0,0.0,0.0,0.0,0.0,0.0,0.0,0.0,0.0,0.0,0.0,0.0,0.0,0.0,0.0,0.0,0.0,2.6228,2.6524,2.8715,2.8844,2.8487,2.9898,3.118,3.1993,3.1435,3.3211,3.4845,3.3355,3.4799,3.6275,3.5192,3.445,0.0,3.2225,3.0971,3.07,3.2522,3.3873,3.5863,3.9418,4.1662,4.2597,4.1629,4.5188,4.7545,0.0,4.8098,5.0274,5.2849,5.1892,5.2043,5.4284,5.4207,5.4111,5.4207,5.5029,5.5895,5.6688,5.6808,5.6905,5.7001,5.7001,5.7001,5.7001,5.7001,5.7217,5.765,5.765,5.7766,5.7935,5.8199,5.8175,5.7914,5.7792,5.7724,5.7683,5.7231,5.7067,5.7046,5.6984,5.6736,5.6426,0.0,0.0,0.0,0.0,0.0,0.0,0.0,1.088,1.155,1.18,1.2415,1.3109,1.3753,1.403,1.4189,0.0,0.0,0.0,0.0,0.0,0.0,0.0,0.0,0.0,2.3674,2.4772,2.5444,2.5709,0.0,2.6484,2.6532,2.7022,2.7262,2.7272,2.7087,2.6859,0.0,0.0,0.0,0.0,0.0,0.0,0.0,0.0,0.0,0.0,0.0,0.0,0.0,0.0,2.462,2.5305,2.8233,2.9241,2.9267,2.9028,3.054,3.1989,3.064,3.2506,3.4493,3.3065,3.4719,3.5962,3.3163,0.0,0.0,2.882,2.8126,2.843,2.9689,3.1248,3.4018,3.9152,4.1331,4.2774,4.3938,4.6776,4.8572,4.8026,4.9133,5.0545,5.2109,5.1562,5.1754,5.3293,5.3673,5.4279,5.5366,5.6183,5.6736,5.7001,5.7001,5.7001,5.7001,5.7265,5.7409,5.7409,5.7718,5.7983,5.8223,5.8223,5.8367,5.8608,5.8608,5.8005,5.7084,5.7676,5.7309,5.6422,5.6752,5.6893,5.6872,5.6599,5.6413,5.6246,0.0,0.0,0.0,0.0,0.0,0.0,0.0,0.9875,1.0447,1.1123,1.1424,1.2001,1.3144,1.3708,1.3985,0.0,0.0,0.0,0.0,0.0,0.0,0.0,0.0,0.0,0.0,0.0,0.0,2.5584,2.5594,0.0,0.0,0.0,0.0,0.0,2.5845,2.5464,2.5198,2.4107,0.0,0.0,0.0,2.211,0.0,0.0,0.0,0.0,0.0,0.0,0.0,0.0,2.2732,2.3304,2.6445,2.8177,2.8909,2.8188,2.9786,3.15,3.027,3.2023,3.3925,3.2752,3.4428,3.525,3.104,3.0367,2.9531,2.558,2.5548,2.6487,2.7315,2.9201,3.2687,3.8922,4.0513,4.2293,4.6102,4.7827,4.8957,4.9648,5.0208,5.096,5.2043,5.1754,5.1946,5.3053,5.3624,5.464,5.6284,5.6784,5.7001,5.7001,5.7121,5.7169,5.7169,5.7698,5.7983,5.7983,5.8392,5.8656,5.8752,5.8752,5.8783,5.8777,5.8777,5.7594,5.5763,5.7325,5.6792,5.5151,5.634,5.6802,5.676,5.6379,5.6232,5.6232,0.0,0.0,0.0,0.0,0.0,0.0,0.0,0.9275,0.9761,1.0245,1.1173,1.2047,1.2778,1.2956,1.3186,0.0,0.0,0.0,0.0,0.0,0.0,0.0,0.0,0.0,0.0,0.0,0.0,2.392,2.3981,0.0,0.0,0.0,0.0,0.0,0.0,2.5051,2.4222,2.3977,0.0,0.0,0.0,0.0,0.0,0.0,0.0,0.0,0.0,1.9866,1.9235,0.0,0.0,2.1614,2.3395,2.5179,2.6795,2.7655,2.9421,3.0971,3.0477,3.206,3.3502,3.207,3.3447,3.442,3.1623,0.0,2.9076,2.6475,2.5606,2.6333,2.97,3.1447,3.4289,4.012,3.9142,3.9104,4.3289,4.4412,4.5902,4.8837,4.9648,5.1122,5.4039,5.2596,5.2716,5.563,5.6328,5.6712,5.6929,5.6977,5.7001,5.7001,5.7458,5.7742,5.7742,5.8271,5.8536,5.8536,5.8584,5.8848,5.9326,5.9326,5.9362,5.9415,5.9415,5.8044,5.589,5.7455,5.6894,5.5248,5.6806,5.7418,5.7396,5.7353,5.7353,5.7353,0.0,0.0,0.0,0.0,0.0,0.0,0.8067,0.8625,0.9316,0.9987,1.0448,1.112,1.2145,1.2433,1.2947,1.3935,0.0,0.0,0.0,0.0,0.0,0.0,0.0,0.0,0.0,0.0,2.2302,2.2746,2.3135,0.0,0.0,0.0,0.0,0.0,0.0,2.3997,2.3851,2.2746,0.0,0.0,0.0,0.0,0.0,0.0,0.0,0.0,0.0,0.0,1.8503,1.9537,1.9785,0.0,2.0984,2.2079,0.0,0.0,2.7155,2.9188,2.8574,3.0542,3.2591,3.1807,3.3127,3.3606,2.9685,0.0,2.7961,2.4571,2.3904,2.4725,2.7336,2.8422,3.0868,3.6857,3.6662,3.7912,4.4091,4.5413,4.7048,5.0617,5.1501,5.2181,5.3143,5.247,5.274,5.4621,5.4957,5.563,5.6929,5.7001,5.7145,5.7458,5.7694,5.7959,5.8271,5.88,5.9065,5.911,5.9422,5.9517,5.9458,5.9458,5.9304,5.9073,5.9073,5.7143,5.4207,5.6945,5.6225,5.362,5.6406,5.7491,5.7491,5.7491,5.7491,5.7491,0.0,0.0,0.0,0.0,0.0,0.8134,0.7965,0.8365,0.901,0.9931,1.0022,1.0498,1.1779,1.2273,1.2918,1.3938,1.4124,0.0,0.0,0.0,0.0,0.0,0.0,0.0,0.0,0.0,2.0799,2.109,2.1775,2.2507,0.0,0.0,2.3508,2.3912,0.0,0.0,0.0,0.0,0.0,0.0,0.0,0.0,0.0,0.0,0.0,0.0,0.0,0.0,0.0,0.0,0.0,0.0,0.0,0.0,0.0,0.0,2.5402,2.7608,2.7463,2.9553,3.1756,3.1632,3.2245,3.1832,2.7815,0.0,2.6177,2.2522,2.2701,2.3955,2.5418,2.6357,2.8816,3.4641,3.528,3.725,4.361,4.5221,4.704,5.0473,5.1628,5.244,5.3143,5.3485,5.3991,5.4693,5.4741,5.5486,5.7145,5.7241,5.7409,5.777,5.8103,5.8464,5.8824,5.9374,5.9576,5.9431,5.9811,5.9437,5.8424,5.9022,5.8721,5.7738,5.8326,5.6576,5.3518,5.6647,5.5925,5.3173,5.6297,5.7491,5.7491,5.7491,5.7491,5.7491,0.0,0.0,0.0,0.0,0.0,0.0,0.8877,0.866,0.8837,1.0043,1.0084,1.0514,1.1845,1.2584,1.3106,1.3379,1.3711,0.0,0.0,0.0,0.0,0.0,0.0,0.0,0.0,0.0,0.0,1.8738,1.9615,2.0448,2.1236,2.1242,2.14,2.1734,0.0,0.0,0.0,0.0,0.0,0.0,0.0,0.0,0.0,0.0,0.0,0.0,0.0,0.0,0.0,0.0,0.0,0.0,0.0,1.8524,1.9581,0.0,2.4732,2.6593,2.7852,2.9573,3.1097,3.1509,3.0463,2.8751,2.6427,2.5138,2.3657,2.0899,2.253,2.4634,2.5124,2.6673,2.9579,3.4762,3.5604,3.6903,4.073,4.2567,4.4524,4.7233,4.8957,5.1363,5.5001,5.6328,5.6953,5.6977,5.6977,5.7217,5.7766,5.777,5.777,5.7814,5.8824,5.9398,5.9398,5.9928,5.9961,5.9494,5.9494,5.8216,5.5913,5.7901,5.7483,5.5248,5.723,5.6676,5.4554,5.6641,5.6274,5.46,5.6687,5.7491,5.7491,5.7491,5.7491,5.7491,0.0,0.0,0.0,0.0,0.0,0.0,0.0,0.8482,0.9067,1.019,1.0456,1.0902,1.1832,1.2496,1.2944,1.3184,1.378,0.0,0.0,0.0,0.0,0.0,0.0,0.0,0.0,0.0,0.0,0.0,0.0,1.9894,2.0577,2.0541,2.0607,2.0733,2.0455,2.0152,0.0,0.0,0.0,0.0,0.0,0.0,1.9452,0.0,0.0,0.0,0.0,0.0,0.0,0.0,0.0,0.0,0.0,0.0,0.0,1.9883,2.169,2.3401,2.4599,2.5821,2.6921,2.7554,2.7158,2.6111,2.4103,2.341,2.2541,2.0337,2.1069,2.284,2.5297,2.5883,2.8226,3.5033,3.5532,3.7226,4.3538,4.5461,4.7353,5.0425,5.2494,5.413,5.5289,5.5029,5.5414,5.6881,5.563,5.5679,5.7694,5.7846,5.8184,5.8872,5.9209,5.9421,5.9467,5.9634,5.9497,5.9009,5.9009,5.7716,5.5381,5.7395,5.6977,5.4735,5.6786,5.6425,5.4556,5.662,5.6297,5.4623,5.6687,5.7491,5.7491,5.7491,5.7491,5.7491,0.0,0.0,0.0,0.0,0.0,0.0,0.0,0.8527,0.9185,1.0263,1.0548,1.097,1.1817,1.2433,1.2881,1.3084,1.3769,0.0,0.0,0.0,0.0,0.0,0.0,0.0,0.0,0.0,0.0,0.0,0.0,0.0,0.0,0.0,2.0115,2.0103,1.9759,1.9495,0.0,0.0,0.0,0.0,0.0,0.0,1.8843,0.0,0.0,0.0,0.0,0.0,0.0,0.0,0.0,0.0,0.0,0.0,0.0,0.0,1.9508,2.0761,2.2145,2.3484,2.4621,2.5124,2.4679,2.3777,2.244,2.1823,2.1125,1.9784,2.1737,2.399,2.4949,2.6591,2.9094,3.3114,3.5373,3.796,4.1783,4.462,4.7336,5.0143,5.2879,5.4924,5.5914,5.539,5.5558,5.6905,5.5751,5.5836,5.7739,5.7884,5.8302,5.9165,5.9168,5.9185,5.9243,5.9243,5.8988,5.8543,5.8543,5.7234,5.4913,5.6952,5.6598,5.4531,5.6618,5.6779,0.0,5.6986,5.6756,5.5702,5.6987,5.7491,5.7491,5.7491,5.7491,5.7491,0.0,0.0,0.0,0.0,0.0,0.0,0.0,0.8705,0.9185,1.0263,1.041,1.0792,1.18,1.2429,1.2859,1.3079,0.0,0.0,0.0,0.0,0.0,0.0,0.0,0.0,0.0,0.0,0.0,1.6863,1.7297,1.7914,1.8719,0.0,0.0,1.9704,1.9394,1.9221,0.0,0.0,0.0,0.0,0.0,0.0,0.0,0.0,0.0,0.0,0.0,0.0,0.0,0.0,0.0,0.0,0.0,0.0,0.0,0.0,0.0,0.0,0.0,2.2172,2.3635,2.3794,2.2796,2.1662,0.0,0.0,0.0,1.9464,2.3918,2.7053,2.4471,2.8518,3.175,3.0118,3.5378,3.9032,3.7228,4.1432,4.5421,4.7377,5.0954,5.4178,5.6544,5.6865,5.6961,5.6961,5.6985,5.7264,5.7839,5.7889,5.818,5.8731,5.8735,5.8735,5.8756,5.8756,5.8428,5.784,5.7979,5.6701,5.4258,5.6482,5.6389,5.4531,5.6618,5.7491,5.7491,5.7491,5.7491,5.7491,5.7491,5.7491,5.7491,5.7491,5.7491,5.7491,0.0,0.0,0.0,0.0,0.0,0.0,0.0,0.0,0.0,0.0,1.041,1.0817,1.193,1.2319,1.2701,0.0,0.0,0.0,0.0,0.0,0.0,0.0,0.0,0.0,0.0,0.0,0.0,1.6433,1.7151,1.7911,1.871,1.8907,0.0,0.0,0.0,0.0,0.0,0.0,0.0,0.0,0.0,0.0,0.0,0.0,0.0,0.0,1.7266,1.7065,0.0,0.0,0.0,0.0,0.0,0.0,0.0,0.0,1.7679,1.7751,1.7858,0.0,1.9754,2.0245,1.9875,1.9378,0.0,0.0,0.0,0.0,0.0,2.5621,2.6718,3.0237,3.3259,3.4148,3.7623,4.0725,4.2234,4.6006,4.862,4.8717,5.2349,5.4784,5.4573,5.5745,5.6522,5.6522,5.6923,5.7221,5.7429,5.7788,5.8052,5.8261,5.7965,5.7965,5.8263,5.8263,5.726,5.5295,5.6882,5.5691,5.2238,5.5839,5.6389,5.4531,5.6618,5.7491,5.7491,5.7491,5.7491,5.7491,5.7491,5.7491,5.7491,5.7491,5.7491,5.7491,0.0,0.0,0.0,0.0,0.0,0.0,0.0,0.0,0.0,0.0,0.0,0.0,0.0,0.0,0.0,0.0,0.0,0.0,0.0,0.0,0.0,0.0,0.0,0.0,0.0,0.0,0.0,0.0,0.0,1.7455,0.0,0.0,0.0,0.0,0.0,0.0,0.0,0.0,0.0,0.0,1.8788,0.0,0.0,0.0,0.0,0.0,1.6982,1.6848,0.0,1.6647,1.6945,1.7315,0.0,0.0,0.0,0.0,1.7623,1.7734,1.7517,1.7692,1.8261,1.9637,1.9155,0.0,0.0,0.0,0.0,0.0,0.0,0.0,2.7298,3.0439,3.3379,3.5149,3.7609,4.0643,4.4484,4.7209,4.8957,4.939,5.1483,5.3215,5.4068,5.5523,5.6405,5.6405,5.6699,5.6913,5.6973,5.7423,5.7704,5.7813,5.7599,5.7599,5.7836,5.7836,5.6669,5.4439,5.6527,5.5839,5.2881,5.6046,5.6894,5.5839,5.6,5.662,5.7422,5.6459,5.6641,5.7491,5.7491,5.7491,5.7491,5.7491,5.7491,5.7491,0.0,0.0,0.0,0.0,0.0,0.0,0.0,0.0,0.0,0.0,0.0,0.0,0.0,0.0,0.0,0.0,0.0,0.0,0.0,0.0,0.0,0.0,0.0,0.0,0.0,0.0,0.0,0.0,0.0,0.0,0.0,0.0,1.8221,0.0,0.0,0.0,0.0,0.0,0.0,0.0,1.8659,0.0,0.0,0.0,0.0,0.0,0.0,0.0,0.0,1.6523,1.682,1.7153,1.664,0.0,0.0,0.0,0.0,0.0,1.8144,1.7903,1.8199,2.0422,1.9476,0.0,0.0,0.0,0.0,0.0,0.0,0.0,0.0,3.138,3.4186,3.51,3.7404,4.0643,4.5149,4.7048,4.8459,4.9744,5.0394,5.1748,5.4351,5.5631,5.6281,5.6281,5.6445,5.6511,5.6494,5.7072,5.7436,5.7513,5.7491,5.7491,5.7491,5.7491,5.6459,5.4439,5.6527,5.6413,5.4464,5.6551,5.7491,5.7399,5.5633,5.5862,5.7353,5.561,5.5908,5.7491,5.7491,5.7491,5.7491,5.7491,5.7491,5.7491,0.0,0.0,0.0,0.0,0.0,0.0,0.0,0.0,0.0,0.0,0.0,0.0,0.0,0.0,0.0,0.0,0.0,0.0,0.0,0.0,0.0,0.0,0.0,0.0,0.0,0.0,0.0,0.0,0.0,0.0,1.7101,1.744,1.7816,0.0,0.0,0.0,0.0,0.0,0.0,0.0,1.8476,0.0,0.0,0.0,0.0,0.0,0.0,0.0,0.0,1.6131,1.6594,1.7269,1.6247,0.0,0.0,0.0,0.0,0.0,1.8398,1.839,1.8898,2.0847,1.9653,0.0,0.0,0.0,0.0,0.0,0.0,0.0,0.0,3.7617,4.0139,3.687,4.0674,4.4292,4.5109,4.8106,5.0119,4.9937,5.2662,5.4568,5.4592,5.5328,5.5816,5.5816,5.63,5.6427,5.6036,5.7274,5.7829,5.7491,5.7491,5.7491,5.7491,5.7491,5.6459,5.4439,5.6527,5.6413,5.4464,5.6551,5.7491,5.7491,5.717,5.7216,5.7491,5.717,5.7216,5.7491,5.7491,5.7491,5.7491,5.7491,5.7491,5.7491,0.0,0.0,0.0,0.0,0.0,0.0,0.0,0.0,0.0,0.0,0.0,0.0,0.0,0.0,0.0,0.0,0.0,0.0,0.0,0.0,0.0,0.0,0.0,0.0,0.0,0.0,0.0,0.0,0.0,1.6331,1.69,1.7312,1.7706,1.8072,0.0,0.0,0.0,0.0,0.0,0.0,0.0,0.0,0.0,0.0,0.0,0.0,0.0,0.0,0.0,0.0,1.6285,1.6775,1.6037,0.0,0.0,0.0,0.0,0.0,1.8535,1.8439,1.9122,2.2429,0.0,0.0,0.0,0.0,0.0,0.0,0.0,0.0,0.0,3.6201,3.8719,4.0477,4.5638,4.9012,4.7858,4.9686,5.1267,5.1598,5.2915,5.3914,5.4248,5.4937,5.5392,5.5392,5.5896,5.612,5.591,5.7088,5.7685,5.7514,5.7491,5.7491,5.7491,5.7491,5.6459,5.4439,5.6527,5.6413,5.4464,5.6551,5.7491,5.7445,5.6299,5.6459,5.7422,5.6276,5.6482,5.7491,5.7491,5.7491,5.7491,5.7491,5.7491,5.7491,0.0,0.0,0.0,0.0,0.0,0.0,0.0,0.0,0.0,0.0,0.0,0.0,0.0,0.0,0.0,0.0,0.0,0.0,0.0,0.0,0.0,0.0,0.0,0.0,0.0,0.0,1.591,1.5688,1.5818,1.6176,1.6771,1.7165,1.7523,0.0,0.0,0.0,0.0,0.0,0.0,0.0,0.0,0.0,0.0,0.0,0.0,0.0,0.0,0.0,0.0,0.0,0.0,0.0,0.0,0.0,0.0,1.8091,1.8228,1.8455,1.877,1.8601,1.9311,0.0,0.0,0.0,0.0,0.0,0.0,0.0,0.0,0.0,3.4789,3.6225,3.8467,4.4298,4.9133,5.1814,5.0803,5.1555,5.259,5.3528,5.335,5.3514,5.446,5.489,5.5088,5.5088,5.5606,5.591,5.591,5.6919,5.7491,5.7491,5.7491,5.7491,5.7491,5.7491,5.6689,5.5151,5.6756,5.6687,5.5197,5.6758,5.7491,5.7422,5.5817,5.6023,5.7376,5.5771,5.6046,5.7491,5.7491,5.7491,5.7491,5.7491,5.7491,5.7491,0.0,0.0,0.0,0.0,0.0,0.0,0.0,0.0,0.0,0.0,0.0,0.0,0.0,0.0,0.0,0.0,0.0,0.0,0.0,0.0,0.0,0.0,0.0,0.0,0.0,1.5543,1.5357,1.5688,1.4975,1.5232,1.636,1.6753,1.6955,1.6973,0.0,0.0,0.0,0.0,0.0,0.0,0.0,0.0,0.0,0.0,0.0,0.0,0.0,0.0,0.0,0.0,0.0,0.0,0.0,0.0,1.8091,1.8091,1.8641,1.9227,1.9253,1.9187,1.9699,2.2141,0.0,0.0,0.0,0.0,0.0,0.0,0.0,0.0,0.0,4.33,4.4544,4.7529,4.8789,5.0208,5.256,5.3745,5.4592,5.5169,5.5323,5.5593,5.6168,5.5547,5.5088,5.5088,5.5606,5.591,5.591,5.6919,5.7491,5.7491,5.7491,5.7491,5.7491,5.7491,5.7422,5.7284,5.7422,5.7422,5.7284,5.7445,5.7491,5.7491,5.7353,5.7353,5.7491,5.733,5.7376,5.7491,5.7491,5.7491,5.7491,5.7491,5.7491,5.7491,0.0,0.0,0.0,0.0,0.0,0.0,0.0,0.0,0.0,0.0,0.0,0.0,0.0,0.0,0.0,0.0,0.0,0.0,0.0,0.0,0.0,0.0,0.0,1.5881,1.6286,1.5993,1.5808,1.5688,1.5394,1.5735,1.668,1.6561,0.0,0.0,0.0,0.0,0.0,0.0,0.0,0.0,0.0,0.0,0.0,0.0,0.0,0.0,0.0,0.0,0.0,0.0,1.5532,1.5657,1.6277,1.705,1.7825,1.8329,1.8503,1.8649,1.9015,1.8971,1.9734,2.3569,0.0,0.0,0.0,0.0,0.0,0.0,0.0,0.0,0.0,4.3772,4.6832,4.8524,5.0353,5.2037,5.3341,5.4447,5.5073,5.5037,5.5387,5.564,5.5614,5.5027,5.4661,5.4661,5.544,5.591,5.591,5.6919,5.7491,5.7491,5.7491,5.7491,5.7491,5.7491,5.7491,5.7491,5.7491,5.7491,5.7491,5.7491,5.7491,5.7491,5.7491,5.7491,5.7491,5.7491,5.7491,5.7491,5.7491,5.7491,5.7491,5.7491,5.7491,5.7491,0.0,0.0,0.0,0.0,0.0,0.0,0.0,0.0,0.0,0.0,0.0,0.0,0.0,0.0,0.0,0.0,0.0,0.0,0.0,0.0,0.0,0.0,0.0,1.5834,1.6103,1.6111,1.591,1.5504,1.5633,1.6055,1.6689,0.0,0.0,0.0,0.0,0.0,0.0,0.0,0.0,0.0,0.0,0.0,0.0,0.0,0.0,0.0,0.0,0.0,0.0,0.0,1.5479,1.5622,1.6482,1.7113,1.7605,1.8155,1.8346,1.8461,1.8888,1.9049,2.0024,0.0,0.0,0.0,0.0,0.0,0.0,0.0,3.9866,0.0,4.1543,4.5366,4.8452,4.9005,5.0779,5.2542,5.3851,5.4717,5.5167,5.5085,5.5334,5.5412,5.5128,5.4681,5.4396,5.4396,5.5337,5.591,5.591,5.6919,5.7491,5.7491,5.7491,5.7491,5.7491,5.7491,5.7491,5.7491,5.7491,5.7491,5.7491,5.7491,5.7491,5.7491,5.7491,5.7491,5.7491,5.7491,5.7491,5.7491,5.7491,5.7491,5.7491,5.7491,5.7491,5.7491,0.0,0.0,0.0,0.0,0.0,0.0,0.0,0.0,0.0,0.0,0.0,0.0,0.0,0.0,0.0,0.0,0.0,0.0,0.0,0.0,0.0,0.0,0.0,1.5688,1.5688,1.5688,1.5504,1.5111,1.5504,1.5918,1.6305,1.6305,0.0,0.0,0.0,0.0,0.0,0.0,0.0,0.0,1.69,1.69,0.0,0.0,0.0,0.0,0.0,0.0,0.0,0.0,1.5776,1.6183,1.6728,1.7165,1.7504,1.7532,1.8224,1.8993,1.9029,1.9561,2.0637,0.0,0.0,0.0,0.0,0.0,0.0,0.0,4.4308,4.899,4.8396,4.9191,4.9744,4.9215,4.9576,5.1026,5.4159,5.4726,5.4998,5.5522,5.5309,5.5088,5.5088,5.4661,5.4396,5.4396,5.5337,5.591,5.591,5.6919,5.7491,5.7491,5.7491,5.7491,5.7491,5.7491,5.7491,5.7491,5.7491,5.7491,5.7491,5.7491,5.7491,5.7491,5.7491,5.7491,5.7491,5.7491,5.7491,5.7491,5.7491,5.7491,5.7491,5.7491,5.7491,5.7491,0.0,0.0,0.0,0.0,0.0,0.0,0.0,0.0,0.0,0.0,0.0,0.0,0.0,0.0,0.0,0.0,0.0,0.0,0.0,0.0,0.0,0.0,0.0,0.0,0.0,0.0,1.5496,1.5938,1.5771,1.6046,0.0,0.0,0.0,1.6955,0.0,0.0,0.0,0.0,0.0,0.0,1.701,1.6735,0.0,0.0,0.0,0.0,0.0,0.0,0.0,0.0,0.0,0.0,1.6625,1.6903,1.7505,1.9674,1.939,1.8834,2.0952,2.0929,2.0979,2.383,0.0,0.0,0.0,0.0,0.0,0.0,4.5159,4.6989,4.6196,4.9084,5.1171,4.9865,5.1339,5.3101,5.4423,5.4726,5.4881,5.5087,5.5085,5.4966,5.464,5.4477,5.4396,5.4396,5.5337,5.591,5.591,5.6919,5.7491,5.7491,5.7491,5.7491,5.7491,5.7491,5.7491,5.7491,5.7491,5.7491,5.7491,5.7491,5.7491,5.7491,5.7491,5.7491,5.7491,5.7491,5.7491,5.7491,5.7491,5.7491,5.7491,5.7491,5.7491,5.7491,0.0,0.0,0.0,0.0,0.0,0.0,0.0,0.0,0.0,0.0,0.0,0.0,0.0,0.0,0.0,0.0,0.0,0.0,0.0,0.0,0.0,0.0,0.0,0.0,0.0,1.5339,1.5653,0.0,0.0,0.0,0.0,0.0,0.0,1.7669,0.0,1.8806,0.0,0.0,1.843,1.7238,1.7,1.6661,1.6278,0.0,0.0,0.0,0.0,0.0,0.0,0.0,0.0,0.0,1.646,1.736,1.8493,1.931,1.9756,2.0296,2.1822,2.2078,2.2872,2.6866,2.7897,2.9017,3.3184,0.0,0.0,4.5449,4.7591,4.8253,4.8276,5.0816,5.259,5.1604,5.2827,5.4137,5.4837,5.4745,5.4756,5.5174,5.4959,5.4701,5.4436,5.4396,5.4508,5.4694,5.5451,5.6002,5.6207,5.7033,5.7491,5.7491,5.7491,5.7491,5.7491,5.7491,5.7491,5.7491,5.7491,5.7491,5.7491,5.7491,5.7491,5.7491,5.7491,5.7491,5.7491,5.7491,5.7491,5.7491,5.7491,5.7491,5.7491,5.7491,5.7491,5.7491,0.0,0.0,0.0,0.0,0.0,0.0,0.0,0.0,0.0,0.0,0.0,0.0,0.0,0.0,0.0,0.0,0.0,0.0,0.0,0.0,0.0,0.0,0.0,0.0,0.0,0.0,0.0,0.0,0.0,0.0,0.0,0.0,1.7523,1.8659,0.0,1.8595,0.0,1.8173,1.7679,1.6845,1.6817,1.657,1.6203,1.5853,0.0,0.0,0.0,0.0,0.0,0.0,0.0,0.0,1.6233,1.8017,1.9698,1.7596,1.9671,2.2574,2.2212,2.3207,2.5517,3.0523,3.0734,3.1351,3.757,3.9793,4.2381,4.8878,5.0593,5.1358,5.2768,5.3413,5.3755,5.3803,5.3918,5.4309,5.5217,5.4748,5.4627,5.5544,5.4902,5.4396,5.4396,5.4396,5.4625,5.5174,5.5635,5.6117,5.6664,5.7216,5.7491,5.7491,5.7491,5.7491,5.7491,5.7491,5.7491,5.7491,5.7491,5.7491,5.7491,5.7491,5.7491,5.7491,5.7491,5.7491,5.7491,5.7491,5.7491,5.7491,5.7491,5.7491,5.7491,5.7491,5.7491,5.7491,0.0,0.0,0.0,0.0,0.0,0.0,0.0,0.0,0.0,0.0,0.0,0.0,0.0,0.0,0.0,0.0,0.0,0.0,0.0,0.0,0.0,0.0,0.0,0.0,0.0,0.0,0.0,0.0,0.0,0.0,0.0,0.0,0.0,1.8302,0.0,1.9484,1.7697,1.8641,1.8036,1.6396,1.6091,1.5908,1.5816,1.5724,1.5688,0.0,0.0,0.0,0.0,0.0,0.0,0.0,1.5781,1.6307,1.7433,1.9399,2.072,2.2072,2.4562,2.5263,2.58,2.7905,3.112,3.5843,4.3836,4.5104,4.5432,4.8254,4.9204,5.0135,5.2115,5.2903,5.3384,5.3731,5.3918,5.4213,5.4834,5.457,5.4527,5.516,5.4742,5.4396,5.4396,5.4396,5.4625,5.5174,5.5635,5.6117,5.6664,5.7216,5.7491,5.7491,5.7491,5.7491,5.7491,5.7491,5.7491,5.7491,5.7491,5.7491,5.7491,5.7491,5.7491,5.7491,5.7491,5.7491,5.7491,5.7491,5.7491,5.7491,5.7491,5.7491,5.7491,5.7491,5.7491,5.7491,0.0,0.0,0.0,0.0,0.0,0.0,0.0,0.0,0.0,0.0,0.0,0.0,0.0,0.0,0.0,0.0,0.0,0.0,0.0,0.0,0.0,0.0,0.0,0.0,0.0,0.0,0.0,0.0,0.0,0.0,0.0,0.0,0.0,1.8155,0.0,1.8751,1.7257,1.7871,1.7321,1.601,1.5983,1.5863,1.5724,1.5918,1.5991,1.6001,1.6213,0.0,0.0,0.0,0.0,0.0,0.0,0.0,1.8043,1.8655,2.0214,2.2132,2.4022,2.5262,2.6883,3.0437,3.5162,4.0061,4.4409,4.5903,4.6934,4.8905,5.0014,5.0978,5.2085,5.2927,5.3435,5.3492,5.3804,5.4169,5.4472,5.4404,5.4523,5.5044,5.4681,5.4396,5.4396,5.4396,5.4717,5.5474,5.5773,5.6232,5.7032,5.7353,5.7491,5.7491,5.7491,5.7491,5.7491,5.7491,5.7491,5.7491,5.7491,5.7491,5.7491,5.7491,5.7491,5.7491,5.7491,5.7491,5.7491,5.7491,5.7491,5.7491,5.7491,5.7491,5.7491,5.7491,5.7491,5.7491,0.0,0.0,0.0,0.0,0.0,0.0,0.0,0.0,0.0,0.0,0.0,0.0,0.0,0.0,0.0,0.0,0.0,0.0,0.0,0.0,0.0,0.0,0.0,0.0,0.0,0.0,0.0,0.0,0.0,0.0,0.0,0.0,0.0,1.8603,0.0,0.0,1.6881,1.6753,1.6303,1.5724,1.5983,1.5991,1.5853,0.0,0.0,0.0,1.6396,1.6343,1.6236,1.608,0.0,0.0,0.0,0.0,1.8911,1.7243,1.923,2.2073,2.2562,2.4967,2.8802,3.4803,3.9285,4.2461,4.3382,4.5131,4.7295,4.9957,5.1457,5.2325,5.2422,5.3141,5.3578,5.3238,5.3656,5.4026,5.4069,5.4256,5.4538,5.4925,5.464,5.4396,5.4396,5.4396,5.4786,5.5704,5.5864,5.6323,5.7307,5.7445,5.7491,5.7491,5.7491,5.7491,5.7491,5.7491,5.7491,5.7491,5.7491,5.7491,5.7491,5.7491,5.7491,5.7491,5.7491,5.7491,5.7491,5.7491,5.7491,5.7491,5.7491,5.7491,5.7491,5.7491,5.7491,5.7491,0.0,0.0,0.0,0.0,0.0,0.0,0.0,0.0,0.0,0.0,0.0,0.0,0.0,0.0,0.0,0.0,0.0,0.0,0.0,0.0,0.0,0.0,0.0,0.0,0.0,0.0,0.0,0.0,0.0,0.0,0.0,0.0,0.0,0.0,0.0,0.0,0.0,1.6165,1.5798,1.5669,1.5386,1.5661,0.0,0.0,0.0,0.0,0.0,1.653,1.6099,1.5843,1.5488,0.0,0.0,0.0,1.6716,1.7222,1.8885,2.0867,2.2242,2.6646,3.2155,3.77,3.8669,3.9687,4.5131,4.5702,4.6274,5.0466,5.1844,5.2446,5.2921,5.3157,5.3281,5.3224,5.3404,5.3573,5.3597,5.4055,5.4436,5.4498,5.4436,5.4396,5.4396,5.4396,5.4668,5.5245,5.5681,5.6163,5.6779,5.7239,5.7491,5.7491,5.7491,5.7491,5.7491,5.7491,5.7491,5.7491,5.7491,5.7491,5.7491,5.7491,5.7491,5.7491,5.7491,5.7491,5.7491,5.7491,5.7491,5.7491,5.7491,5.7491,5.7491,5.7491,5.7491,5.7491,0.0,0.0,0.0,0.0,0.0,0.0,0.0,0.0,0.0,0.0,0.0,0.0,0.0,0.0,0.0,1.2844,1.4437,1.5566,1.5856,1.5977,0.0,0.0,0.0,0.0,0.0,0.0,0.0,0.0,0.0,0.0,0.0,2.15,2.1159,0.0,0.0,0.0,0.0,0.0,0.0,0.0,0.0,0.0,0.0,0.0,0.0,0.0,0.0,0.0,0.0,1.5919,1.5524,1.5131,1.5744,0.0,0.0,0.0,1.7909,1.9762,2.4499,2.7924,3.1782,3.8584,3.865,3.8793,4.5382,4.5583,4.5712,5.0507,5.194,5.2446,5.2999,5.3149,5.3148,5.2897,5.321,5.3415,5.3198,5.3874,5.4396,5.4396,5.4396,5.4396,5.4396,5.4396,5.4625,5.5174,5.5635,5.6117,5.6664,5.7216,5.7491,5.7491,5.7491,5.7629,5.7883,5.7629,5.7491,5.7491,5.7491,5.7491,5.7491,5.7491,5.7491,5.7491,5.7491,5.7491,5.7491,5.7491,5.7491,5.7491,5.7491,5.7491,5.7491,5.7491,5.7491,5.7491,0.0,0.0,0.0,0.0,0.0,0.0,0.0,0.0,0.0,0.0,0.0,0.0,0.0,0.0,0.0,0.0,1.4671,1.5913,1.5716,1.5991,0.0,0.0,0.0,0.0,0.0,0.0,0.0,0.0,0.0,0.0,2.2149,2.2662,2.2112,0.0,2.2288,0.0,0.0,0.0,0.0,0.0,0.0,0.0,0.0,0.0,0.0,0.0,0.0,0.0,0.0,0.0,1.5738,1.5323,1.5946,1.6302,0.0,0.0,0.0,1.9168,2.5554,2.7798,3.0033,3.7229,3.7144,3.6996,4.3505,4.3969,4.4435,4.9449,5.1459,5.2433,5.2869,5.2999,5.2916,5.2516,5.2938,5.3238,5.294,5.3773,5.4396,5.4396,5.4396,5.4396,5.4396,5.4396,5.4577,5.499,5.5566,5.6071,5.6482,5.7147,5.7491,5.7491,5.7491,5.7744,5.8181,5.7859,5.7629,5.7491,5.7491,5.7491,5.7491,5.7491,5.7491,5.7491,5.7491,5.7491,5.7491,5.7491,5.7491,5.7491,5.7491,5.7491,5.7491,5.7491,5.7491,5.7491,0.0,0.0,0.0,0.0,0.0,0.0,0.0,0.0,0.0,0.0,0.0,0.0,0.0,1.2921,1.3738,1.4065,1.5087,1.5716,1.5688,1.5724,1.5881,0.0,0.0,0.0,0.0,0.0,0.0,0.0,0.0,0.0,2.0105,2.2016,2.2828,2.2755,2.3057,2.2942,2.2414,0.0,0.0,0.0,0.0,0.0,0.0,0.0,0.0,0.0,0.0,0.0,0.0,0.0,0.0,0.0,1.6236,1.6561,1.6955,0.0,0.0,0.0,2.3425,2.5332,2.7445,3.2814,3.2801,3.293,3.8516,4.0049,4.1707,4.6681,5.016,5.2317,5.2419,5.2542,5.2497,5.2096,5.2528,5.292,5.2901,5.3773,5.4396,5.4396,5.4396,5.4396,5.4396,5.4396,5.4396,5.4439,5.5359,5.5889,5.5956,5.6919,5.7491,5.7491,5.7491,5.7744,5.8181,5.8181,5.7929,5.7491,5.7491,5.7491,5.7491,5.7491,5.7491,5.7491,5.7491,5.7491,5.7491,5.7491,5.7491,5.7491,5.7491,5.7491,5.7491,5.7491,5.7491,5.7491,0.0,0.0,0.0,0.0,0.0,0.0,0.0,0.0,0.0,0.0,0.0,0.0,0.0,1.3406,1.3683,1.392,1.4907,1.5734,1.624,1.6397,1.649,1.6478,0.0,0.0,0.0,0.0,0.0,0.0,0.0,1.7789,1.9922,2.0636,2.1668,2.3011,2.5728,2.4559,2.0746,2.3243,0.0,0.0,0.0,0.0,0.0,0.0,0.0,0.0,0.0,0.0,0.0,0.0,0.0,0.0,0.0,0.0,0.0,0.0,0.0,1.928,2.3233,2.3652,2.4593,3.1339,3.1164,3.1016,3.7426,4.0144,4.1914,4.4039,4.8644,5.1621,4.9399,5.0974,5.2478,5.2081,5.2255,5.2553,5.2855,5.3498,5.4072,5.435,5.4396,5.4396,5.4396,5.4396,5.4396,5.4396,5.414,5.4533,5.5841,5.5635,5.6115,5.7468,5.7491,5.7744,5.8181,5.8549,5.8457,5.7929,5.7652,5.7491,5.7491,5.7491,5.7491,5.7491,5.7491,5.7491,5.7491,5.7491,5.7491,5.7491,5.7491,5.7491,5.7491,5.7491,5.7491,5.7491,0.0,0.0,0.0,0.0,0.0,0.0,0.0,0.0,0.0,0.0,0.0,0.0,0.0,0.0,1.428,1.4613,1.5278,1.5933,1.6462,1.6619,1.6703,1.6691,1.683,0.0,0.0,0.0,0.0,0.0,0.0,0.0,0.0,0.0,2.0398,2.1844,2.5239,0.0,0.0,0.0,0.0,2.0411,0.0,0.0,2.0639,0.0,0.0,0.0,0.0,0.0,0.0,0.0,0.0,0.0,0.0,0.0,0.0,0.0,0.0,0.0,2.1653,2.1514,2.1924,2.742,2.7992,2.8612,3.4138,3.8501,4.1646,4.2592,4.7867,5.1495,4.8874,5.0694,5.2421,5.1889,5.2019,5.2369,5.2832,5.336,5.3865,5.4327,5.4396,5.4396,5.4396,5.4396,5.4396,5.4396,5.3957,5.4304,5.5819,5.5428,5.5885,5.7445,5.7836,5.8088,5.8204,5.8732,5.8732,5.8181,5.7721,5.7491,5.7491,5.7491,5.7491,5.7491,5.7491,5.7491,5.7491,5.7491,5.7491,5.7491,5.7491,5.7491,5.7491,5.7491,5.7491,5.7491,0.0,0.0,0.0,0.0,0.0,0.0,0.0,0.0,0.0,0.0,0.0,0.0,0.0,0.0,0.0,1.6246,1.6305,1.6313,1.6331,1.6323,1.6488,1.689,1.69,0.0,0.0,0.0,0.0,0.0,0.0,0.0,0.0,0.0,1.9219,0.0,2.1335,2.4024,2.7045,0.0,2.7859,2.7389,0.0,2.5443,2.5063,0.0,0.0,0.0,2.5284,2.4495,0.0,2.4788,0.0,0.0,0.0,0.0,0.0,0.0,0.0,0.0,0.0,0.0,0.0,2.0933,2.3081,2.5581,2.8402,3.4689,4.0454,4.2257,4.7706,5.1878,5.1035,5.1817,5.2321,5.1524,5.1844,5.2346,5.2809,5.3337,5.3842,5.4304,5.4373,5.4396,5.4396,5.4396,5.4416,5.4418,5.4832,5.5337,5.591,5.6436,5.6963,5.7491,5.848,5.8755,5.8227,5.8755,5.8755,5.8204,5.7744,5.7514,5.7491,5.7491,5.7491,5.7491,5.7491,5.7491,5.7491,5.7491,5.7491,5.7491,5.7491,5.7491,5.7491,5.7491,5.7491,5.7491,0.0,0.0,0.0,0.0,0.0,0.0,0.0,0.0,0.0,0.0,0.0,0.0,0.0,0.0,0.0,1.6296,1.6395,1.659,1.692,1.6812,1.684,1.7106,1.6986,1.69,0.0,0.0,0.0,0.0,0.0,0.0,0.0,0.0,0.0,0.0,1.9547,2.1233,2.2593,2.6001,0.0,0.0,2.7636,2.6481,0.0,0.0,0.0,0.0,0.0,2.6435,2.5981,0.0,2.5106,2.2236,0.0,0.0,0.0,0.0,0.0,0.0,1.8514,0.0,0.0,0.0,0.0,0.0,2.6925,3.2048,3.6751,3.8467,4.3851,4.8229,4.8191,5.0277,5.1881,5.1478,5.1527,5.1798,5.2323,5.2809,5.3314,5.3819,5.4186,5.4396,5.4396,5.4396,5.4556,5.4946,5.3773,5.4026,5.6366,5.6986,5.7353,5.7491,5.848,5.8916,5.8778,5.9261,5.9261,5.8778,5.825,5.7836,5.7491,5.7491,5.7491,5.7491,5.7491,5.7491,5.7491,5.7491,5.7491,5.7491,5.7491,5.7491,5.7491,5.7491,5.7491,5.7491,0.0,0.0,0.0,0.0,0.0,0.0,0.0,0.0,0.0,0.0,0.0,0.0,0.0,0.0,0.0,0.0,1.6609,1.677,1.7063,1.6969,1.6952,1.7063,1.6969,1.69,1.69,0.0,0.0,0.0,0.0,0.0,0.0,0.0,0.0,0.0,0.0,0.0,0.0,0.0,0.0,0.0,2.7581,0.0,0.0,2.8641,2.8641,0.0,0.0,0.0,2.9137,3.0384,2.808,0.0,0.0,0.0,0.0,0.0,0.0,0.0,0.0,0.0,0.0,0.0,0.0,0.0,2.5823,3.1494,3.6823,3.8844,4.4304,4.8318,4.7072,4.8709,5.0094,4.9609,4.969,5.0379,5.1979,5.2438,5.2897,5.3612,5.3934,5.4186,5.4373,5.4396,5.451,5.4832,5.398,5.4413,5.6595,5.7216,5.7491,5.7491,5.848,5.9008,5.9008,5.9467,5.9467,5.8985,5.8457,5.7952,5.7491,5.7491,5.7491,5.7491,5.7491,5.7491,5.7491,5.7491,5.7491,5.7491,5.7491,5.7491,5.7491,5.7491,5.7491,5.7491,0.0,0.0,0.0,1.1597,1.2733,0.0,0.0,0.0,0.0,0.0,0.0,0.0,0.0,0.0,0.0,0.0,1.69,1.69,1.69,1.69,1.69,1.69,1.69,1.69,1.69,1.6543,0.0,0.0,0.0,0.0,0.0,0.0,0.0,0.0,0.0,0.0,0.0,0.0,0.0,2.771,2.6765,2.888,0.0,0.0,3.0563,3.0874,3.3421,3.3073,3.1732,3.3876,3.1498,0.0,0.0,0.0,0.0,0.0,2.0708,0.0,0.0,0.0,0.0,0.0,2.0449,0.0,2.4946,3.1447,3.7819,4.0712,4.5846,4.904,4.6411,4.6759,4.7202,4.6456,4.6805,4.8212,5.1267,5.1979,5.2438,5.3038,5.3452,5.3865,5.4278,5.4373,5.4418,5.4487,5.4969,5.5702,5.6641,5.7147,5.7445,5.7491,5.8411,5.8939,5.9008,5.9467,5.9467,5.8985,5.8526,5.7998,5.7491,5.7491,5.7491,5.7491,5.7491,5.7491,5.7491,5.7491,5.7491,5.7491,5.7491,5.7491,5.7491,5.7491,5.7491,5.7491,1.1713,0.0,0.0,1.2405,1.2775,1.3164,0.0,0.0,0.0,0.0,0.0,0.0,0.0,0.0,0.0,0.0,0.0,1.69,1.69,1.69,1.69,1.69,1.69,1.69,1.69,1.6826,1.6826,0.0,0.0,0.0,0.0,0.0,0.0,0.0,0.0,0.0,0.0,0.0,0.0,2.4261,2.7577,2.8876,2.9162,3.2019,3.1343,2.9313,3.2696,3.2836,3.147,3.194,3.1417,2.9919,0.0,0.0,0.0,2.0492,0.0,0.0,0.0,0.0,0.0,0.0,1.9743,0.0,2.3774,2.6758,3.048,3.5836,3.8223,3.9974,4.2033,4.2874,4.3185,4.2912,4.3665,4.5278,4.8092,5.0646,5.1519,4.964,5.1959,5.3727,5.3819,5.4186,5.4579,5.4992,5.5497,5.6046,5.6664,5.6802,5.7055,5.7491,5.8044,5.8549,5.8985,5.9467,5.9467,5.9008,5.8893,5.8365,5.7491,5.7491,5.7491,5.7491,5.7491,5.7491,5.7491,5.7491,5.7491,5.7491,5.7491,5.7491,5.7491,5.7491,5.7491,5.7491,1.1408,0.0,0.0,0.0,1.3559,1.4007,0.0,0.0,0.0,0.0,0.0,0.0,0.0,0.0,0.0,0.0,0.0,0.0,0.0,0.0,1.69,1.69,1.69,1.69,1.69,1.69,1.6808,1.6606,0.0,0.0,0.0,0.0,0.0,0.0,0.0,0.0,0.0,0.0,2.0618,2.3499,2.7008,0.0,2.9658,3.2863,3.2978,3.1629,3.3446,3.3839,3.337,3.2646,3.2088,0.0,2.8919,2.6118,2.3374,0.0,2.051,1.9591,0.0,0.0,0.0,1.8988,2.0032,0.0,0.0,2.6811,3.056,3.4203,3.6582,3.8059,3.8272,3.8716,3.915,3.9398,4.0028,4.1174,4.3183,4.7181,5.0008,5.0256,5.1864,5.315,5.3635,5.3911,5.437,5.513,5.5635,5.6117,5.6664,5.6963,5.7216,5.7491,5.7974,5.8457,5.8985,5.9467,5.956,5.9352,5.91,5.8595,5.7837,5.7606,5.7491,5.7491,5.7491,5.7491,5.7491,5.7491,5.7491,5.7491,5.7491,5.7491,5.7491,5.7491,5.7491,5.7491,1.1368,0.0,0.0,0.0,1.4504,1.5155,1.5422,0.0,0.0,0.0,0.0,0.0,0.0,0.0,0.0,0.0,0.0,0.0,0.0,0.0,1.7294,1.6927,1.69,1.69,1.69,1.6982,1.6826,1.6423,0.0,0.0,0.0,0.0,0.0,0.0,0.0,0.0,0.0,0.0,0.0,2.4532,2.7012,2.891,3.0563,3.3336,3.4142,3.3798,3.4239,3.4833,3.513,3.357,3.2477,3.1712,3.1542,2.8038,0.0,0.0,0.0,0.0,0.0,0.0,1.912,1.8957,2.0332,2.2086,0.0,0.0,0.0,3.3089,3.5739,3.703,3.4662,3.4673,3.5144,3.5521,3.612,3.6996,3.8358,4.2766,4.6847,4.9554,5.0382,5.1098,5.2042,5.2753,5.377,5.5206,5.5668,5.6151,5.6792,5.7144,5.7399,5.7491,5.786,5.8365,5.8985,5.9375,5.9606,5.9674,5.9215,5.871,5.8181,5.7699,5.7491,5.7491,5.7491,5.7491,5.7491,5.7491,5.7491,5.7491,5.7491,5.7491,5.7491,5.7491,5.7491,5.7491,1.3867,0.0,0.0,0.0,1.5185,1.5624,1.5651,0.0,0.0,0.0,0.0,0.0,0.0,0.0,0.0,0.0,0.0,0.0,1.755,0.0,0.0,1.6973,1.69,1.69,1.69,1.7257,1.7238,1.6826,1.6881,0.0,0.0,0.0,0.0,0.0,1.8072,0.0,0.0,0.0,2.4728,2.7506,2.9946,2.9867,2.8766,3.2841,3.3144,3.1651,3.3676,3.4462,3.4257,3.2421,3.1373,3.0628,2.9321,2.6666,2.3958,2.3711,2.2185,2.0346,1.925,1.9002,1.9063,1.9273,1.9663,2.0762,2.3796,0.0,2.7175,2.9983,0.0,3.1072,3.0751,0.0,0.0,3.0645,3.2108,3.3915,3.5601,3.8012,4.0077,4.133,4.3849,4.5712,4.6389,4.9398,5.2533,5.552,5.578,5.6242,5.7169,5.6948,5.7009,5.7491,5.756,5.8042,5.8985,5.9054,5.9284,5.9674,5.9215,5.871,5.8181,5.7699,5.7491,5.7491,5.7491,5.7491,5.7491,5.7491,5.7491,5.7491,5.7491,5.7491,5.7491,5.7491,5.7491,5.7491,1.3627,0.0,0.0,0.0,1.5428,1.5692,1.5989,0.0,0.0,0.0,0.0,0.0,0.0,0.0,0.0,0.0,0.0,2.2286,0.0,0.0,0.0,0.0,1.8219,1.7596,1.7596,1.7523,1.7293,1.69,1.712,1.7128,0.0,0.0,0.0,0.0,1.9273,0.0,2.3944,0.0,2.605,2.7945,2.9509,2.9131,2.8149,3.2685,3.3673,3.2667,3.296,3.3782,3.4352,3.1809,3.2105,3.3007,2.998,2.8123,2.6937,2.6175,2.3822,2.1481,2.1679,2.173,2.178,2.1958,2.2848,2.4088,2.5777,2.6355,2.6958,2.8504,0.0,0.0,0.0,0.0,0.0,0.0,3.0529,3.1535,3.3042,3.4268,3.6587,4.0861,4.2769,4.4777,4.7496,4.8035,4.9691,5.3222,5.344,5.3762,5.4545,5.614,5.7196,5.7491,5.7491,5.7975,5.8985,5.9008,5.9375,6.0156,5.9651,5.9146,5.8641,5.8135,5.7767,5.7491,5.7491,5.7491,5.7491,5.7491,5.7491,5.7491,5.7491,5.7491,5.7491,5.7491,5.7491,5.7491,0.0,0.0,0.0,0.0,0.0,1.573,1.6175,0.0,0.0,0.0,0.0,0.0,2.1849,2.1409,0.0,0.0,2.4477,2.4483,0.0,0.0,2.2116,0.0,0.0,0.0,0.0,1.8375,1.7734,1.723,1.7633,1.7614,1.7248,1.7825,0.0,0.0,0.0,2.1918,2.4675,2.6062,2.7495,2.8941,3.0141,3.0108,2.9613,3.2396,3.3667,3.3869,3.315,3.3802,3.4585,3.1861,3.2467,3.392,3.1166,2.9686,2.8915,2.8776,2.6325,2.3806,2.4533,2.4751,2.4604,2.404,2.4956,2.6076,2.6419,2.6686,2.7111,2.8069,2.8623,0.0,0.0,0.0,2.8883,2.9364,0.0,2.9875,3.0711,3.1507,3.395,3.9203,4.1325,4.3545,4.6563,4.654,4.7472,5.0263,5.1351,5.2207,5.293,5.5856,5.7534,5.7662,5.7664,5.8082,5.8985,5.9008,5.9512,6.0477,5.9949,5.9445,5.8985,5.8434,5.7929,5.7491,5.7491,5.7491,5.7491,5.7491,5.7491,5.7491,5.7491,5.7491,5.7491,5.7491,5.7491,5.7491,1.5129,1.4907,0.0,0.0,0.0,0.0,1.6079,0.0,0.0,0.0,0.0,0.0,0.0,0.0,0.0,0.0,0.0,2.5186,2.4819,0.0,2.4678,0.0,0.0,1.9997,0.0,2.0052,1.8861,1.8054,1.8466,1.8458,1.8054,1.8091,1.8741,1.9885,1.9903,2.2024,2.5675,2.755,2.9539,3.1634,3.3501,3.4196,3.3958,3.1885,3.2467,3.4438,3.4781,3.4955,3.4697,3.2724,3.1724,3.1497,3.2328,3.0495,2.8525,3.0949,2.9833,2.7742,2.7472,2.7372,2.6833,2.4477,2.4284,2.4635,2.4513,2.524,2.6571,2.8793,2.9677,2.9904,2.9364,2.9268,0.0,0.0,0.0,0.0,0.0,2.9965,3.159,3.3381,3.7683,4.045,4.0408,4.4206,4.6803,4.7024,5.0347,5.2835,5.3899,5.6509,5.8,5.8068,5.807,5.8386,5.8985,5.9008,5.9512,6.0477,5.9949,5.9445,5.8985,5.8434,5.7929,5.7491,5.7491,5.7491,5.7491,5.7491,5.7491,5.7491,5.7491,5.7491,5.7491,5.7491,5.7491,5.7491,0.0,0.0,0.0,0.0,0.0,0.0,1.6365,1.739,0.0,0.0,2.1254,0.0,0.0,2.6146,2.6444,0.0,0.0,2.9761,2.8825,2.8256,0.0,0.0,0.0,2.3736,0.0,0.0,2.051,1.8897,1.876,1.8769,1.8897,1.9163,1.9647,2.0306,2.0705,2.2502,2.5346,2.758,2.9734,3.1669,3.2292,3.268,3.2928,3.3443,3.413,3.4849,3.5189,3.5326,3.507,3.3443,3.3575,3.4288,3.3391,3.2376,3.1926,3.4028,3.2856,3.1161,3.2296,3.3407,3.4046,3.3244,3.1984,3.1015,3.1232,2.9189,2.7625,2.9015,2.9172,2.91,2.9268,2.9003,0.0,0.0,0.0,0.0,0.0,2.9268,3.0433,3.2056,3.4871,3.7508,3.9563,4.0166,4.1595,4.4433,4.5805,4.7148,4.8621,5.2935,5.5542,5.597,5.7357,5.8375,5.8917,5.8979,5.9329,5.9972,6.0156,5.9811,5.8985,5.8801,5.8273,5.7491,5.7491,5.7491,5.7491,5.7491,5.7491,5.7491,5.7491,5.7491,5.7491,5.7491,5.7491,5.7491,1.5737,0.0,0.0,0.0,0.0,1.6576,1.7407,1.8484,2.0168,2.2871,2.3263,2.4594,2.8054,2.8146,2.8531,0.0,3.0662,3.1267,3.1634,2.9834,0.0,3.1228,2.8421,0.0,0.0,0.0,0.0,0.0,0.0,2.0052,2.1038,2.039,2.0293,2.0621,2.1007,2.2176,2.4054,2.7102,2.9241,3.0699,3.1614,3.2518,3.339,3.413,3.4729,3.5207,3.5583,3.572,3.5566,3.4627,3.5106,3.5874,3.4678,3.4705,3.5412,3.6638,3.6268,3.575,3.6969,3.8081,3.8683,3.7722,3.6479,3.5509,3.5622,3.3484,3.1849,3.3242,3.326,3.2696,3.1721,3.1253,0.0,0.0,0.0,0.0,0.0,2.8209,2.878,3.0001,3.3232,3.5953,3.7467,3.7878,3.8936,4.11,4.2495,4.3959,4.5579,5.1081,5.4408,5.4815,5.7134,5.8541,5.8901,5.8975,5.9238,5.9697,6.0247,5.9972,5.9008,5.9008,5.8434,5.7491,5.7491,5.7491,5.7491,5.7491,5.7491,5.7491,5.7491,5.7491,5.7491,5.7491,5.7491,5.7491,1.6233,1.5848,0.0,1.5883,1.6708,1.7795,1.9095,2.0967,2.3525,2.7103,2.681,2.7151,2.944,2.8388,2.808,2.9544,2.903,2.991,3.2919,2.9595,0.0,0.0,3.002,2.8792,3.138,0.0,0.0,0.0,0.0,2.2275,2.4183,2.1684,2.0621,2.0837,2.0815,2.1165,2.2073,2.6215,2.8368,2.9195,3.1594,3.3701,3.5241,3.3838,3.4233,3.5583,3.596,3.6158,3.6218,3.6218,3.6282,3.6342,3.6376,3.7468,3.8763,3.8781,3.9982,4.1288,4.1288,4.1366,4.0792,3.8248,3.7846,3.7967,3.762,3.7804,3.8624,4.0784,4.1211,4.0128,3.6566,3.5725,3.4258,0.0,0.0,0.0,2.7397,2.6877,2.6811,2.7305,3.2519,3.5494,3.4043,3.7213,3.8767,3.7313,4.0527,4.3304,4.5013,5.087,5.4334,5.4682,5.7122,5.856,5.8852,5.8813,5.91,5.9651,6.0225,5.9972,5.9008,5.9008,5.8434,5.7491,5.7491,5.7491,5.7491,5.7491,5.7491,5.7491,5.7491,5.7491,5.7491,5.7491,5.7491,5.7491,1.7046,1.6618,1.6767,1.7203,1.8528,1.9724,2.0377,2.2712,2.5041,2.6836,2.8021,2.9264,3.0781,3.1409,3.1391,3.0564,3.1401,3.1946,3.1871,3.1744,0.0,3.4734,3.3653,3.2644,3.1856,3.0537,2.9324,2.8256,0.0,2.384,2.4599,2.1946,2.0898,2.1218,2.0884,2.1134,2.2066,2.601,2.924,3.1645,3.0926,3.192,3.3821,3.3427,3.4404,3.596,3.6063,3.6907,3.797,3.797,3.8784,3.9883,4.0226,4.0637,4.105,4.1418,4.2704,4.4001,4.4001,4.4916,4.5692,4.5012,4.3306,4.1929,4.2392,4.0911,3.9913,4.1463,4.1475,4.1018,4.0465,3.7408,3.4775,0.0,0.0,0.0,2.7397,2.7103,2.7377,2.8228,3.0085,3.1576,3.2298,3.4586,3.635,3.7132,3.8444,4.0932,4.4893,4.7031,5.0121,5.4497,5.3612,5.4738,5.8204,5.6863,5.7194,5.9192,6.0087,5.9972,5.9008,5.9008,5.8434,5.7491,5.7491,5.7491,5.7491,5.7491,5.7491,5.7491,5.7491,5.7491,5.7491,5.7491,5.7491,5.7491,1.731,1.7407,1.7938,1.8266,2.1026,2.3039,2.2581,2.4625,2.6926,2.8918,2.988,3.0896,3.2304,3.3264,3.3405,3.2453,3.2408,3.2643,3.3193,3.2404,3.2974,3.5412,3.5027,3.4202,3.3083,3.2479,0.0,3.0756,0.0,2.5286,2.6113,2.2542,2.0958,2.1089,2.0965,2.1171,2.1919,2.643,3.0119,3.2877,3.1819,3.2639,0.0,3.4655,3.5857,3.7614,3.8562,3.8908,3.8939,3.9103,4.0297,4.1758,4.2013,4.2605,4.3236,4.3517,4.4781,4.6091,4.6091,4.677,4.7584,4.7925,4.6802,4.5961,4.7295,4.6193,4.5228,4.6596,4.6423,4.5709,4.4603,4.1052,3.7324,3.4366,3.1016,2.8551,2.7939,2.8565,2.8763,2.7899,3.026,3.1651,3.0866,3.3016,3.5015,3.6411,3.6988,3.8791,4.2177,4.5485,4.8466,5.1063,5.2373,5.3636,5.4986,5.3962,5.4763,5.7355,5.8113,5.8664,5.9008,5.9008,5.8434,5.7491,5.7491,5.7491,5.7491,5.7491,5.7491,5.7491,5.7491,5.7491,5.7491,5.7491,5.7491,5.7491,1.7682,1.8321,1.9291,1.9589,2.3535,2.637,2.5472,2.7001,2.9158,3.1687,3.1807,3.2138,3.3409,3.4035,3.4288,3.418,3.2601,3.2675,3.5139,3.2329,3.222,3.5887,3.5084,3.4535,3.4482,3.3894,3.3701,0.0,0.0,2.6677,2.7898,2.3171,2.0915,2.0856,2.1113,2.167,2.2728,2.7177,3.0719,3.3305,3.3301,3.4301,3.5848,3.6341,3.7706,3.9622,4.1545,4.1289,4.0104,4.0458,4.1722,4.3181,4.3241,4.4252,4.5413,4.5476,4.6535,4.7684,4.7684,4.7684,4.7874,4.8675,4.8885,4.9435,5.1512,5.1633,5.1668,5.2923,5.2831,5.1634,4.8844,4.5421,4.0647,3.3487,3.034,2.8802,2.8897,3.0688,3.0755,2.7469,3.1887,0.0,3.0247,3.2253,3.4234,3.5304,3.5893,3.7071,3.9114,4.4771,4.7706,4.7136,5.1897,5.3579,5.1675,5.1371,5.2765,5.5877,5.5885,5.6989,5.9008,5.9008,5.8434,5.7491,5.7491,5.7491,5.7491,5.7491,5.7491,5.7491,5.7491,5.7491,5.7491,5.7491,5.7491,5.7491,1.9763,1.983,2.081,2.2636,2.436,2.6339,2.8844,3.0948,3.2104,3.1583,3.2366,3.2804,3.2349,3.3313,3.3701,3.298,3.2897,3.3091,3.3589,3.3037,3.3429,3.5141,3.5332,3.5243,3.491,3.5411,3.5375,3.4798,3.0279,2.8052,2.7883,2.304,2.1054,2.1595,2.144,2.3794,2.7929,2.7896,2.9983,3.3299,3.3293,3.3665,3.4368,3.5973,3.793,3.9883,4.0536,4.2155,4.4009,4.4071,4.5232,4.668,4.7065,4.7389,4.7731,4.8102,4.8429,4.8645,4.8645,4.8645,4.8842,4.966,4.9855,5.0323,5.2086,5.24,5.258,5.3485,5.3587,5.3371,5.2794,4.7945,4.2177,3.6507,3.378,3.184,3.0246,3.2581,3.3267,3.0033,3.3254,3.475,3.2227,3.2453,3.3189,3.421,3.4775,3.6951,4.1211,4.174,4.4194,4.9174,4.9236,5.0947,5.4684,5.2449,5.4048,5.9468,5.7045,5.6989,5.9008,5.9008,5.8434,5.7491,5.7491,5.7491,5.7491,5.7491,5.7491,5.7491,5.7491,5.7491,5.7491,5.7491,5.7491,5.7491,2.2127,2.1257,2.118,2.3015,2.5351,2.7527,2.9235,3.1983,3.3505,3.2532,3.3082,3.3393,3.2976,3.3664,3.3986,3.3566,3.3335,3.3463,3.4084,3.3534,3.3747,3.4954,3.5381,3.5113,3.4102,3.5483,3.5499,3.4054,3.0471,2.861,2.8309,2.3579,2.1677,2.2265,2.3289,2.538,2.8253,2.9641,3.1525,3.363,3.4624,3.5794,3.7177,3.9193,4.1188,4.3077,4.4361,4.5768,4.6891,4.598,4.6813,4.8274,4.8471,4.8578,4.8621,4.8842,4.8907,4.8907,4.8907,4.9201,4.9732,5.0549,5.1092,5.1728,5.293,5.3214,5.3332,5.3728,5.3803,5.3299,5.1658,4.8868,4.5317,4.0797,3.7429,3.5116,3.4401,3.5419,3.5548,3.3736,3.7277,3.8355,3.4526,3.4626,3.4787,3.4426,3.4643,3.6409,4.0138,4.1663,4.4091,4.7714,4.9331,5.1123,5.3148,5.209,5.3751,5.8063,5.6602,5.6989,5.9008,5.9008,5.8434,5.7491,5.7491,5.7491,5.7491,5.7491,5.7491,5.7491,5.7491,5.7491,5.7491,5.7491,5.7491,5.7491,2.4661,2.3481,2.2795,2.4317,2.6936,2.9058,2.9758,3.2168,3.3796,3.3447,3.363,3.3833,3.3919,3.4222,3.4289,3.4064,3.3749,3.3705,3.4006,3.3813,3.3955,3.4499,3.5284,3.5053,3.3617,3.5296,3.5383,3.3706,3.0903,2.9327,2.8843,2.4662,2.2972,2.3533,2.5911,2.752,2.8613,3.1731,3.358,3.4573,3.6517,3.8393,4.0247,4.2323,4.4241,4.6048,4.7743,4.8589,4.8688,4.7331,4.775,4.8907,4.8907,4.8907,4.8947,4.9083,4.9142,4.9201,4.9379,4.9889,5.0569,5.142,5.2111,5.2797,5.3615,5.3803,5.3803,5.3803,5.3803,5.3034,5.0569,4.9631,4.8043,4.4283,4.0451,3.7801,3.7364,3.7581,3.7597,3.7057,4.0254,4.0846,3.6591,3.6191,3.5797,3.4871,3.4691,3.5953,3.897,4.1672,4.3979,4.583,4.9301,5.1165,5.1278,5.1631,5.3541,5.7019,5.6158,5.6897,5.8985,5.887,5.8342,5.7491,5.7491,5.7491,5.7491,5.7491,5.7491,5.7491,5.7491,5.7491,5.7491,5.7491,5.7491,5.7491,2.7431,2.7568,2.818,2.9777,2.9795,3.044,3.2948,3.2758,3.2655,3.363,3.3782,3.3938,3.4299,3.4372,3.3979,3.2951,3.4069,3.3692,3.1012,3.3685,3.4644,3.299,3.4987,3.5746,3.4846,3.5725,3.5918,3.5386,3.3014,3.1021,2.9274,2.6422,2.5457,2.6266,2.9213,3.1337,3.2795,3.3804,3.5052,3.6527,3.8707,3.9896,4.0536,4.2399,4.4421,4.6283,4.6465,4.7551,4.8888,4.8708,4.8789,4.8907,4.8907,4.8907,4.9024,4.9769,4.9984,5.016,5.096,5.1231,5.1482,5.2283,5.2531,5.2797,5.3615,5.3803,5.3803,5.3803,5.3803,5.3707,5.3419,5.1417,4.8596,4.4845,4.1902,3.8936,3.558,3.7569,3.9183,3.8642,3.8964,3.8847,3.7892,3.4847,3.3465,3.4703,3.4354,3.588,4.0018,3.9643,4.1336,4.5758,4.6759,4.8827,5.2145,5.1926,5.4758,6.0586,5.6975,5.6597,5.8985,5.8503,5.7975,5.7491,5.7491,5.7491,5.7491,5.7491,5.7491,5.7491,5.7491,5.7491,5.7491,5.7491,5.7491,5.7491,2.9663,2.8762,2.8332,2.9669,3.0427,3.1356,3.2913,3.4353,3.5619,3.6561,3.6093,3.5427,3.4829,3.5621,3.583,3.4893,3.5362,3.5204,3.3944,3.5181,3.5411,3.4151,3.5221,3.5591,3.5006,3.5803,3.5969,3.5531,3.2365,3.0539,2.9959,2.7542,2.7294,2.894,3.1542,3.3031,3.3698,3.5378,3.7174,3.8958,3.9844,4.1703,4.4013,4.4765,4.65,4.8525,4.8029,4.8822,5.002,4.9504,4.9128,4.8986,4.9477,4.9853,5.0273,5.1099,5.1578,5.1927,5.2261,5.2711,5.316,5.349,5.3915,5.4358,5.4684,5.476,5.476,5.476,5.476,5.4664,5.4351,5.3437,5.161,4.8219,4.6511,4.4539,4.1408,4.1816,4.3057,4.478,4.3562,4.3129,4.4531,3.9874,3.6879,3.7178,3.5219,3.5448,3.8781,4.0643,4.337,4.7233,4.8796,5.1826,5.6511,5.5221,5.6758,6.1076,5.894,5.8296,5.8985,5.8434,5.7929,5.7491,5.7491,5.7491,5.7491,5.7491,5.7491,5.7491,5.7491,5.7491,5.7491,5.7491,5.7491,5.7491,3.1764,3.0617,2.9847,3.0669,3.219,3.3386,3.3688,3.644,3.8633,3.9075,3.9264,3.8839,3.7446,3.7905,3.7929,3.7025,3.6908,3.6414,3.5276,3.6172,3.6123,3.4717,3.5481,3.5743,3.5329,3.5881,3.6081,3.5848,3.3088,3.1617,3.1391,2.9811,2.9967,3.1678,3.3852,3.4791,3.495,3.718,3.9027,4.0506,4.1652,4.381,4.6365,4.6869,4.8274,4.9873,4.9302,4.9789,5.0668,5.0307,4.9987,4.978,5.0075,5.0595,5.1303,5.2153,5.2858,5.3392,5.3649,5.412,5.455,5.455,5.4978,5.5385,5.5385,5.5385,5.5385,5.5385,5.5385,5.5289,5.4904,5.4832,5.3798,5.0641,4.9823,4.8579,4.5734,4.5013,4.5614,4.7882,4.5669,4.5053,4.7882,4.312,3.9739,3.9523,3.7552,3.718,3.9083,4.1196,4.4034,4.7714,4.8548,5.1556,5.7013,5.5835,5.7054,6.0666,5.9869,5.9238,5.8755,5.8227,5.7791,5.7491,5.7491,5.7491,5.7491,5.7491,5.7491,5.7491,5.7491,5.7491,5.7491,5.7491,5.7491,5.7491,3.3765,3.4057,3.4335,3.4352,3.6013,3.7049,3.6289,3.8941,4.0892,4.0422,4.3202,4.4555,4.289,4.13,3.9919,3.8773,3.8612,3.694,3.3091,3.6065,3.6735,3.3941,3.5649,3.6503,3.61,3.61,3.6282,3.6684,3.623,3.5268,3.3849,3.3766,3.3955,3.4419,3.632,3.7155,3.7297,3.9454,4.0384,4.0752,4.4663,4.6244,4.6486,4.821,4.9172,4.9608,4.9608,4.9892,5.0448,5.1297,5.1619,5.1521,5.059,5.0934,5.1843,5.2659,5.3511,5.4355,5.5153,5.539,5.5385,5.5385,5.5385,5.5385,5.5385,5.5385,5.5385,5.5385,5.5385,5.5385,5.5385,5.5385,5.4351,5.1201,5.0696,4.9565,4.6351,4.5878,4.5894,4.5926,4.3168,4.2471,4.5629,4.2576,4.0609,4.1139,4.1634,4.1923,4.1947,4.0489,4.1807,4.6567,4.4242,4.5701,5.1545,5.2142,5.4864,5.9623,5.9206,5.8732,5.8181,5.7721,5.7514,5.7491,5.7491,5.7491,5.7491,5.7491,5.7491,5.7491,5.7491,5.7491,5.7491,5.7491,5.7491,5.7491,3.3804,3.6091,3.8009,3.756,3.8609,3.9774,4.0574,4.2637,4.4402,4.5342,4.7669,4.925,4.9264,4.6532,4.4451,4.3851,4.1949,4.0622,4.0274,3.9335,3.8562,3.798,3.742,3.6841,3.6234,3.6097,3.5861,3.5544,3.5148,3.4702,3.4251,3.4219,3.4967,3.6354,3.7231,3.8282,3.9348,3.9088,4.1078,4.4419,4.4456,4.647,4.9422,4.9408,5.0415,5.1775,5.1237,5.1691,5.2601,5.2923,5.3252,5.3487,5.318,5.3502,5.4108,5.4921,5.5617,5.6156,5.6413,5.6472,5.6472,5.6472,5.6472,5.6472,5.6472,5.6472,5.6472,5.6472,5.6472,5.6376,5.6015,5.5943,5.4909,5.1754,5.274,5.2932,5.0119,4.9404,4.9163,4.9163,4.668,4.6223,4.9397,4.668,4.478,4.4948,4.3111,4.1995,4.1995,4.4242,4.7209,5.0894,5.0912,5.2974,5.7458,5.591,5.682,6.0135,5.9368,5.8549,5.7721,5.7583,5.7491,5.7491,5.7491,5.7491,5.7491,5.7491,5.7491,5.7491,5.7491,5.7491,5.7491,5.7491,5.7491,5.7491,3.6503,3.8422,4.0177,4.0347,4.1477,4.2684,4.3628,4.5943,4.7843,4.8492,5.0321,5.1818,5.2511,5.0513,4.87,4.7673,4.5349,4.4136,4.4618,4.1974,4.04,4.0348,3.8362,3.7064,3.6644,3.6507,3.6266,3.5843,3.5566,3.5535,3.5672,3.5672,3.6354,3.7617,3.7878,3.8962,4.062,4.0394,4.2787,4.6727,4.645,4.8356,5.1357,5.1004,5.1845,5.3136,5.2616,5.3078,5.3954,5.4338,5.4647,5.4943,5.527,5.5563,5.5783,5.5962,5.6478,5.7001,5.7001,5.7001,5.7001,5.7001,5.7001,5.7001,5.7001,5.7001,5.7001,5.7001,5.7001,5.6905,5.6568,5.65,5.5871,5.3894,5.4928,5.5433,5.3798,5.2427,5.1513,5.1321,4.894,4.8555,5.1796,5.0095,4.8892,4.9084,4.6527,4.5316,4.6135,4.6752,4.8827,5.2601,5.3582,5.5676,5.9072,5.7293,5.7656,6.0111,5.8998,5.8111,5.7491,5.7491,5.7491,5.7491,5.7491,5.7491,5.7491,5.7491,5.7491,5.7491,5.7491,5.7491,5.7491,5.7491,5.7491,5.7491,4.0964,4.1076,4.1514,4.2853,4.4588,4.5822,4.5882,4.8875,5.0919,5.0217,5.1435,5.259,5.3095,5.3162,5.2329,5.0336,4.8594,4.7335,4.6609,4.4148,4.2345,4.15,3.9022,3.758,3.7394,3.7394,3.7363,3.7379,3.7317,3.7467,3.7835,3.7835,3.8002,3.8302,3.8302,3.9373,4.1281,4.2886,4.5189,4.791,5.0005,5.1481,5.2437,5.2882,5.3365,5.3845,5.3845,5.4124,5.462,5.549,5.5792,5.5913,5.6742,5.7001,5.6841,5.6013,5.6358,5.7001,5.7001,5.7001,5.7001,5.7001,5.7001,5.7001,5.7001,5.7025,5.7049,5.7049,5.7049,5.7049,5.7049,5.7025,5.7025,5.7049,5.7049,5.7001,5.6857,5.465,5.2818,5.2157,5.004,4.9799,5.2777,5.2831,5.2782,5.309,5.1285,5.1068,5.3114,4.8466,4.7937,5.2686,5.3336,5.4832,5.7387,5.696,5.7745,5.9669,5.8237,5.756,5.756,5.7514,5.7491,5.7491,5.7491,5.7491,5.7491,5.7491,5.7491,5.7491,5.7491,5.7491,5.7491,5.7491,5.7491,5.7491,4.1055,4.4235,4.685,4.6128,4.7588,4.9283,5.0482,5.1263,5.186,5.2282,5.2999,5.3491,5.3611,5.363,5.3432,5.2914,5.0476,4.9279,5.0049,4.7439,4.5593,4.5087,4.3197,4.1289,3.9454,3.9255,3.9175,3.9106,3.8385,3.8079,3.8182,3.8182,3.8216,3.8302,3.8302,4.0035,4.2991,4.3093,4.582,5.0107,5.0349,5.2021,5.427,5.3749,5.4236,5.5222,5.5222,5.5315,5.553,5.6398,5.6678,5.6742,5.6941,5.7001,5.6961,5.6762,5.6841,5.7001,5.7001,5.7001,5.7001,5.7001,5.7001,5.7001,5.7001,5.7313,5.7602,5.7602,5.7602,5.7602,5.7602,5.7265,5.7121,5.753,5.7602,5.7025,5.539,5.426,5.2673,5.016,5.1098,5.2085,5.2446,5.4904,5.5554,5.3282,5.2956,5.3293,5.4183,5.3034,5.4183,5.8195,5.8436,5.9218,6.0688,6.0212,5.9885,5.9692,5.8569,5.8021,5.8021,5.7675,5.7491,5.7491,5.7491,5.7491,5.7491,5.7491,5.7491,5.7491,5.7491,5.7491,5.7491,5.7491,5.7491,5.7491,4.5549,4.7667,4.9462,4.943,5.0185,5.1245,5.2497,5.2719,5.2922,5.3357,5.3654,5.3803,5.3803,5.3803,5.3803,5.3803,5.2336,5.1709,5.2399,4.9843,4.8215,4.8,4.5939,4.3831,4.1746,4.1184,4.0292,3.905,3.8986,3.8708,3.8302,3.8302,3.8751,3.9543,3.9763,4.2048,4.5739,4.5753,4.8322,5.2408,5.2451,5.37,5.5522,5.5297,5.5657,5.6298,5.6298,5.6298,5.6378,5.6841,5.7169,5.7313,5.7073,5.7169,5.7313,5.7073,5.7169,5.7361,5.7361,5.7361,5.7313,5.7073,5.7001,5.7001,5.7001,5.7217,5.7434,5.7434,5.7434,5.7434,5.7434,5.7193,5.7097,5.7385,5.6419,5.5241,5.4063,5.2812,5.1844,5.1297,5.274,5.4135,5.5092,5.678,5.7189,5.5717,5.4496,5.4669,5.6684,5.5847,5.6949,6.0457,6.0794,6.1197,6.18,6.1098,6.0306,5.9375,5.8572,5.8204,5.8181,5.7699,5.7491,5.7491,5.7491,5.7491,5.7491,5.7491,5.7491,5.7491,5.7491,5.7491,5.7491,5.7491,5.7491,5.7491,5.0892,5.0699,5.0788,5.2013,5.222,5.2422,5.3099,5.3534,5.3803,5.3803,5.3803,5.3803,5.3803,5.3803,5.3803,5.3803,5.3803,5.3803,5.3803,5.1789,5.0449,5.0197,4.7818,4.5717,4.4046,4.2831,4.1076,3.8708,3.937,3.9405,3.8799,3.8799,3.9905,4.1844,4.2225,4.4715,4.8639,4.9254,5.1358,5.4383,5.5047,5.5716,5.6376,5.6833,5.7001,5.7001,5.7001,5.7049,5.7121,5.7025,5.7361,5.7718,5.7169,5.7313,5.7578,5.7121,5.7361,5.777,5.7698,5.7674,5.7554,5.7121,5.7001,5.7001,5.7001,5.7073,5.7121,5.7121,5.7121,5.7121,5.7121,5.7049,5.6881,5.6568,5.464,5.3095,5.2782,5.1525,5.1411,5.3539,5.4549,5.5987,5.8271,5.8151,5.8151,5.868,5.6256,5.6203,5.947,5.7911,5.8223,6.101,6.1563,6.1766,6.1686,6.0909,6.0077,5.9215,5.8595,5.8319,5.8296,5.7767,5.7491,5.7491,5.7491,5.7491,5.7491,5.7491,5.7491,5.7491,5.7491,5.7491,5.7491,5.7491,5.7491,5.7491,5.1074,5.1895,5.2469,5.2055,5.2818,5.3552,5.3664,5.3755,5.3803,5.3803,5.3803,5.3803,5.3803,5.3803,5.3803,5.3803,5.3803,5.3803,5.3803,5.3441,5.2579,5.1155,4.9344,4.7585,4.592,4.3569,4.1798,4.0578,3.9986,4.021,4.1163,4.1163,4.2756,4.5553,4.5654,4.7279,5.0067,5.1279,5.2964,5.4968,5.6208,5.6761,5.6881,5.6977,5.7001,5.7001,5.7001,5.7289,5.7602,5.7145,5.7361,5.7718,5.7169,5.7049,5.7097,5.7025,5.7361,5.7698,5.7241,5.7121,5.7097,5.7025,5.7001,5.7001,5.7001,5.7337,5.7694,5.7694,5.7694,5.7694,5.7694,5.7313,5.64,5.4597,5.3948,5.3077,5.1321,5.2692,5.3846,5.3803,5.5871,5.7478,5.7886,5.8271,5.8704,5.9254,5.923,5.9663,6.0719,6.0454,6.0697,6.1638,6.1758,6.1609,6.1225,6.1117,6.0812,6.0247,5.9306,5.887,5.8847,5.7928,5.7491,5.7491,5.7491,5.7491,5.7491,5.7491,5.7491,5.7491,5.7491,5.7491,5.7491,5.7491,5.7491,5.7491,5.2509,5.3051,5.3349,5.2989,5.341,5.3803,5.3803,5.3803,5.3803,5.3803,5.3803,5.3803,5.3803,5.3803,5.3803,5.3803,5.4068,5.4236,5.4236,5.3948,5.3441,5.2679,5.1912,5.0633,4.8748,4.7102,4.5737,4.4613,4.4675,4.4775,4.4931,4.4931,4.6201,4.8519,4.8772,5.0362,5.2907,5.377,5.4891,5.6148,5.6746,5.7001,5.7001,5.7001,5.7001,5.7049,5.7313,5.7409,5.7361,5.7409,5.7598,5.7718,5.7169,5.7193,5.7361,5.7073,5.7361,5.7766,5.7482,5.7434,5.7361,5.7073,5.7001,5.7001,5.7001,5.7193,5.7361,5.7361,5.7361,5.7361,5.7361,5.7169,5.6664,5.5679,5.4351,5.3173,5.2457,5.3678,5.4616,5.4664,5.7285,5.8969,5.868,5.8872,5.9233,5.9783,6.0048,6.0553,6.1395,6.1443,6.1542,6.1782,6.1523,6.126,6.1098,6.089,6.0537,6.0041,5.9329,5.8847,5.8549,5.7836,5.7491,5.7491,5.7491,5.7491,5.7491,5.7491,5.7491,5.7491,5.7491,5.7491,5.7491,5.7491,5.7491,5.7491,5.3731,5.3803,5.3803,5.3803,5.3803,5.3803,5.3803,5.3803,5.3803,5.3803,5.3803,5.3851,5.3972,5.3972,5.4044,5.4164,5.4568,5.4784,5.4784,5.438,5.4164,5.4164,5.3799,5.2697,5.0746,5.0091,4.9197,4.8002,4.8682,4.8807,4.848,4.848,4.9573,5.1563,5.194,5.3363,5.5493,5.5851,5.6398,5.7001,5.7001,5.7001,5.7025,5.7145,5.7121,5.7073,5.7602,5.753,5.7217,5.7506,5.7718,5.7718,5.7169,5.7265,5.753,5.7121,5.7289,5.7602,5.7602,5.7602,5.7526,5.7097,5.7001,5.7001,5.7001,5.7001,5.7025,5.7169,5.7193,5.7217,5.7337,5.7361,5.7169,5.6544,5.476,5.3576,5.3924,5.4332,5.5001,5.6011,5.8316,5.9711,5.9422,5.9519,5.9807,6.0337,6.0406,6.0794,6.1758,6.1686,6.159,6.159,6.1222,6.098,6.0912,6.0593,6.0171,5.9674,5.9215,5.871,5.8181,5.7699,5.7491,5.7491,5.7491,5.7491,5.7491,5.7491,5.7491,5.7491,5.7491,5.7491,5.7491,5.7491,5.7491,5.7491,5.3803,5.3803,5.3803,5.3803,5.3803,5.3803,5.3803,5.3803,5.3803,5.3803,5.3803,5.3996,5.4496,5.4525,5.4736,5.5241,5.5313,5.5337,5.5337,5.5289,5.5289,5.5289,5.3799,5.2181,5.048,5.0379,4.987,4.8887,4.897,4.9615,5.0767,5.0767,5.2363,5.5289,5.5335,5.5906,5.6853,5.6877,5.6941,5.7001,5.7001,5.7001,5.7049,5.7554,5.7434,5.7073,5.7602,5.777,5.7674,5.7217,5.7385,5.7718,5.7169,5.7025,5.7049,5.7001,5.7025,5.7049,5.7049,5.7049,5.7049,5.7001,5.7001,5.7001,5.7001,5.7001,5.7145,5.7626,5.7722,5.789,5.8392,5.8488,5.767,5.5193,5.4616,5.4496,5.4544,5.4592,5.553,5.8055,5.856,5.8897,5.9374,5.9855,6.0361,6.0911,6.0959,6.1179,6.1758,6.1323,6.1055,6.1055,6.1082,6.0862,6.0349,6.0443,6.0224,5.9674,5.9215,5.871,5.8181,5.7699,5.7491,5.7491,5.7491,5.7491,5.7491,5.7491,5.7491,5.7491,5.7491,5.7491,5.7491,5.7491,5.7491,5.7491,5.3803,5.3803,5.3803,5.3803,5.3803,5.3803,5.3803,5.3803,5.3924,5.4236,5.4303,5.4501,5.5049,5.5097,5.5169,5.5385,5.5703,5.5895,5.5895,5.6207,5.6107,5.5433,5.478,5.4297,5.3992,5.4015,5.3972,5.3949,5.3949,5.4225,5.4713,5.4713,5.5356,5.6498,5.6498,5.6678,5.7001,5.7001,5.7001,5.7001,5.7001,5.7001,5.7025,5.7217,5.7169,5.7073,5.7602,5.7598,5.7313,5.7458,5.7409,5.7265,5.7073,5.7001,5.7073,5.7385,5.7482,5.7554,5.789,5.7746,5.7482,5.7482,5.7766,5.8007,5.8007,5.8007,5.8055,5.8247,5.8295,5.8367,5.856,5.8608,5.8271,5.7237,5.7069,5.7189,5.7526,5.7574,5.8079,5.9446,5.9879,6.0168,6.0361,6.089,6.1299,6.1491,6.1515,6.1587,6.1782,6.1299,6.0858,6.0584,6.0602,6.0512,6.0302,6.0097,5.9743,5.9261,5.8755,5.8227,5.7767,5.7583,5.7491,5.7491,5.7491,5.7491,5.7491,5.7491,5.7491,5.7491,5.7491,5.7491,5.7491,5.7491,5.7491,5.7491,5.3803,5.3803,5.3803,5.3803,5.3803,5.3851,5.402,5.4044,5.4236,5.4784,5.4856,5.5073,5.5602,5.563,5.5722,5.589,5.6231,5.6448,5.6448,5.6808,5.6664,5.5938,5.5914,5.6063,5.6448,5.6448,5.664,5.7001,5.7001,5.7001,5.7001,5.7001,5.7001,5.7001,5.7001,5.7001,5.7001,5.7001,5.7097,5.7241,5.7073,5.7097,5.7241,5.7241,5.7145,5.7073,5.7602,5.7458,5.7049,5.7409,5.7289,5.7001,5.7001,5.7121,5.7361,5.789,5.8055,5.8127,5.8512,5.8464,5.8271,5.8103,5.8319,5.8608,5.8608,5.8608,5.8656,5.88,5.8848,5.8897,5.9065,5.9089,5.9089,5.9089,5.9089,5.9209,5.9615,5.9807,6.0048,6.0409,6.0914,6.12,6.1031,6.1491,6.1734,6.1563,6.1563,6.1491,6.1323,6.0957,6.0624,6.0305,6.0153,6.0084,6.0084,5.9823,5.9398,5.8732,5.8365,5.7952,5.7491,5.7491,5.7491,5.7491,5.7491,5.7491,5.7491,5.7491,5.7491,5.7491,5.7491,5.7491,5.7491,5.7491,5.7491,5.7491,5.3803,5.3803,5.3803,5.3803,5.3803,5.3972,5.4525,5.4616,5.4808,5.5337,5.5409,5.5626,5.614,5.6212,5.6404,5.6953,5.7001,5.7001,5.7001,5.7001,5.7001,5.7001,5.7001,5.7001,5.7001,5.7001,5.7001,5.7001,5.7001,5.7001,5.7001,5.7001,5.7001,5.7001,5.7001,5.7001,5.7001,5.7001,5.7313,5.7766,5.7217,5.7313,5.777,5.777,5.7458,5.7073,5.7602,5.7434,5.7001,5.7001,5.7001,5.7001,5.7001,5.7361,5.7911,5.844,5.8608,5.8608,5.8608,5.8993,5.9278,5.8728,5.8608,5.8608,5.8608,5.8608,5.8752,5.9302,5.9422,5.9567,6.0096,6.0192,6.0192,6.0192,6.0192,6.0192,6.0216,6.0649,6.1007,6.1007,6.1467,6.159,6.1055,6.1491,6.1587,6.1055,6.1007,6.0767,6.0216,6.0276,6.0305,6.0284,5.9824,5.96,5.96,5.9667,5.9192,5.8204,5.8181,5.7929,5.7491,5.7491,5.7491,5.7491,5.7491,5.7491,5.7491,5.7491,5.7491,5.7491,5.7491,5.7491,5.7491,5.7491,5.7491,5.7491,5.3803,5.3803,5.3924,5.4303,5.4356,5.4525,5.5073,5.5169,5.5361,5.5895,5.5967,5.6159,5.6712,5.676,5.6833,5.6977,5.7001,5.7001,5.7001,5.7001,5.7001,5.7001,5.7001,5.7001,5.7001,5.7001,5.7001,5.7001,5.7001,5.7001,5.7001,5.7001,5.7001,5.7001,5.7001,5.7001,5.7001,5.7001,5.7097,5.7217,5.7073,5.7097,5.7241,5.7241,5.7145,5.7025,5.7169,5.7145,5.7001,5.7001,5.7241,5.7646,5.7986,5.8223,5.8464,5.8993,5.9182,5.9254,5.9615,5.9831,5.9831,5.9302,5.9426,5.9711,5.9711,5.9711,5.9759,5.9928,5.9952,6.0,6.0168,6.0192,6.0312,6.0697,6.0767,6.089,6.1253,6.1446,6.1419,6.1055,6.1467,6.159,6.1055,6.1491,6.1587,6.1055,6.067,6.0361,6.0192,6.0276,6.0155,5.9833,5.9672,5.9283,5.8608,5.8638,5.8503,5.8181,5.7882,5.7629,5.7491,5.7491,5.7491,5.7491,5.7491,5.7491,5.7491,5.7491,5.7491,5.7491,5.7491,5.7491,5.7491,5.7491,5.7491,5.7491,5.3803,5.3972,5.4212,5.4525,5.4784,5.5097,5.563,5.5703,5.5895,5.6448,5.652,5.664,5.6977,5.7001,5.7001,5.7001,5.7001,5.7001,5.7001,5.7001,5.7001,5.7001,5.7001,5.7001,5.7001,5.7001,5.7001,5.7001,5.7001,5.7001,5.7001,5.7001,5.7001,5.7001,5.7001,5.7001,5.7001,5.7001,5.7121,5.7289,5.7097,5.7121,5.7289,5.7073,5.7001,5.7001,5.7001,5.7145,5.7313,5.7313,5.7674,5.8223,5.8752,5.8921,5.9017,5.9567,5.9711,5.9783,6.0096,6.0192,6.012,5.9807,5.9952,6.0192,6.0192,6.0192,6.0192,6.0192,6.0361,6.0505,6.0505,6.0697,6.0938,6.1251,6.113,6.1106,6.1443,6.1491,6.1371,6.1055,6.1467,6.159,6.1055,6.1299,6.1251,6.0721,6.0385,6.0108,5.994,5.9975,5.9811,5.9335,5.9136,5.8765,5.8204,5.8021,5.7906,5.7906,5.7629,5.7491,5.7491,5.7491,5.7491,5.7491,5.7491,5.7491,5.7491,5.7491,5.7491,5.7491,5.7491,5.7491,5.7491,5.7491,5.7491,5.7491,5.3875,5.4284,5.4688,5.4717,5.5145,5.565,5.6207,5.626,5.6448,5.6929,5.7001,5.7001,5.7001,5.7001,5.7001,5.7001,5.7001,5.7001,5.7001,5.7001,5.7001,5.7001,5.7001,5.7001,5.7001,5.7001,5.7001,5.7001,5.7001,5.7001,5.7001,5.7001,5.7001,5.7001,5.7001,5.7001,5.7001,5.7001,5.7265,5.7694,5.7193,5.7289,5.7694,5.7193,5.7001,5.7001,5.7049,5.7385,5.7794,5.7911,5.8271,5.8752,5.9281,5.947,5.9567,6.0048,6.0192,6.0192,6.0192,6.0192,6.0192,6.0192,6.024,6.024,6.0192,6.024,6.0264,6.0264,6.0697,6.1055,6.1007,6.1395,6.1734,6.1734,6.1323,6.1031,6.1058,6.108,6.1055,6.1007,6.1443,6.1515,6.0983,6.0935,6.0743,6.024,6.0192,6.0003,5.9515,5.9569,5.9354,5.8832,5.8421,5.8181,5.8135,5.7699,5.7491,5.7491,5.7491,5.7491,5.7491,5.7491,5.7491,5.7491,5.7491,5.7491,5.7491,5.7491,5.7491,5.7491,5.7491,5.7491,5.7491,5.7491,5.7491,5.7514,5.4447,5.4856,5.5361,5.5775,5.5943,5.6207,5.6736,5.6833,5.6881,5.6977,5.7001,5.7001,5.7001,5.7001,5.7001,5.7001,5.7001,5.7001,5.7001,5.7001,5.7001,5.7001,5.7001,5.7001,5.7001,5.7001,5.7001,5.7001,5.7001,5.7001,5.7001,5.7001,5.7001,5.7001,5.7001,5.7001,5.7001,5.7001,5.7073,5.7169,5.7049,5.7073,5.7169,5.7049,5.7001,5.7049,5.7478,5.7698,5.7935,5.8752,5.9134,5.9326,5.9855,6.0024,6.0048,6.0168,6.0192,6.0192,6.0192,6.0192,6.0192,6.0192,6.0526,6.0719,6.0288,6.0505,6.0839,6.0839,6.1251,6.1515,6.108,6.1104,6.1154,6.1154,6.108,6.1152,6.1587,6.1636,6.1467,6.1055,6.1082,6.0962,6.043,6.0361,6.0312,6.0192,6.0192,6.0003,5.9515,5.9569,5.919,5.8299,5.8237,5.8021,5.7652,5.756,5.7491,5.7491,5.7491,5.7491,5.7491,5.7491,5.7491,5.7491,5.7491,5.7491,5.7491,5.7491,5.7491,5.7491,5.7491,5.7491,5.7491,5.7491,5.7491,5.756,5.4977,5.5409,5.5871,5.614,5.6424,5.6688,5.6953,5.7001,5.7001,5.7001,5.7001,5.7001,5.7001,5.7001,5.7001,5.7001,5.7001,5.7001,5.7001,5.7001,5.7001,5.7001,5.7001,5.7001,5.7001,5.7001,5.7001,5.7001,5.7001,5.7001,5.7001,5.7001,5.7001,5.7001,5.7001,5.7001,5.7001,5.7001,5.7001,5.7001,5.7001,5.7001,5.7025,5.7289,5.7385,5.7434,5.8007,5.8343,5.868,5.9519,5.9783,5.9831,6.0096,6.0192,6.0192,6.0192,6.0192,6.0192,6.0192,6.0406,6.0505,6.0264,6.0601,6.0935,6.067,6.0815,6.1007,6.1007,6.1227,6.1323,6.1055,6.1203,6.1371,6.1371,6.1154,6.1104,6.1371,6.1203,6.0938,6.0649,6.0622,6.0505,6.0216,6.0192,6.0192,6.0192,6.0192,5.9898,5.92,5.9183,5.8802,5.7836,5.7852,5.7744,5.7491,5.7491,5.7491,5.7491,5.7491,5.7491,5.7491,5.7491,5.7491,5.7491,5.7491,5.7491,5.7491,5.7491,5.7491,5.7491,5.7491,5.7491,5.7491,5.7491,5.7491,5.7583,5.553,5.5967,5.6352,5.6352,5.6712,5.7001,5.7001,5.7001,5.7001,5.7001,5.7001,5.7001,5.7001,5.7001,5.7001,5.7001,5.7001,5.7001,5.7001,5.7001,5.7001,5.7001,5.7001,5.7001,5.7001,5.7001,5.7001,5.7001,5.7001,5.7001,5.7001,5.7001,5.7001,5.7001,5.7001,5.7001,5.7001,5.7001,5.7001,5.7001,5.7001,5.7049,5.7193,5.7626,5.7862,5.8007,5.8536,5.9065,5.9615,6.0048,6.0192,6.0192,6.0192,6.0192,6.0192,6.0192,6.0192,6.0192,6.0192,6.0505,6.0767,6.0312,6.0601,6.1007,6.1007,6.1007,6.1007,6.1007,6.108,6.1128,6.1031,6.1371,6.1614,6.1542,6.1154,6.0863,6.0863,6.0481,6.0192,6.0192,6.0192,6.0192,6.0192,6.0192,6.0192,6.0192,6.0129,5.9708,5.8863,5.8711,5.8329,5.7513,5.7491,5.7491,5.7491,5.7491,5.7491,5.7491,5.7491,5.7491,5.7491,5.7491,5.7491,5.7491,5.7491,5.7491,5.7491,5.7491,5.7491,5.7491,5.7491,5.7491,5.7491,5.7491,5.756,5.7698,5.6087,5.652,5.6881,5.6881,5.6953,5.7001,5.7001,5.7001,5.7001,5.7001,5.7001,5.7001,5.7001,5.7001,5.7001,5.7001,5.7001,5.7001,5.7001,5.7001,5.7001,5.7001,5.7001,5.7001,5.7001,5.7001,5.7001,5.7001,5.7001,5.7001,5.7001,5.7001,5.7001,5.7001,5.7001,5.7001,5.7001,5.7001,5.7001,5.7001,5.7001,5.7265,5.7718,5.777,5.8103,5.856,5.911,5.9639,6.0096,6.0168,6.0192,6.0192,6.0192,6.0192,6.0192,6.0192,6.0192,6.0192,6.0192,6.024,6.0288,6.0216,6.0601,6.1007,6.1007,6.1007,6.1007,6.1007,6.1371,6.1542,6.1104,6.1055,6.0938,6.0481,6.0361,6.0312,6.0312,6.024,6.0192,6.0192,6.0192,6.0192,6.0192,6.0192,6.0192,6.0192,5.9835,5.937,5.8841,5.8413,5.7986,5.7491,5.7491,5.7491,5.7491,5.7491,5.7491,5.7491,5.7491,5.7491,5.7491,5.7491,5.7491,5.7491,5.7491,5.7491,5.7491,5.7491,5.7491,5.7491,5.7491,5.7491,5.7491,5.7491,5.7767,5.8181,5.6664,5.6833,5.7001,5.7001,5.7001,5.7001,5.7001,5.7001,5.7001,5.7001,5.7001,5.7001,5.7001,5.7001,5.7001,5.7001,5.7001,5.7001,5.7001,5.7001,5.7001,5.7001,5.7001,5.7001,5.7001,5.7001,5.7001,5.7001,5.7001,5.7001,5.7001,5.7001,5.7001,5.7001,5.7001,5.7001,5.7001,5.7001,5.7001,5.7025,5.7313,5.7578,5.7886,5.8464,5.8824,5.9113,5.9663,6.0,6.0192,6.0192,6.0192,6.0192,6.0192,6.0192,6.0192,6.0192,6.0192,6.0192,6.0192,6.0409,6.0553,6.0264,6.0601,6.0935,6.0601,6.0553,6.0646,6.0935,6.0938,6.0842,6.0601,6.0553,6.0478,6.024,6.0192,6.0192,6.0192,6.0192,6.0192,6.0192,6.0192,6.0192,6.0192,6.0192,6.0192,6.0192,5.9771,5.9306,5.8841,5.8349,5.7922,5.7491,5.7491,5.7491,5.7491,5.7491,5.7491,5.7491,5.7491,5.7491,5.7491,5.7491,5.7491,5.7491,5.7491,5.7491,5.7491,5.7491,5.7491,5.7491,5.7491,5.7491,5.7537,5.7791,5.8021,5.8319]}]]